﻿<?xml version="1.0" encoding="UTF-8" standalone="no" ?>
<gpx xmlns="http://www.topografix.com/GPX/1/1" creator="CompeGPS" version="1.1" xmlns:xsi="http://www.w3.org/2001/XMLSchema-instance" xsi:schemaLocation="http://www.topografix.com/GPX/1/1 http://www.topografix.com/GPX/1/1/gpx.xsd http://www.garmin.com/xmlschemas/GpxExtensions/v3 http://www.garmin.com/xmlschemas/GpxExtensionsv3.xsd http://www.garmin.com/xmlschemas/TrackPointExtension/v1 http://www.garmin.com/xmlschemas/TrackPointExtensionv1.xsd" xmlns:gpxtpx="http://www.garmin.com/xmlschemas/TrackPointExtension/v1">
  <metadata>
    <link href="http://www.compegps.com">
      <text>CompeGPS TEAM, SL</text>
    </link>
    <time>2013-04-15T12:21:17Z</time>
    <bounds maxlat="42.767573" maxlon="1.616612" minlat="42.700001" minlon="1.571942"/>
  </metadata>
<wpt lat="42.767555" lon="1.572787">
  <ele>950</ele>
  <name>Parking de Gesties</name>
</wpt>
<wpt lat="42.764762" lon="1.589233">
  <ele>1389</ele>
  <name>Col de Gamel</name>
</wpt>
<wpt lat="42.749183" lon="1.612564">
  <ele>1905</ele>
  <name>Pla de Montcamp</name>
</wpt>
<wpt lat="42.735512" lon="1.613203">
  <ele>1959</ele>
  <name>Pic du col Taillat</name>
</wpt>
<wpt lat="42.723172" lon="1.610517">
  <ele>2072</ele>
  <name>Cap de la Serre de l Escalier</name>
</wpt>
<wpt lat="42.720093" lon="1.593894">
  <ele>2170</ele>
  <name>Cap de la Serre de font Cendrasse</name>
</wpt>
<wpt lat="42.709021" lon="1.584350">
  <ele>2284</ele>
  <name>Pas des Egues</name>
</wpt>
<wpt lat="42.700045" lon="1.591664">
  <ele>2380</ele>
  <name>Pic de la Beze</name>
</wpt>
<wpt lat="42.723306" lon="1.592411">
  <ele>2185</ele>
  <name>La Calbe</name>
</wpt>
<wpt lat="42.739872" lon="1.594617">
  <ele>1391</ele>
  <name>Refuge forestier</name>
</wpt>
  <trk>
    <name>Pic de Beze</name>
    <trkseg>
      <trkpt lat="42.767555" lon="1.572787">
        <ele>975.3</ele>
        <time>2013-04-10T05:13:40Z</time>
        <name>Parking de Gesties</name>
      </trkpt>
      <trkpt lat="42.767020" lon="1.572902">
        <ele>969.8</ele>
        <time>2013-04-10T05:20:21Z</time>
      </trkpt>
      <trkpt lat="42.766676" lon="1.572996">
        <ele>966.6</ele>
        <time>2013-04-10T05:22:05Z</time>
      </trkpt>
      <trkpt lat="42.766486" lon="1.573169">
        <ele>969.7</ele>
        <time>2013-04-10T05:22:27Z</time>
      </trkpt>
      <trkpt lat="42.766444" lon="1.573417">
        <ele>975.4</ele>
        <time>2013-04-10T05:22:54Z</time>
      </trkpt>
      <trkpt lat="42.766491" lon="1.573602">
        <ele>981.0</ele>
        <time>2013-04-10T05:23:08Z</time>
      </trkpt>
      <trkpt lat="42.766648" lon="1.573746">
        <ele>989.8</ele>
        <time>2013-04-10T05:23:19Z</time>
      </trkpt>
      <trkpt lat="42.766729" lon="1.573866">
        <ele>993.2</ele>
        <time>2013-04-10T05:23:32Z</time>
      </trkpt>
      <trkpt lat="42.766759" lon="1.574007">
        <ele>996.1</ele>
        <time>2013-04-10T05:23:46Z</time>
      </trkpt>
      <trkpt lat="42.766776" lon="1.574136">
        <ele>998.5</ele>
        <time>2013-04-10T05:24:00Z</time>
      </trkpt>
      <trkpt lat="42.766816" lon="1.574286">
        <ele>1001.8</ele>
        <time>2013-04-10T05:24:21Z</time>
      </trkpt>
      <trkpt lat="42.766916" lon="1.574436">
        <ele>1005.2</ele>
        <time>2013-04-10T05:24:42Z</time>
      </trkpt>
      <trkpt lat="42.766991" lon="1.574593">
        <ele>1008.6</ele>
        <time>2013-04-10T05:25:02Z</time>
      </trkpt>
      <trkpt lat="42.766982" lon="1.574737">
        <ele>1011.9</ele>
        <time>2013-04-10T05:25:17Z</time>
      </trkpt>
      <trkpt lat="42.767083" lon="1.574785">
        <ele>1015.3</ele>
        <time>2013-04-10T05:26:32Z</time>
      </trkpt>
      <trkpt lat="42.767113" lon="1.574905">
        <ele>1019.1</ele>
        <time>2013-04-10T05:26:44Z</time>
      </trkpt>
      <trkpt lat="42.767105" lon="1.575023">
        <ele>1021.5</ele>
        <time>2013-04-10T05:26:56Z</time>
      </trkpt>
      <trkpt lat="42.767058" lon="1.575161">
        <ele>1025.4</ele>
        <time>2013-04-10T05:27:12Z</time>
      </trkpt>
      <trkpt lat="42.766967" lon="1.575305">
        <ele>1030.7</ele>
        <time>2013-04-10T05:27:30Z</time>
      </trkpt>
      <trkpt lat="42.766824" lon="1.575394">
        <ele>1037.4</ele>
        <time>2013-04-10T05:27:51Z</time>
      </trkpt>
      <trkpt lat="42.766673" lon="1.575475">
        <ele>1040.8</ele>
        <time>2013-04-10T05:28:14Z</time>
      </trkpt>
      <trkpt lat="42.766578" lon="1.575642">
        <ele>1046.1</ele>
        <time>2013-04-10T05:28:37Z</time>
      </trkpt>
      <trkpt lat="42.766510" lon="1.575761">
        <ele>1050.4</ele>
        <time>2013-04-10T05:29:01Z</time>
      </trkpt>
      <trkpt lat="42.766367" lon="1.575874">
        <ele>1056.2</ele>
        <time>2013-04-10T05:29:34Z</time>
      </trkpt>
      <trkpt lat="42.766332" lon="1.575988">
        <ele>1063.8</ele>
        <time>2013-04-10T05:30:06Z</time>
      </trkpt>
      <trkpt lat="42.766318" lon="1.576145">
        <ele>1067.2</ele>
        <time>2013-04-10T05:30:29Z</time>
      </trkpt>
      <trkpt lat="42.766316" lon="1.576277">
        <ele>1070.6</ele>
        <time>2013-04-10T05:30:48Z</time>
      </trkpt>
      <trkpt lat="42.766284" lon="1.576417">
        <ele>1073.9</ele>
        <time>2013-04-10T05:31:08Z</time>
      </trkpt>
      <trkpt lat="42.766245" lon="1.576625">
        <ele>1078.3</ele>
        <time>2013-04-10T05:31:32Z</time>
      </trkpt>
      <trkpt lat="42.766275" lon="1.576832">
        <ele>1081.6</ele>
        <time>2013-04-10T05:31:52Z</time>
      </trkpt>
      <trkpt lat="42.766211" lon="1.576974">
        <ele>1085.0</ele>
        <time>2013-04-10T05:32:12Z</time>
      </trkpt>
      <trkpt lat="42.766137" lon="1.577087">
        <ele>1089.3</ele>
        <time>2013-04-10T05:32:34Z</time>
      </trkpt>
      <trkpt lat="42.766000" lon="1.577235">
        <ele>1091.2</ele>
        <time>2013-04-10T05:32:54Z</time>
      </trkpt>
      <trkpt lat="42.765835" lon="1.577265">
        <ele>1093.6</ele>
        <time>2013-04-10T05:33:15Z</time>
      </trkpt>
      <trkpt lat="42.765687" lon="1.577285">
        <ele>1098.9</ele>
        <time>2013-04-10T05:33:38Z</time>
      </trkpt>
      <trkpt lat="42.765542" lon="1.577332">
        <ele>1100.8</ele>
        <time>2013-04-10T05:33:55Z</time>
      </trkpt>
      <trkpt lat="42.765421" lon="1.577451">
        <ele>1103.7</ele>
        <time>2013-04-10T05:34:13Z</time>
      </trkpt>
      <trkpt lat="42.765352" lon="1.577598">
        <ele>1106.6</ele>
        <time>2013-04-10T05:34:29Z</time>
      </trkpt>
      <trkpt lat="42.765332" lon="1.577708">
        <ele>1110.0</ele>
        <time>2013-04-10T05:34:46Z</time>
      </trkpt>
      <trkpt lat="42.765327" lon="1.577865">
        <ele>1113.3</ele>
        <time>2013-04-10T05:35:08Z</time>
      </trkpt>
      <trkpt lat="42.765375" lon="1.577944">
        <ele>1117.2</ele>
        <time>2013-04-10T05:35:29Z</time>
      </trkpt>
      <trkpt lat="42.765385" lon="1.578073">
        <ele>1122.5</ele>
        <time>2013-04-10T05:35:55Z</time>
      </trkpt>
      <trkpt lat="42.765362" lon="1.578186">
        <ele>1126.3</ele>
        <time>2013-04-10T05:36:17Z</time>
      </trkpt>
      <trkpt lat="42.765402" lon="1.578293">
        <ele>1129.7</ele>
        <time>2013-04-10T05:36:33Z</time>
      </trkpt>
      <trkpt lat="42.765431" lon="1.578469">
        <ele>1133.1</ele>
        <time>2013-04-10T05:36:56Z</time>
      </trkpt>
      <trkpt lat="42.765494" lon="1.578651">
        <ele>1137.4</ele>
        <time>2013-04-10T05:37:20Z</time>
      </trkpt>
      <trkpt lat="42.765490" lon="1.578858">
        <ele>1143.6</ele>
        <time>2013-04-10T05:37:55Z</time>
      </trkpt>
      <trkpt lat="42.765452" lon="1.579066">
        <ele>1148.4</ele>
        <time>2013-04-10T05:38:17Z</time>
      </trkpt>
      <trkpt lat="42.765475" lon="1.579287">
        <ele>1151.8</ele>
        <time>2013-04-10T05:38:52Z</time>
      </trkpt>
      <trkpt lat="42.765521" lon="1.579448">
        <ele>1155.6</ele>
        <time>2013-04-10T05:39:13Z</time>
      </trkpt>
      <trkpt lat="42.765476" lon="1.579590">
        <ele>1160.0</ele>
        <time>2013-04-10T05:39:35Z</time>
      </trkpt>
      <trkpt lat="42.765456" lon="1.579738">
        <ele>1163.3</ele>
        <time>2013-04-10T05:39:53Z</time>
      </trkpt>
      <trkpt lat="42.765404" lon="1.579904">
        <ele>1165.7</ele>
        <time>2013-04-10T05:40:11Z</time>
      </trkpt>
      <trkpt lat="42.765305" lon="1.580025">
        <ele>1169.6</ele>
        <time>2013-04-10T05:40:32Z</time>
      </trkpt>
      <trkpt lat="42.765301" lon="1.580209">
        <ele>1171.5</ele>
        <time>2013-04-10T05:40:52Z</time>
      </trkpt>
      <trkpt lat="42.765257" lon="1.580309">
        <ele>1174.4</ele>
        <time>2013-04-10T05:41:08Z</time>
      </trkpt>
      <trkpt lat="42.765298" lon="1.580358">
        <ele>1176.8</ele>
        <time>2013-04-10T05:42:43Z</time>
      </trkpt>
      <trkpt lat="42.765288" lon="1.580550">
        <ele>1178.7</ele>
        <time>2013-04-10T05:43:01Z</time>
      </trkpt>
      <trkpt lat="42.765322" lon="1.580692">
        <ele>1183.0</ele>
        <time>2013-04-10T05:43:26Z</time>
      </trkpt>
      <trkpt lat="42.765342" lon="1.580817">
        <ele>1187.8</ele>
        <time>2013-04-10T05:43:50Z</time>
      </trkpt>
      <trkpt lat="42.765379" lon="1.581002">
        <ele>1192.7</ele>
        <time>2013-04-10T05:44:16Z</time>
      </trkpt>
      <trkpt lat="42.765421" lon="1.581160">
        <ele>1197.0</ele>
        <time>2013-04-10T05:44:43Z</time>
      </trkpt>
      <trkpt lat="42.765424" lon="1.581317">
        <ele>1200.3</ele>
        <time>2013-04-10T05:45:02Z</time>
      </trkpt>
      <trkpt lat="42.765408" lon="1.581472">
        <ele>1204.7</ele>
        <time>2013-04-10T05:45:29Z</time>
      </trkpt>
      <trkpt lat="42.765322" lon="1.581611">
        <ele>1208.0</ele>
        <time>2013-04-10T05:45:49Z</time>
      </trkpt>
      <trkpt lat="42.765210" lon="1.581679">
        <ele>1211.9</ele>
        <time>2013-04-10T05:46:12Z</time>
      </trkpt>
      <trkpt lat="42.765170" lon="1.581750">
        <ele>1215.7</ele>
        <time>2013-04-10T05:46:34Z</time>
      </trkpt>
      <trkpt lat="42.765147" lon="1.581897">
        <ele>1222.0</ele>
        <time>2013-04-10T05:46:59Z</time>
      </trkpt>
      <trkpt lat="42.765139" lon="1.582034">
        <ele>1224.9</ele>
        <time>2013-04-10T05:47:23Z</time>
      </trkpt>
      <trkpt lat="42.765131" lon="1.582196">
        <ele>1229.2</ele>
        <time>2013-04-10T05:47:46Z</time>
      </trkpt>
      <trkpt lat="42.765142" lon="1.582341">
        <ele>1232.1</ele>
        <time>2013-04-10T05:48:09Z</time>
      </trkpt>
      <trkpt lat="42.765150" lon="1.582524">
        <ele>1234.9</ele>
        <time>2013-04-10T05:48:28Z</time>
      </trkpt>
      <trkpt lat="42.765133" lon="1.582694">
        <ele>1238.8</ele>
        <time>2013-04-10T05:48:47Z</time>
      </trkpt>
      <trkpt lat="42.765100" lon="1.582979">
        <ele>1242.6</ele>
        <time>2013-04-10T05:49:10Z</time>
      </trkpt>
      <trkpt lat="42.765065" lon="1.583167">
        <ele>1245.5</ele>
        <time>2013-04-10T05:49:29Z</time>
      </trkpt>
      <trkpt lat="42.765020" lon="1.583328">
        <ele>1248.9</ele>
        <time>2013-04-10T05:49:48Z</time>
      </trkpt>
      <trkpt lat="42.764978" lon="1.583487">
        <ele>1252.2</ele>
        <time>2013-04-10T05:50:08Z</time>
      </trkpt>
      <trkpt lat="42.764932" lon="1.583684">
        <ele>1255.1</ele>
        <time>2013-04-10T05:50:26Z</time>
      </trkpt>
      <trkpt lat="42.764874" lon="1.583822">
        <ele>1258.0</ele>
        <time>2013-04-10T05:50:41Z</time>
      </trkpt>
      <trkpt lat="42.764835" lon="1.583968">
        <ele>1260.9</ele>
        <time>2013-04-10T05:50:57Z</time>
      </trkpt>
      <trkpt lat="42.764794" lon="1.584132">
        <ele>1264.3</ele>
        <time>2013-04-10T05:51:16Z</time>
      </trkpt>
      <trkpt lat="42.764758" lon="1.584293">
        <ele>1267.2</ele>
        <time>2013-04-10T05:51:33Z</time>
      </trkpt>
      <trkpt lat="42.764655" lon="1.584443">
        <ele>1269.6</ele>
        <time>2013-04-10T05:51:53Z</time>
      </trkpt>
      <trkpt lat="42.764564" lon="1.584626">
        <ele>1271.5</ele>
        <time>2013-04-10T05:52:10Z</time>
      </trkpt>
      <trkpt lat="42.764502" lon="1.584813">
        <ele>1273.9</ele>
        <time>2013-04-10T05:52:28Z</time>
      </trkpt>
      <trkpt lat="42.764404" lon="1.584939">
        <ele>1276.3</ele>
        <time>2013-04-10T05:52:43Z</time>
      </trkpt>
      <trkpt lat="42.764324" lon="1.585091">
        <ele>1279.2</ele>
        <time>2013-04-10T05:53:02Z</time>
      </trkpt>
      <trkpt lat="42.764230" lon="1.585192">
        <ele>1281.1</ele>
        <time>2013-04-10T05:53:22Z</time>
      </trkpt>
      <trkpt lat="42.764059" lon="1.585315">
        <ele>1285.4</ele>
        <time>2013-04-10T05:54:05Z</time>
      </trkpt>
      <trkpt lat="42.763946" lon="1.585475">
        <ele>1290.2</ele>
        <time>2013-04-10T05:54:30Z</time>
      </trkpt>
      <trkpt lat="42.763782" lon="1.585609">
        <ele>1295.5</ele>
        <time>2013-04-10T05:55:01Z</time>
      </trkpt>
      <trkpt lat="42.763645" lon="1.585719">
        <ele>1300.3</ele>
        <time>2013-04-10T05:55:25Z</time>
      </trkpt>
      <trkpt lat="42.763506" lon="1.585775">
        <ele>1304.2</ele>
        <time>2013-04-10T05:55:48Z</time>
      </trkpt>
      <trkpt lat="42.763301" lon="1.585842">
        <ele>1309.4</ele>
        <time>2013-04-10T05:56:20Z</time>
      </trkpt>
      <trkpt lat="42.763150" lon="1.585869">
        <ele>1312.3</ele>
        <time>2013-04-10T05:56:38Z</time>
      </trkpt>
      <trkpt lat="42.763091" lon="1.585948">
        <ele>1317.6</ele>
        <time>2013-04-10T05:57:03Z</time>
      </trkpt>
      <trkpt lat="42.763167" lon="1.586163">
        <ele>1322.4</ele>
        <time>2013-04-10T05:57:29Z</time>
      </trkpt>
      <trkpt lat="42.763250" lon="1.586288">
        <ele>1325.8</ele>
        <time>2013-04-10T05:57:46Z</time>
      </trkpt>
      <trkpt lat="42.763343" lon="1.586395">
        <ele>1327.2</ele>
        <time>2013-04-10T05:58:01Z</time>
      </trkpt>
      <trkpt lat="42.763418" lon="1.586504">
        <ele>1329.6</ele>
        <time>2013-04-10T05:58:16Z</time>
      </trkpt>
      <trkpt lat="42.763527" lon="1.586625">
        <ele>1331.6</ele>
        <time>2013-04-10T05:58:35Z</time>
      </trkpt>
      <trkpt lat="42.763654" lon="1.586744">
        <ele>1335.4</ele>
        <time>2013-04-10T05:58:55Z</time>
      </trkpt>
      <trkpt lat="42.763766" lon="1.586862">
        <ele>1338.8</ele>
        <time>2013-04-10T05:59:14Z</time>
      </trkpt>
      <trkpt lat="42.763959" lon="1.586938">
        <ele>1342.6</ele>
        <time>2013-04-10T05:59:38Z</time>
      </trkpt>
      <trkpt lat="42.764021" lon="1.587027">
        <ele>1346.0</ele>
        <time>2013-04-10T05:59:57Z</time>
      </trkpt>
      <trkpt lat="42.764101" lon="1.587141">
        <ele>1349.8</ele>
        <time>2013-04-10T06:00:17Z</time>
      </trkpt>
      <trkpt lat="42.764220" lon="1.587272">
        <ele>1352.7</ele>
        <time>2013-04-10T06:00:35Z</time>
      </trkpt>
      <trkpt lat="42.764327" lon="1.587406">
        <ele>1355.6</ele>
        <time>2013-04-10T06:00:51Z</time>
      </trkpt>
      <trkpt lat="42.764435" lon="1.587511">
        <ele>1357.0</ele>
        <time>2013-04-10T06:01:07Z</time>
      </trkpt>
      <trkpt lat="42.764513" lon="1.587626">
        <ele>1359.4</ele>
        <time>2013-04-10T06:01:21Z</time>
      </trkpt>
      <trkpt lat="42.764586" lon="1.587728">
        <ele>1361.8</ele>
        <time>2013-04-10T06:01:33Z</time>
      </trkpt>
      <trkpt lat="42.764654" lon="1.587843">
        <ele>1364.2</ele>
        <time>2013-04-10T06:01:48Z</time>
      </trkpt>
      <trkpt lat="42.764707" lon="1.587995">
        <ele>1366.2</ele>
        <time>2013-04-10T06:02:02Z</time>
      </trkpt>
      <trkpt lat="42.764765" lon="1.588138">
        <ele>1368.6</ele>
        <time>2013-04-10T06:02:15Z</time>
      </trkpt>
      <trkpt lat="42.764807" lon="1.588272">
        <ele>1370.5</ele>
        <time>2013-04-10T06:02:29Z</time>
      </trkpt>
      <trkpt lat="42.764860" lon="1.588422">
        <ele>1372.9</ele>
        <time>2013-04-10T06:02:44Z</time>
      </trkpt>
      <trkpt lat="42.764856" lon="1.588597">
        <ele>1376.3</ele>
        <time>2013-04-10T06:03:03Z</time>
      </trkpt>
      <trkpt lat="42.764827" lon="1.588719">
        <ele>1380.1</ele>
        <time>2013-04-10T06:03:22Z</time>
      </trkpt>
      <trkpt lat="42.764811" lon="1.588904">
        <ele>1383.5</ele>
        <time>2013-04-10T06:03:45Z</time>
      </trkpt>
      <trkpt lat="42.764811" lon="1.589026">
        <ele>1385.9</ele>
        <time>2013-04-10T06:06:34Z</time>
      </trkpt>
      <trkpt lat="42.764786" lon="1.589116">
        <ele>1388.3</ele>
        <time>2013-04-10T06:07:28Z</time>
      </trkpt>
      <trkpt lat="42.764762" lon="1.589233">
        <ele>1391.2</ele>
        <time>2013-04-10T06:07:43Z</time>
        <name>Col de Gamel</name>
      </trkpt>
      <trkpt lat="42.764709" lon="1.589332">
        <ele>1394.1</ele>
        <time>2013-04-10T06:08:18Z</time>
      </trkpt>
      <trkpt lat="42.764657" lon="1.589347">
        <ele>1396.4</ele>
        <time>2013-04-10T06:08:42Z</time>
      </trkpt>
      <trkpt lat="42.764524" lon="1.589277">
        <ele>1400.3</ele>
        <time>2013-04-10T06:09:06Z</time>
      </trkpt>
      <trkpt lat="42.764434" lon="1.589214">
        <ele>1404.6</ele>
        <time>2013-04-10T06:09:29Z</time>
      </trkpt>
      <trkpt lat="42.764351" lon="1.589070">
        <ele>1409.4</ele>
        <time>2013-04-10T06:09:54Z</time>
      </trkpt>
      <trkpt lat="42.764233" lon="1.589085">
        <ele>1413.8</ele>
        <time>2013-04-10T06:10:19Z</time>
      </trkpt>
      <trkpt lat="42.764121" lon="1.589076">
        <ele>1418.1</ele>
        <time>2013-04-10T06:10:36Z</time>
      </trkpt>
      <trkpt lat="42.764026" lon="1.589125">
        <ele>1424.3</ele>
        <time>2013-04-10T06:10:56Z</time>
      </trkpt>
      <trkpt lat="42.763916" lon="1.589177">
        <ele>1429.1</ele>
        <time>2013-04-10T06:11:13Z</time>
      </trkpt>
      <trkpt lat="42.763855" lon="1.589216">
        <ele>1431.5</ele>
        <time>2013-04-10T06:11:29Z</time>
      </trkpt>
      <trkpt lat="42.763799" lon="1.589215">
        <ele>1433.9</ele>
        <time>2013-04-10T06:12:06Z</time>
      </trkpt>
      <trkpt lat="42.763740" lon="1.589262">
        <ele>1436.8</ele>
        <time>2013-04-10T06:12:31Z</time>
      </trkpt>
      <trkpt lat="42.763694" lon="1.589394">
        <ele>1441.6</ele>
        <time>2013-04-10T06:13:01Z</time>
      </trkpt>
      <trkpt lat="42.763669" lon="1.589512">
        <ele>1446.0</ele>
        <time>2013-04-10T06:13:18Z</time>
      </trkpt>
      <trkpt lat="42.763630" lon="1.589644">
        <ele>1448.8</ele>
        <time>2013-04-10T06:13:38Z</time>
      </trkpt>
      <trkpt lat="42.763552" lon="1.589666">
        <ele>1450.8</ele>
        <time>2013-04-10T06:14:02Z</time>
      </trkpt>
      <trkpt lat="42.763454" lon="1.589751">
        <ele>1453.2</ele>
        <time>2013-04-10T06:14:52Z</time>
      </trkpt>
      <trkpt lat="42.763347" lon="1.589754">
        <ele>1453.7</ele>
        <time>2013-04-10T06:15:35Z</time>
      </trkpt>
      <trkpt lat="42.763247" lon="1.589803">
        <ele>1456.1</ele>
        <time>2013-04-10T06:15:49Z</time>
      </trkpt>
      <trkpt lat="42.763152" lon="1.589855">
        <ele>1459.4</ele>
        <time>2013-04-10T06:16:09Z</time>
      </trkpt>
      <trkpt lat="42.763037" lon="1.589905">
        <ele>1463.3</ele>
        <time>2013-04-10T06:16:29Z</time>
      </trkpt>
      <trkpt lat="42.762908" lon="1.589956">
        <ele>1467.1</ele>
        <time>2013-04-10T06:16:49Z</time>
      </trkpt>
      <trkpt lat="42.762796" lon="1.590015">
        <ele>1470.5</ele>
        <time>2013-04-10T06:17:13Z</time>
      </trkpt>
      <trkpt lat="42.762689" lon="1.590040">
        <ele>1474.8</ele>
        <time>2013-04-10T06:17:34Z</time>
      </trkpt>
      <trkpt lat="42.762571" lon="1.590011">
        <ele>1479.1</ele>
        <time>2013-04-10T06:17:55Z</time>
      </trkpt>
      <trkpt lat="42.762484" lon="1.590058">
        <ele>1482.5</ele>
        <time>2013-04-10T06:18:14Z</time>
      </trkpt>
      <trkpt lat="42.762421" lon="1.590158">
        <ele>1487.3</ele>
        <time>2013-04-10T06:18:37Z</time>
      </trkpt>
      <trkpt lat="42.762337" lon="1.590238">
        <ele>1490.7</ele>
        <time>2013-04-10T06:18:55Z</time>
      </trkpt>
      <trkpt lat="42.762248" lon="1.590313">
        <ele>1493.1</ele>
        <time>2013-04-10T06:19:11Z</time>
      </trkpt>
      <trkpt lat="42.762162" lon="1.590382">
        <ele>1494.5</ele>
        <time>2013-04-10T06:19:25Z</time>
      </trkpt>
      <trkpt lat="42.762078" lon="1.590457">
        <ele>1495.9</ele>
        <time>2013-04-10T06:19:38Z</time>
      </trkpt>
      <trkpt lat="42.761982" lon="1.590472">
        <ele>1497.4</ele>
        <time>2013-04-10T06:19:50Z</time>
      </trkpt>
      <trkpt lat="42.761895" lon="1.590477">
        <ele>1498.3</ele>
        <time>2013-04-10T06:20:04Z</time>
      </trkpt>
      <trkpt lat="42.761806" lon="1.590458">
        <ele>1499.8</ele>
        <time>2013-04-10T06:20:17Z</time>
      </trkpt>
      <trkpt lat="42.761720" lon="1.590419">
        <ele>1501.7</ele>
        <time>2013-04-10T06:20:29Z</time>
      </trkpt>
      <trkpt lat="42.761629" lon="1.590441">
        <ele>1505.6</ele>
        <time>2013-04-10T06:20:48Z</time>
      </trkpt>
      <trkpt lat="42.761536" lon="1.590445">
        <ele>1508.4</ele>
        <time>2013-04-10T06:21:08Z</time>
      </trkpt>
      <trkpt lat="42.761458" lon="1.590532">
        <ele>1511.8</ele>
        <time>2013-04-10T06:21:24Z</time>
      </trkpt>
      <trkpt lat="42.761388" lon="1.590630">
        <ele>1513.7</ele>
        <time>2013-04-10T06:21:40Z</time>
      </trkpt>
      <trkpt lat="42.761307" lon="1.590699">
        <ele>1515.7</ele>
        <time>2013-04-10T06:21:55Z</time>
      </trkpt>
      <trkpt lat="42.761227" lon="1.590781">
        <ele>1517.6</ele>
        <time>2013-04-10T06:22:11Z</time>
      </trkpt>
      <trkpt lat="42.761128" lon="1.590795">
        <ele>1519.5</ele>
        <time>2013-04-10T06:22:28Z</time>
      </trkpt>
      <trkpt lat="42.761036" lon="1.590853">
        <ele>1522.4</ele>
        <time>2013-04-10T06:22:46Z</time>
      </trkpt>
      <trkpt lat="42.760926" lon="1.590890">
        <ele>1526.2</ele>
        <time>2013-04-10T06:23:15Z</time>
      </trkpt>
      <trkpt lat="42.760823" lon="1.590909">
        <ele>1529.1</ele>
        <time>2013-04-10T06:23:38Z</time>
      </trkpt>
      <trkpt lat="42.760730" lon="1.590908">
        <ele>1531.5</ele>
        <time>2013-04-10T06:23:58Z</time>
      </trkpt>
      <trkpt lat="42.760656" lon="1.590951">
        <ele>1534.4</ele>
        <time>2013-04-10T06:24:20Z</time>
      </trkpt>
      <trkpt lat="42.760553" lon="1.591011">
        <ele>1540.2</ele>
        <time>2013-04-10T06:24:53Z</time>
      </trkpt>
      <trkpt lat="42.760530" lon="1.591139">
        <ele>1545.0</ele>
        <time>2013-04-10T06:25:24Z</time>
      </trkpt>
      <trkpt lat="42.760408" lon="1.591195">
        <ele>1549.8</ele>
        <time>2013-04-10T06:25:53Z</time>
      </trkpt>
      <trkpt lat="42.760301" lon="1.591204">
        <ele>1553.6</ele>
        <time>2013-04-10T06:26:16Z</time>
      </trkpt>
      <trkpt lat="42.760203" lon="1.591281">
        <ele>1557.0</ele>
        <time>2013-04-10T06:26:36Z</time>
      </trkpt>
      <trkpt lat="42.760110" lon="1.591330">
        <ele>1560.8</ele>
        <time>2013-04-10T06:26:56Z</time>
      </trkpt>
      <trkpt lat="42.760022" lon="1.591328">
        <ele>1563.2</ele>
        <time>2013-04-10T06:27:15Z</time>
      </trkpt>
      <trkpt lat="42.759921" lon="1.591321">
        <ele>1567.1</ele>
        <time>2013-04-10T06:27:39Z</time>
      </trkpt>
      <trkpt lat="42.759829" lon="1.591359">
        <ele>1572.4</ele>
        <time>2013-04-10T06:28:07Z</time>
      </trkpt>
      <trkpt lat="42.759770" lon="1.591415">
        <ele>1577.2</ele>
        <time>2013-04-10T06:28:39Z</time>
      </trkpt>
      <trkpt lat="42.759673" lon="1.591527">
        <ele>1583.4</ele>
        <time>2013-04-10T06:29:14Z</time>
      </trkpt>
      <trkpt lat="42.759555" lon="1.591511">
        <ele>1587.3</ele>
        <time>2013-04-10T06:29:39Z</time>
      </trkpt>
      <trkpt lat="42.759493" lon="1.591558">
        <ele>1588.2</ele>
        <time>2013-04-10T06:30:27Z</time>
      </trkpt>
      <trkpt lat="42.759435" lon="1.591655">
        <ele>1590.6</ele>
        <time>2013-04-10T06:33:22Z</time>
      </trkpt>
      <trkpt lat="42.759363" lon="1.591738">
        <ele>1593.0</ele>
        <time>2013-04-10T06:33:35Z</time>
      </trkpt>
      <trkpt lat="42.759312" lon="1.591833">
        <ele>1594.0</ele>
        <time>2013-04-10T06:33:47Z</time>
      </trkpt>
      <trkpt lat="42.759240" lon="1.591910">
        <ele>1596.4</ele>
        <time>2013-04-10T06:34:02Z</time>
      </trkpt>
      <trkpt lat="42.759180" lon="1.591988">
        <ele>1599.3</ele>
        <time>2013-04-10T06:34:20Z</time>
      </trkpt>
      <trkpt lat="42.759106" lon="1.592049">
        <ele>1601.7</ele>
        <time>2013-04-10T06:34:38Z</time>
      </trkpt>
      <trkpt lat="42.759039" lon="1.592134">
        <ele>1605.1</ele>
        <time>2013-04-10T06:35:00Z</time>
      </trkpt>
      <trkpt lat="42.758968" lon="1.592210">
        <ele>1608.4</ele>
        <time>2013-04-10T06:35:21Z</time>
      </trkpt>
      <trkpt lat="42.758894" lon="1.592294">
        <ele>1611.3</ele>
        <time>2013-04-10T06:35:41Z</time>
      </trkpt>
      <trkpt lat="42.758809" lon="1.592347">
        <ele>1614.2</ele>
        <time>2013-04-10T06:35:58Z</time>
      </trkpt>
      <trkpt lat="42.758728" lon="1.592428">
        <ele>1617.6</ele>
        <time>2013-04-10T06:36:13Z</time>
      </trkpt>
      <trkpt lat="42.758666" lon="1.592506">
        <ele>1620.0</ele>
        <time>2013-04-10T06:36:29Z</time>
      </trkpt>
      <trkpt lat="42.758605" lon="1.592593">
        <ele>1621.9</ele>
        <time>2013-04-10T06:36:46Z</time>
      </trkpt>
      <trkpt lat="42.758552" lon="1.592704">
        <ele>1624.3</ele>
        <time>2013-04-10T06:37:04Z</time>
      </trkpt>
      <trkpt lat="42.758482" lon="1.592795">
        <ele>1627.2</ele>
        <time>2013-04-10T06:37:20Z</time>
      </trkpt>
      <trkpt lat="42.758416" lon="1.592874">
        <ele>1629.6</ele>
        <time>2013-04-10T06:37:37Z</time>
      </trkpt>
      <trkpt lat="42.758350" lon="1.592950">
        <ele>1632.0</ele>
        <time>2013-04-10T06:37:52Z</time>
      </trkpt>
      <trkpt lat="42.758280" lon="1.593028">
        <ele>1634.4</ele>
        <time>2013-04-10T06:38:09Z</time>
      </trkpt>
      <trkpt lat="42.758222" lon="1.593121">
        <ele>1636.8</ele>
        <time>2013-04-10T06:38:25Z</time>
      </trkpt>
      <trkpt lat="42.758153" lon="1.593205">
        <ele>1638.7</ele>
        <time>2013-04-10T06:38:41Z</time>
      </trkpt>
      <trkpt lat="42.758104" lon="1.593306">
        <ele>1641.1</ele>
        <time>2013-04-10T06:38:57Z</time>
      </trkpt>
      <trkpt lat="42.758066" lon="1.593424">
        <ele>1643.0</ele>
        <time>2013-04-10T06:39:12Z</time>
      </trkpt>
      <trkpt lat="42.758034" lon="1.593548">
        <ele>1645.4</ele>
        <time>2013-04-10T06:39:29Z</time>
      </trkpt>
      <trkpt lat="42.757996" lon="1.593665">
        <ele>1646.9</ele>
        <time>2013-04-10T06:39:43Z</time>
      </trkpt>
      <trkpt lat="42.757960" lon="1.593781">
        <ele>1648.3</ele>
        <time>2013-04-10T06:39:56Z</time>
      </trkpt>
      <trkpt lat="42.757899" lon="1.593883">
        <ele>1649.8</ele>
        <time>2013-04-10T06:40:08Z</time>
      </trkpt>
      <trkpt lat="42.757820" lon="1.593978">
        <ele>1650.7</ele>
        <time>2013-04-10T06:40:20Z</time>
      </trkpt>
      <trkpt lat="42.757751" lon="1.594078">
        <ele>1651.7</ele>
        <time>2013-04-10T06:40:31Z</time>
      </trkpt>
      <trkpt lat="42.757657" lon="1.594137">
        <ele>1653.1</ele>
        <time>2013-04-10T06:40:44Z</time>
      </trkpt>
      <trkpt lat="42.757624" lon="1.594173">
        <ele>1653.6</ele>
        <time>2013-04-10T06:41:53Z</time>
      </trkpt>
      <trkpt lat="42.757539" lon="1.594240">
        <ele>1654.6</ele>
        <time>2013-04-10T06:42:02Z</time>
      </trkpt>
      <trkpt lat="42.757443" lon="1.594309">
        <ele>1652.2</ele>
        <time>2013-04-10T06:42:12Z</time>
      </trkpt>
      <trkpt lat="42.757353" lon="1.594380">
        <ele>1651.7</ele>
        <time>2013-04-10T06:42:21Z</time>
      </trkpt>
      <trkpt lat="42.757270" lon="1.594449">
        <ele>1651.2</ele>
        <time>2013-04-10T06:42:28Z</time>
      </trkpt>
      <trkpt lat="42.757192" lon="1.594523">
        <ele>1651.2</ele>
        <time>2013-04-10T06:42:36Z</time>
      </trkpt>
      <trkpt lat="42.757123" lon="1.594609">
        <ele>1650.7</ele>
        <time>2013-04-10T06:42:45Z</time>
      </trkpt>
      <trkpt lat="42.757057" lon="1.594711">
        <ele>1650.7</ele>
        <time>2013-04-10T06:42:53Z</time>
      </trkpt>
      <trkpt lat="42.756984" lon="1.594802">
        <ele>1651.2</ele>
        <time>2013-04-10T06:43:03Z</time>
      </trkpt>
      <trkpt lat="42.756931" lon="1.594909">
        <ele>1653.1</ele>
        <time>2013-04-10T06:43:16Z</time>
      </trkpt>
      <trkpt lat="42.756883" lon="1.595023">
        <ele>1654.6</ele>
        <time>2013-04-10T06:43:31Z</time>
      </trkpt>
      <trkpt lat="42.756830" lon="1.595113">
        <ele>1657.0</ele>
        <time>2013-04-10T06:43:47Z</time>
      </trkpt>
      <trkpt lat="42.756783" lon="1.595219">
        <ele>1660.3</ele>
        <time>2013-04-10T06:44:03Z</time>
      </trkpt>
      <trkpt lat="42.756726" lon="1.595323">
        <ele>1663.2</ele>
        <time>2013-04-10T06:44:20Z</time>
      </trkpt>
      <trkpt lat="42.756654" lon="1.595421">
        <ele>1665.1</ele>
        <time>2013-04-10T06:44:36Z</time>
      </trkpt>
      <trkpt lat="42.756606" lon="1.595524">
        <ele>1666.6</ele>
        <time>2013-04-10T06:45:49Z</time>
      </trkpt>
      <trkpt lat="42.756583" lon="1.595639">
        <ele>1667.5</ele>
        <time>2013-04-10T06:46:01Z</time>
      </trkpt>
      <trkpt lat="42.756538" lon="1.595751">
        <ele>1669.0</ele>
        <time>2013-04-10T06:46:13Z</time>
      </trkpt>
      <trkpt lat="42.756496" lon="1.595862">
        <ele>1669.9</ele>
        <time>2013-04-10T06:46:24Z</time>
      </trkpt>
      <trkpt lat="42.756458" lon="1.595982">
        <ele>1671.4</ele>
        <time>2013-04-10T06:46:36Z</time>
      </trkpt>
      <trkpt lat="42.756409" lon="1.596094">
        <ele>1673.3</ele>
        <time>2013-04-10T06:46:49Z</time>
      </trkpt>
      <trkpt lat="42.756379" lon="1.596228">
        <ele>1674.8</ele>
        <time>2013-04-10T06:47:02Z</time>
      </trkpt>
      <trkpt lat="42.756328" lon="1.596351">
        <ele>1677.2</ele>
        <time>2013-04-10T06:47:16Z</time>
      </trkpt>
      <trkpt lat="42.756279" lon="1.596459">
        <ele>1680.0</ele>
        <time>2013-04-10T06:47:30Z</time>
      </trkpt>
      <trkpt lat="42.756240" lon="1.596565">
        <ele>1681.5</ele>
        <time>2013-04-10T06:47:44Z</time>
      </trkpt>
      <trkpt lat="42.756195" lon="1.596675">
        <ele>1683.9</ele>
        <time>2013-04-10T06:47:59Z</time>
      </trkpt>
      <trkpt lat="42.756157" lon="1.596779">
        <ele>1686.8</ele>
        <time>2013-04-10T06:48:16Z</time>
      </trkpt>
      <trkpt lat="42.756110" lon="1.596890">
        <ele>1689.2</ele>
        <time>2013-04-10T06:48:35Z</time>
      </trkpt>
      <trkpt lat="42.756062" lon="1.597008">
        <ele>1691.6</ele>
        <time>2013-04-10T06:48:52Z</time>
      </trkpt>
      <trkpt lat="42.756025" lon="1.597131">
        <ele>1694.0</ele>
        <time>2013-04-10T06:49:06Z</time>
      </trkpt>
      <trkpt lat="42.755982" lon="1.597228">
        <ele>1695.9</ele>
        <time>2013-04-10T06:49:19Z</time>
      </trkpt>
      <trkpt lat="42.755943" lon="1.597330">
        <ele>1697.3</ele>
        <time>2013-04-10T06:49:35Z</time>
      </trkpt>
      <trkpt lat="42.755899" lon="1.597422">
        <ele>1699.3</ele>
        <time>2013-04-10T06:49:57Z</time>
      </trkpt>
      <trkpt lat="42.755854" lon="1.597547">
        <ele>1700.2</ele>
        <time>2013-04-10T06:50:09Z</time>
      </trkpt>
      <trkpt lat="42.755815" lon="1.597663">
        <ele>1701.7</ele>
        <time>2013-04-10T06:50:21Z</time>
      </trkpt>
      <trkpt lat="42.755770" lon="1.597785">
        <ele>1703.6</ele>
        <time>2013-04-10T06:50:33Z</time>
      </trkpt>
      <trkpt lat="42.755728" lon="1.597892">
        <ele>1705.0</ele>
        <time>2013-04-10T06:50:45Z</time>
      </trkpt>
      <trkpt lat="42.755689" lon="1.598012">
        <ele>1706.0</ele>
        <time>2013-04-10T06:50:56Z</time>
      </trkpt>
      <trkpt lat="42.755659" lon="1.598136">
        <ele>1707.0</ele>
        <time>2013-04-10T06:51:06Z</time>
      </trkpt>
      <trkpt lat="42.755629" lon="1.598255">
        <ele>1707.9</ele>
        <time>2013-04-10T06:51:17Z</time>
      </trkpt>
      <trkpt lat="42.755611" lon="1.598373">
        <ele>1708.9</ele>
        <time>2013-04-10T06:51:28Z</time>
      </trkpt>
      <trkpt lat="42.755574" lon="1.598497">
        <ele>1709.4</ele>
        <time>2013-04-10T06:51:39Z</time>
      </trkpt>
      <trkpt lat="42.755556" lon="1.598620">
        <ele>1709.4</ele>
        <time>2013-04-10T06:51:49Z</time>
      </trkpt>
      <trkpt lat="42.755590" lon="1.598708">
        <ele>1709.4</ele>
        <time>2013-04-10T06:52:33Z</time>
      </trkpt>
      <trkpt lat="42.755535" lon="1.598840">
        <ele>1707.0</ele>
        <time>2013-04-10T06:52:42Z</time>
      </trkpt>
      <trkpt lat="42.755471" lon="1.598954">
        <ele>1703.6</ele>
        <time>2013-04-10T06:52:53Z</time>
      </trkpt>
      <trkpt lat="42.755419" lon="1.599061">
        <ele>1702.6</ele>
        <time>2013-04-10T06:53:04Z</time>
      </trkpt>
      <trkpt lat="42.755360" lon="1.599136">
        <ele>1699.8</ele>
        <time>2013-04-10T06:53:15Z</time>
      </trkpt>
      <trkpt lat="42.755324" lon="1.599250">
        <ele>1696.9</ele>
        <time>2013-04-10T06:53:26Z</time>
      </trkpt>
      <trkpt lat="42.755260" lon="1.599327">
        <ele>1694.0</ele>
        <time>2013-04-10T06:53:36Z</time>
      </trkpt>
      <trkpt lat="42.755172" lon="1.599414">
        <ele>1691.6</ele>
        <time>2013-04-10T06:53:48Z</time>
      </trkpt>
      <trkpt lat="42.755113" lon="1.599520">
        <ele>1689.2</ele>
        <time>2013-04-10T06:54:00Z</time>
      </trkpt>
      <trkpt lat="42.755066" lon="1.599652">
        <ele>1686.8</ele>
        <time>2013-04-10T06:54:14Z</time>
      </trkpt>
      <trkpt lat="42.755022" lon="1.599770">
        <ele>1685.3</ele>
        <time>2013-04-10T06:54:23Z</time>
      </trkpt>
      <trkpt lat="42.754976" lon="1.599898">
        <ele>1685.8</ele>
        <time>2013-04-10T06:54:33Z</time>
      </trkpt>
      <trkpt lat="42.754945" lon="1.600028">
        <ele>1687.7</ele>
        <time>2013-04-10T06:54:44Z</time>
      </trkpt>
      <trkpt lat="42.754918" lon="1.600148">
        <ele>1688.7</ele>
        <time>2013-04-10T06:54:56Z</time>
      </trkpt>
      <trkpt lat="42.754880" lon="1.600261">
        <ele>1691.1</ele>
        <time>2013-04-10T06:55:08Z</time>
      </trkpt>
      <trkpt lat="42.754877" lon="1.600388">
        <ele>1692.1</ele>
        <time>2013-04-10T06:55:19Z</time>
      </trkpt>
      <trkpt lat="42.754855" lon="1.600510">
        <ele>1693.5</ele>
        <time>2013-04-10T06:55:31Z</time>
      </trkpt>
      <trkpt lat="42.754842" lon="1.600640">
        <ele>1694.9</ele>
        <time>2013-04-10T06:55:44Z</time>
      </trkpt>
      <trkpt lat="42.754843" lon="1.600766">
        <ele>1696.9</ele>
        <time>2013-04-10T06:55:59Z</time>
      </trkpt>
      <trkpt lat="42.754876" lon="1.600879">
        <ele>1698.8</ele>
        <time>2013-04-10T06:56:11Z</time>
      </trkpt>
      <trkpt lat="42.754845" lon="1.601001">
        <ele>1700.2</ele>
        <time>2013-04-10T06:56:22Z</time>
      </trkpt>
      <trkpt lat="42.754814" lon="1.601118">
        <ele>1701.7</ele>
        <time>2013-04-10T06:56:34Z</time>
      </trkpt>
      <trkpt lat="42.754844" lon="1.601247">
        <ele>1703.1</ele>
        <time>2013-04-10T06:56:46Z</time>
      </trkpt>
      <trkpt lat="42.754832" lon="1.601376">
        <ele>1704.1</ele>
        <time>2013-04-10T06:56:57Z</time>
      </trkpt>
      <trkpt lat="42.754835" lon="1.601507">
        <ele>1705.5</ele>
        <time>2013-04-10T06:57:08Z</time>
      </trkpt>
      <trkpt lat="42.754830" lon="1.601648">
        <ele>1706.5</ele>
        <time>2013-04-10T06:57:19Z</time>
      </trkpt>
      <trkpt lat="42.754808" lon="1.601766">
        <ele>1707.0</ele>
        <time>2013-04-10T06:57:50Z</time>
      </trkpt>
      <trkpt lat="42.754730" lon="1.601882">
        <ele>1707.9</ele>
        <time>2013-04-10T06:58:00Z</time>
      </trkpt>
      <trkpt lat="42.754681" lon="1.601980">
        <ele>1708.4</ele>
        <time>2013-04-10T06:58:10Z</time>
      </trkpt>
      <trkpt lat="42.754644" lon="1.602094">
        <ele>1709.8</ele>
        <time>2013-04-10T06:58:22Z</time>
      </trkpt>
      <trkpt lat="42.754604" lon="1.602212">
        <ele>1711.8</ele>
        <time>2013-04-10T06:58:34Z</time>
      </trkpt>
      <trkpt lat="42.754574" lon="1.602329">
        <ele>1713.2</ele>
        <time>2013-04-10T06:58:47Z</time>
      </trkpt>
      <trkpt lat="42.754544" lon="1.602449">
        <ele>1715.1</ele>
        <time>2013-04-10T06:59:01Z</time>
      </trkpt>
      <trkpt lat="42.754510" lon="1.602557">
        <ele>1717.1</ele>
        <time>2013-04-10T06:59:16Z</time>
      </trkpt>
      <trkpt lat="42.754478" lon="1.602670">
        <ele>1719.5</ele>
        <time>2013-04-10T06:59:31Z</time>
      </trkpt>
      <trkpt lat="42.754446" lon="1.602782">
        <ele>1721.4</ele>
        <time>2013-04-10T06:59:46Z</time>
      </trkpt>
      <trkpt lat="42.754417" lon="1.602903">
        <ele>1723.8</ele>
        <time>2013-04-10T07:00:03Z</time>
      </trkpt>
      <trkpt lat="42.754393" lon="1.603024">
        <ele>1726.2</ele>
        <time>2013-04-10T07:00:20Z</time>
      </trkpt>
      <trkpt lat="42.754350" lon="1.603118">
        <ele>1728.1</ele>
        <time>2013-04-10T07:00:33Z</time>
      </trkpt>
      <trkpt lat="42.754320" lon="1.603232">
        <ele>1730.5</ele>
        <time>2013-04-10T07:00:47Z</time>
      </trkpt>
      <trkpt lat="42.754278" lon="1.603338">
        <ele>1732.4</ele>
        <time>2013-04-10T07:01:04Z</time>
      </trkpt>
      <trkpt lat="42.754234" lon="1.603448">
        <ele>1734.4</ele>
        <time>2013-04-10T07:01:20Z</time>
      </trkpt>
      <trkpt lat="42.754198" lon="1.603550">
        <ele>1736.3</ele>
        <time>2013-04-10T07:01:35Z</time>
      </trkpt>
      <trkpt lat="42.754157" lon="1.603673">
        <ele>1738.2</ele>
        <time>2013-04-10T07:01:52Z</time>
      </trkpt>
      <trkpt lat="42.754113" lon="1.603784">
        <ele>1740.6</ele>
        <time>2013-04-10T07:02:08Z</time>
      </trkpt>
      <trkpt lat="42.754082" lon="1.603908">
        <ele>1742.1</ele>
        <time>2013-04-10T07:02:24Z</time>
      </trkpt>
      <trkpt lat="42.754042" lon="1.604014">
        <ele>1744.4</ele>
        <time>2013-04-10T07:02:39Z</time>
      </trkpt>
      <trkpt lat="42.754014" lon="1.604131">
        <ele>1746.8</ele>
        <time>2013-04-10T07:02:55Z</time>
      </trkpt>
      <trkpt lat="42.753982" lon="1.604235">
        <ele>1749.3</ele>
        <time>2013-04-10T07:03:10Z</time>
      </trkpt>
      <trkpt lat="42.753954" lon="1.604355">
        <ele>1751.7</ele>
        <time>2013-04-10T07:03:27Z</time>
      </trkpt>
      <trkpt lat="42.753914" lon="1.604472">
        <ele>1754.5</ele>
        <time>2013-04-10T07:03:44Z</time>
      </trkpt>
      <trkpt lat="42.753898" lon="1.604597">
        <ele>1755.5</ele>
        <time>2013-04-10T07:03:58Z</time>
      </trkpt>
      <trkpt lat="42.753866" lon="1.604712">
        <ele>1756.9</ele>
        <time>2013-04-10T07:04:11Z</time>
      </trkpt>
      <trkpt lat="42.753830" lon="1.604830">
        <ele>1757.9</ele>
        <time>2013-04-10T07:04:23Z</time>
      </trkpt>
      <trkpt lat="42.753805" lon="1.604936">
        <ele>1759.3</ele>
        <time>2013-04-10T07:04:36Z</time>
      </trkpt>
      <trkpt lat="42.753764" lon="1.605051">
        <ele>1761.3</ele>
        <time>2013-04-10T07:04:52Z</time>
      </trkpt>
      <trkpt lat="42.753729" lon="1.605178">
        <ele>1763.2</ele>
        <time>2013-04-10T07:05:08Z</time>
      </trkpt>
      <trkpt lat="42.753696" lon="1.605294">
        <ele>1765.6</ele>
        <time>2013-04-10T07:05:25Z</time>
      </trkpt>
      <trkpt lat="42.753657" lon="1.605414">
        <ele>1768.0</ele>
        <time>2013-04-10T07:05:41Z</time>
      </trkpt>
      <trkpt lat="42.753611" lon="1.605514">
        <ele>1769.9</ele>
        <time>2013-04-10T07:05:56Z</time>
      </trkpt>
      <trkpt lat="42.753573" lon="1.605617">
        <ele>1771.4</ele>
        <time>2013-04-10T07:06:11Z</time>
      </trkpt>
      <trkpt lat="42.753551" lon="1.605727">
        <ele>1774.2</ele>
        <time>2013-04-10T07:06:28Z</time>
      </trkpt>
      <trkpt lat="42.753511" lon="1.605830">
        <ele>1777.6</ele>
        <time>2013-04-10T07:06:45Z</time>
      </trkpt>
      <trkpt lat="42.753463" lon="1.605930">
        <ele>1779.5</ele>
        <time>2013-04-10T07:07:02Z</time>
      </trkpt>
      <trkpt lat="42.753430" lon="1.606036">
        <ele>1782.4</ele>
        <time>2013-04-10T07:07:18Z</time>
      </trkpt>
      <trkpt lat="42.753388" lon="1.606132">
        <ele>1784.3</ele>
        <time>2013-04-10T07:07:35Z</time>
      </trkpt>
      <trkpt lat="42.753350" lon="1.606251">
        <ele>1785.8</ele>
        <time>2013-04-10T07:07:51Z</time>
      </trkpt>
      <trkpt lat="42.753299" lon="1.606333">
        <ele>1788.2</ele>
        <time>2013-04-10T07:08:08Z</time>
      </trkpt>
      <trkpt lat="42.753262" lon="1.606435">
        <ele>1790.1</ele>
        <time>2013-04-10T07:08:26Z</time>
      </trkpt>
      <trkpt lat="42.753212" lon="1.606550">
        <ele>1792.5</ele>
        <time>2013-04-10T07:08:44Z</time>
      </trkpt>
      <trkpt lat="42.753151" lon="1.606650">
        <ele>1795.9</ele>
        <time>2013-04-10T07:09:01Z</time>
      </trkpt>
      <trkpt lat="42.753092" lon="1.606748">
        <ele>1797.8</ele>
        <time>2013-04-10T07:09:19Z</time>
      </trkpt>
      <trkpt lat="42.753042" lon="1.606836">
        <ele>1800.7</ele>
        <time>2013-04-10T07:09:36Z</time>
      </trkpt>
      <trkpt lat="42.752991" lon="1.606935">
        <ele>1803.1</ele>
        <time>2013-04-10T07:09:53Z</time>
      </trkpt>
      <trkpt lat="42.752945" lon="1.607026">
        <ele>1805.5</ele>
        <time>2013-04-10T07:10:10Z</time>
      </trkpt>
      <trkpt lat="42.752889" lon="1.607129">
        <ele>1807.9</ele>
        <time>2013-04-10T07:10:29Z</time>
      </trkpt>
      <trkpt lat="42.752824" lon="1.607216">
        <ele>1810.8</ele>
        <time>2013-04-10T07:10:51Z</time>
      </trkpt>
      <trkpt lat="42.752762" lon="1.607282">
        <ele>1814.2</ele>
        <time>2013-04-10T07:11:10Z</time>
      </trkpt>
      <trkpt lat="42.752689" lon="1.607337">
        <ele>1818.9</ele>
        <time>2013-04-10T07:11:34Z</time>
      </trkpt>
      <trkpt lat="42.752622" lon="1.607425">
        <ele>1820.9</ele>
        <time>2013-04-10T07:11:52Z</time>
      </trkpt>
      <trkpt lat="42.752559" lon="1.607511">
        <ele>1823.3</ele>
        <time>2013-04-10T07:12:11Z</time>
      </trkpt>
      <trkpt lat="42.752506" lon="1.607607">
        <ele>1825.7</ele>
        <time>2013-04-10T07:12:28Z</time>
      </trkpt>
      <trkpt lat="42.752453" lon="1.607716">
        <ele>1827.6</ele>
        <time>2013-04-10T07:12:45Z</time>
      </trkpt>
      <trkpt lat="42.752393" lon="1.607803">
        <ele>1830.0</ele>
        <time>2013-04-10T07:13:00Z</time>
      </trkpt>
      <trkpt lat="42.752354" lon="1.607911">
        <ele>1832.4</ele>
        <time>2013-04-10T07:13:16Z</time>
      </trkpt>
      <trkpt lat="42.752293" lon="1.608008">
        <ele>1834.3</ele>
        <time>2013-04-10T07:13:31Z</time>
      </trkpt>
      <trkpt lat="42.752249" lon="1.608105">
        <ele>1835.8</ele>
        <time>2013-04-10T07:13:45Z</time>
      </trkpt>
      <trkpt lat="42.752212" lon="1.608213">
        <ele>1837.7</ele>
        <time>2013-04-10T07:13:58Z</time>
      </trkpt>
      <trkpt lat="42.752171" lon="1.608320">
        <ele>1839.1</ele>
        <time>2013-04-10T07:14:12Z</time>
      </trkpt>
      <trkpt lat="42.752131" lon="1.608442">
        <ele>1840.6</ele>
        <time>2013-04-10T07:14:25Z</time>
      </trkpt>
      <trkpt lat="42.752090" lon="1.608547">
        <ele>1843.0</ele>
        <time>2013-04-10T07:14:38Z</time>
      </trkpt>
      <trkpt lat="42.752052" lon="1.608654">
        <ele>1844.9</ele>
        <time>2013-04-10T07:14:52Z</time>
      </trkpt>
      <trkpt lat="42.752013" lon="1.608768">
        <ele>1847.3</ele>
        <time>2013-04-10T07:15:08Z</time>
      </trkpt>
      <trkpt lat="42.751976" lon="1.608893">
        <ele>1850.2</ele>
        <time>2013-04-10T07:15:22Z</time>
      </trkpt>
      <trkpt lat="42.751934" lon="1.609005">
        <ele>1852.6</ele>
        <time>2013-04-10T07:15:39Z</time>
      </trkpt>
      <trkpt lat="42.751896" lon="1.609121">
        <ele>1855.0</ele>
        <time>2013-04-10T07:15:58Z</time>
      </trkpt>
      <trkpt lat="42.751847" lon="1.609242">
        <ele>1857.9</ele>
        <time>2013-04-10T07:16:15Z</time>
      </trkpt>
      <trkpt lat="42.751801" lon="1.609354">
        <ele>1860.3</ele>
        <time>2013-04-10T07:16:32Z</time>
      </trkpt>
      <trkpt lat="42.751747" lon="1.609462">
        <ele>1863.2</ele>
        <time>2013-04-10T07:16:49Z</time>
      </trkpt>
      <trkpt lat="42.751697" lon="1.609566">
        <ele>1866.1</ele>
        <time>2013-04-10T07:17:06Z</time>
      </trkpt>
      <trkpt lat="42.751625" lon="1.609660">
        <ele>1868.9</ele>
        <time>2013-04-10T07:17:25Z</time>
      </trkpt>
      <trkpt lat="42.751554" lon="1.609724">
        <ele>1871.3</ele>
        <time>2013-04-10T07:17:44Z</time>
      </trkpt>
      <trkpt lat="42.751483" lon="1.609789">
        <ele>1874.7</ele>
        <time>2013-04-10T07:18:03Z</time>
      </trkpt>
      <trkpt lat="42.751436" lon="1.609894">
        <ele>1878.6</ele>
        <time>2013-04-10T07:18:26Z</time>
      </trkpt>
      <trkpt lat="42.751402" lon="1.610004">
        <ele>1881.0</ele>
        <time>2013-04-10T07:18:42Z</time>
      </trkpt>
      <trkpt lat="42.751361" lon="1.610124">
        <ele>1884.3</ele>
        <time>2013-04-10T07:18:58Z</time>
      </trkpt>
      <trkpt lat="42.751303" lon="1.610228">
        <ele>1885.8</ele>
        <time>2013-04-10T07:19:14Z</time>
      </trkpt>
      <trkpt lat="42.751233" lon="1.610314">
        <ele>1889.1</ele>
        <time>2013-04-10T07:19:30Z</time>
      </trkpt>
      <trkpt lat="42.751156" lon="1.610375">
        <ele>1891.5</ele>
        <time>2013-04-10T07:19:47Z</time>
      </trkpt>
      <trkpt lat="42.751070" lon="1.610436">
        <ele>1893.4</ele>
        <time>2013-04-10T07:20:04Z</time>
      </trkpt>
      <trkpt lat="42.750998" lon="1.610452">
        <ele>1895.4</ele>
        <time>2013-04-10T07:22:11Z</time>
      </trkpt>
      <trkpt lat="42.750995" lon="1.610451">
        <ele>1895.4</ele>
        <time>2013-04-10T07:28:10Z</time>
      </trkpt>
      <trkpt lat="42.751015" lon="1.610456">
        <ele>1895.9</ele>
        <time>2013-04-10T07:34:11Z</time>
      </trkpt>
      <trkpt lat="42.750988" lon="1.610452">
        <ele>1895.9</ele>
        <time>2013-04-10T07:36:25Z</time>
      </trkpt>
      <trkpt lat="42.750931" lon="1.610513">
        <ele>1897.3</ele>
        <time>2013-04-10T07:37:37Z</time>
      </trkpt>
      <trkpt lat="42.750866" lon="1.610609">
        <ele>1897.8</ele>
        <time>2013-04-10T07:37:45Z</time>
      </trkpt>
      <trkpt lat="42.750810" lon="1.610718">
        <ele>1898.7</ele>
        <time>2013-04-10T07:37:53Z</time>
      </trkpt>
      <trkpt lat="42.750774" lon="1.610820">
        <ele>1899.7</ele>
        <time>2013-04-10T07:38:22Z</time>
      </trkpt>
      <trkpt lat="42.750706" lon="1.610895">
        <ele>1899.7</ele>
        <time>2013-04-10T07:38:30Z</time>
      </trkpt>
      <trkpt lat="42.750653" lon="1.610992">
        <ele>1899.7</ele>
        <time>2013-04-10T07:38:49Z</time>
      </trkpt>
      <trkpt lat="42.750571" lon="1.611060">
        <ele>1899.7</ele>
        <time>2013-04-10T07:38:58Z</time>
      </trkpt>
      <trkpt lat="42.750494" lon="1.611135">
        <ele>1900.2</ele>
        <time>2013-04-10T07:39:07Z</time>
      </trkpt>
      <trkpt lat="42.750422" lon="1.611218">
        <ele>1898.7</ele>
        <time>2013-04-10T07:39:15Z</time>
      </trkpt>
      <trkpt lat="42.750335" lon="1.611299">
        <ele>1900.7</ele>
        <time>2013-04-10T07:39:23Z</time>
      </trkpt>
      <trkpt lat="42.750261" lon="1.611368">
        <ele>1901.6</ele>
        <time>2013-04-10T07:39:30Z</time>
      </trkpt>
      <trkpt lat="42.750191" lon="1.611454">
        <ele>1902.6</ele>
        <time>2013-04-10T07:39:37Z</time>
      </trkpt>
      <trkpt lat="42.750121" lon="1.611547">
        <ele>1903.1</ele>
        <time>2013-04-10T07:39:44Z</time>
      </trkpt>
      <trkpt lat="42.750051" lon="1.611632">
        <ele>1904.0</ele>
        <time>2013-04-10T07:39:51Z</time>
      </trkpt>
      <trkpt lat="42.749979" lon="1.611723">
        <ele>1905.5</ele>
        <time>2013-04-10T07:39:58Z</time>
      </trkpt>
      <trkpt lat="42.749909" lon="1.611807">
        <ele>1905.5</ele>
        <time>2013-04-10T07:40:05Z</time>
      </trkpt>
      <trkpt lat="42.749842" lon="1.611895">
        <ele>1905.0</ele>
        <time>2013-04-10T07:40:12Z</time>
      </trkpt>
      <trkpt lat="42.749764" lon="1.611976">
        <ele>1905.5</ele>
        <time>2013-04-10T07:40:19Z</time>
      </trkpt>
      <trkpt lat="42.749699" lon="1.612066">
        <ele>1905.5</ele>
        <time>2013-04-10T07:40:26Z</time>
      </trkpt>
      <trkpt lat="42.749639" lon="1.612167">
        <ele>1905.0</ele>
        <time>2013-04-10T07:40:33Z</time>
      </trkpt>
      <trkpt lat="42.749580" lon="1.612255">
        <ele>1904.0</ele>
        <time>2013-04-10T07:40:41Z</time>
      </trkpt>
      <trkpt lat="42.749519" lon="1.612309">
        <ele>1902.1</ele>
        <time>2013-04-10T07:41:49Z</time>
      </trkpt>
      <trkpt lat="42.749422" lon="1.612359">
        <ele>1900.7</ele>
        <time>2013-04-10T07:41:57Z</time>
      </trkpt>
      <trkpt lat="42.749350" lon="1.612429">
        <ele>1899.2</ele>
        <time>2013-04-10T07:42:05Z</time>
      </trkpt>
      <trkpt lat="42.749270" lon="1.612497">
        <ele>1897.3</ele>
        <time>2013-04-10T07:42:13Z</time>
      </trkpt>
      <trkpt lat="42.749183" lon="1.612564">
        <ele>1895.9</ele>
        <time>2013-04-10T07:42:21Z</time>
        <name>Pla de Montcamp</name>
      </trkpt>
      <trkpt lat="42.749094" lon="1.612632">
        <ele>1893.9</ele>
        <time>2013-04-10T07:42:30Z</time>
      </trkpt>
      <trkpt lat="42.749011" lon="1.612688">
        <ele>1892.5</ele>
        <time>2013-04-10T07:42:38Z</time>
      </trkpt>
      <trkpt lat="42.748913" lon="1.612739">
        <ele>1890.6</ele>
        <time>2013-04-10T07:42:46Z</time>
      </trkpt>
      <trkpt lat="42.748822" lon="1.612778">
        <ele>1889.1</ele>
        <time>2013-04-10T07:42:53Z</time>
      </trkpt>
      <trkpt lat="42.748731" lon="1.612810">
        <ele>1887.7</ele>
        <time>2013-04-10T07:43:00Z</time>
      </trkpt>
      <trkpt lat="42.748640" lon="1.612884">
        <ele>1886.2</ele>
        <time>2013-04-10T07:43:07Z</time>
      </trkpt>
      <trkpt lat="42.748566" lon="1.612938">
        <ele>1884.8</ele>
        <time>2013-04-10T07:43:14Z</time>
      </trkpt>
      <trkpt lat="42.748475" lon="1.612983">
        <ele>1883.4</ele>
        <time>2013-04-10T07:43:21Z</time>
      </trkpt>
      <trkpt lat="42.748374" lon="1.613013">
        <ele>1881.0</ele>
        <time>2013-04-10T07:43:29Z</time>
      </trkpt>
      <trkpt lat="42.748278" lon="1.613043">
        <ele>1879.5</ele>
        <time>2013-04-10T07:43:35Z</time>
      </trkpt>
      <trkpt lat="42.748194" lon="1.613056">
        <ele>1878.1</ele>
        <time>2013-04-10T07:43:42Z</time>
      </trkpt>
      <trkpt lat="42.748118" lon="1.613111">
        <ele>1876.2</ele>
        <time>2013-04-10T07:43:48Z</time>
      </trkpt>
      <trkpt lat="42.748034" lon="1.613139">
        <ele>1875.2</ele>
        <time>2013-04-10T07:43:55Z</time>
      </trkpt>
      <trkpt lat="42.747925" lon="1.613164">
        <ele>1873.8</ele>
        <time>2013-04-10T07:44:03Z</time>
      </trkpt>
      <trkpt lat="42.747848" lon="1.613195">
        <ele>1872.8</ele>
        <time>2013-04-10T07:44:11Z</time>
      </trkpt>
      <trkpt lat="42.747740" lon="1.613212">
        <ele>1871.8</ele>
        <time>2013-04-10T07:44:20Z</time>
      </trkpt>
      <trkpt lat="42.747654" lon="1.613277">
        <ele>1871.8</ele>
        <time>2013-04-10T07:44:27Z</time>
      </trkpt>
      <trkpt lat="42.747561" lon="1.613349">
        <ele>1869.9</ele>
        <time>2013-04-10T07:44:34Z</time>
      </trkpt>
      <trkpt lat="42.747495" lon="1.613436">
        <ele>1867.5</ele>
        <time>2013-04-10T07:44:41Z</time>
      </trkpt>
      <trkpt lat="42.747411" lon="1.613500">
        <ele>1866.1</ele>
        <time>2013-04-10T07:44:50Z</time>
      </trkpt>
      <trkpt lat="42.747324" lon="1.613538">
        <ele>1864.1</ele>
        <time>2013-04-10T07:45:11Z</time>
      </trkpt>
      <trkpt lat="42.747257" lon="1.613625">
        <ele>1861.7</ele>
        <time>2013-04-10T07:45:21Z</time>
      </trkpt>
      <trkpt lat="42.747180" lon="1.613691">
        <ele>1858.8</ele>
        <time>2013-04-10T07:45:30Z</time>
      </trkpt>
      <trkpt lat="42.747113" lon="1.613761">
        <ele>1856.4</ele>
        <time>2013-04-10T07:45:38Z</time>
      </trkpt>
      <trkpt lat="42.747034" lon="1.613811">
        <ele>1854.0</ele>
        <time>2013-04-10T07:45:47Z</time>
      </trkpt>
      <trkpt lat="42.746951" lon="1.613864">
        <ele>1851.6</ele>
        <time>2013-04-10T07:46:01Z</time>
      </trkpt>
      <trkpt lat="42.746863" lon="1.613918">
        <ele>1849.2</ele>
        <time>2013-04-10T07:46:10Z</time>
      </trkpt>
      <trkpt lat="42.746781" lon="1.613993">
        <ele>1846.8</ele>
        <time>2013-04-10T07:46:18Z</time>
      </trkpt>
      <trkpt lat="42.746691" lon="1.614047">
        <ele>1844.4</ele>
        <time>2013-04-10T07:46:26Z</time>
      </trkpt>
      <trkpt lat="42.746601" lon="1.614112">
        <ele>1842.5</ele>
        <time>2013-04-10T07:46:34Z</time>
      </trkpt>
      <trkpt lat="42.746515" lon="1.614156">
        <ele>1840.6</ele>
        <time>2013-04-10T07:46:42Z</time>
      </trkpt>
      <trkpt lat="42.746432" lon="1.614203">
        <ele>1838.7</ele>
        <time>2013-04-10T07:46:50Z</time>
      </trkpt>
      <trkpt lat="42.746341" lon="1.614238">
        <ele>1837.7</ele>
        <time>2013-04-10T07:46:58Z</time>
      </trkpt>
      <trkpt lat="42.746265" lon="1.614312">
        <ele>1835.8</ele>
        <time>2013-04-10T07:47:06Z</time>
      </trkpt>
      <trkpt lat="42.746190" lon="1.614406">
        <ele>1834.3</ele>
        <time>2013-04-10T07:47:14Z</time>
      </trkpt>
      <trkpt lat="42.746098" lon="1.614486">
        <ele>1833.4</ele>
        <time>2013-04-10T07:47:22Z</time>
      </trkpt>
      <trkpt lat="42.746002" lon="1.614559">
        <ele>1832.4</ele>
        <time>2013-04-10T07:47:30Z</time>
      </trkpt>
      <trkpt lat="42.745921" lon="1.614626">
        <ele>1831.9</ele>
        <time>2013-04-10T07:47:37Z</time>
      </trkpt>
      <trkpt lat="42.745841" lon="1.614690">
        <ele>1830.5</ele>
        <time>2013-04-10T07:47:44Z</time>
      </trkpt>
      <trkpt lat="42.745759" lon="1.614742">
        <ele>1829.5</ele>
        <time>2013-04-10T07:47:51Z</time>
      </trkpt>
      <trkpt lat="42.745666" lon="1.614813">
        <ele>1828.1</ele>
        <time>2013-04-10T07:47:59Z</time>
      </trkpt>
      <trkpt lat="42.745594" lon="1.614879">
        <ele>1826.6</ele>
        <time>2013-04-10T07:48:22Z</time>
      </trkpt>
      <trkpt lat="42.745505" lon="1.614946">
        <ele>1826.2</ele>
        <time>2013-04-10T07:48:30Z</time>
      </trkpt>
      <trkpt lat="42.745431" lon="1.615019">
        <ele>1825.2</ele>
        <time>2013-04-10T07:48:37Z</time>
      </trkpt>
      <trkpt lat="42.745358" lon="1.615088">
        <ele>1823.8</ele>
        <time>2013-04-10T07:48:44Z</time>
      </trkpt>
      <trkpt lat="42.745275" lon="1.615152">
        <ele>1823.3</ele>
        <time>2013-04-10T07:48:51Z</time>
      </trkpt>
      <trkpt lat="42.745199" lon="1.615210">
        <ele>1821.8</ele>
        <time>2013-04-10T07:48:58Z</time>
      </trkpt>
      <trkpt lat="42.745106" lon="1.615264">
        <ele>1820.9</ele>
        <time>2013-04-10T07:49:05Z</time>
      </trkpt>
      <trkpt lat="42.745027" lon="1.615324">
        <ele>1819.4</ele>
        <time>2013-04-10T07:49:12Z</time>
      </trkpt>
      <trkpt lat="42.744943" lon="1.615415">
        <ele>1818.0</ele>
        <time>2013-04-10T07:49:20Z</time>
      </trkpt>
      <trkpt lat="42.744879" lon="1.615506">
        <ele>1817.0</ele>
        <time>2013-04-10T07:49:27Z</time>
      </trkpt>
      <trkpt lat="42.744791" lon="1.615576">
        <ele>1816.1</ele>
        <time>2013-04-10T07:49:35Z</time>
      </trkpt>
      <trkpt lat="42.744705" lon="1.615619">
        <ele>1815.1</ele>
        <time>2013-04-10T07:49:42Z</time>
      </trkpt>
      <trkpt lat="42.744598" lon="1.615686">
        <ele>1813.7</ele>
        <time>2013-04-10T07:50:32Z</time>
      </trkpt>
      <trkpt lat="42.744520" lon="1.615762">
        <ele>1811.7</ele>
        <time>2013-04-10T07:50:41Z</time>
      </trkpt>
      <trkpt lat="42.744431" lon="1.615816">
        <ele>1810.8</ele>
        <time>2013-04-10T07:50:48Z</time>
      </trkpt>
      <trkpt lat="42.744354" lon="1.615877">
        <ele>1808.9</ele>
        <time>2013-04-10T07:50:55Z</time>
      </trkpt>
      <trkpt lat="42.744275" lon="1.615942">
        <ele>1806.9</ele>
        <time>2013-04-10T07:51:03Z</time>
      </trkpt>
      <trkpt lat="42.744180" lon="1.616005">
        <ele>1806.0</ele>
        <time>2013-04-10T07:51:10Z</time>
      </trkpt>
      <trkpt lat="42.744106" lon="1.616064">
        <ele>1804.5</ele>
        <time>2013-04-10T07:51:17Z</time>
      </trkpt>
      <trkpt lat="42.744026" lon="1.616128">
        <ele>1804.1</ele>
        <time>2013-04-10T07:51:24Z</time>
      </trkpt>
      <trkpt lat="42.743941" lon="1.616192">
        <ele>1803.1</ele>
        <time>2013-04-10T07:51:31Z</time>
      </trkpt>
      <trkpt lat="42.743856" lon="1.616255">
        <ele>1802.1</ele>
        <time>2013-04-10T07:51:39Z</time>
      </trkpt>
      <trkpt lat="42.743767" lon="1.616307">
        <ele>1800.7</ele>
        <time>2013-04-10T07:51:47Z</time>
      </trkpt>
      <trkpt lat="42.743683" lon="1.616357">
        <ele>1800.2</ele>
        <time>2013-04-10T07:51:54Z</time>
      </trkpt>
      <trkpt lat="42.743587" lon="1.616414">
        <ele>1799.7</ele>
        <time>2013-04-10T07:52:02Z</time>
      </trkpt>
      <trkpt lat="42.743503" lon="1.616467">
        <ele>1799.7</ele>
        <time>2013-04-10T07:52:10Z</time>
      </trkpt>
      <trkpt lat="42.743414" lon="1.616522">
        <ele>1799.2</ele>
        <time>2013-04-10T07:52:19Z</time>
      </trkpt>
      <trkpt lat="42.743356" lon="1.616536">
        <ele>1799.2</ele>
        <time>2013-04-10T07:53:52Z</time>
      </trkpt>
      <trkpt lat="42.743262" lon="1.616572">
        <ele>1799.2</ele>
        <time>2013-04-10T07:54:01Z</time>
      </trkpt>
      <trkpt lat="42.743167" lon="1.616574">
        <ele>1799.2</ele>
        <time>2013-04-10T07:54:10Z</time>
      </trkpt>
      <trkpt lat="42.743074" lon="1.616605">
        <ele>1798.8</ele>
        <time>2013-04-10T07:54:20Z</time>
      </trkpt>
      <trkpt lat="42.742975" lon="1.616612">
        <ele>1800.2</ele>
        <time>2013-04-10T07:54:29Z</time>
      </trkpt>
      <trkpt lat="42.742883" lon="1.616600">
        <ele>1799.7</ele>
        <time>2013-04-10T07:54:37Z</time>
      </trkpt>
      <trkpt lat="42.742793" lon="1.616588">
        <ele>1799.7</ele>
        <time>2013-04-10T07:54:45Z</time>
      </trkpt>
      <trkpt lat="42.742703" lon="1.616569">
        <ele>1799.7</ele>
        <time>2013-04-10T07:54:53Z</time>
      </trkpt>
      <trkpt lat="42.742614" lon="1.616556">
        <ele>1800.7</ele>
        <time>2013-04-10T07:55:01Z</time>
      </trkpt>
      <trkpt lat="42.742520" lon="1.616546">
        <ele>1801.7</ele>
        <time>2013-04-10T07:55:10Z</time>
      </trkpt>
      <trkpt lat="42.742428" lon="1.616529">
        <ele>1802.6</ele>
        <time>2013-04-10T07:55:19Z</time>
      </trkpt>
      <trkpt lat="42.742329" lon="1.616521">
        <ele>1804.1</ele>
        <time>2013-04-10T07:55:29Z</time>
      </trkpt>
      <trkpt lat="42.742236" lon="1.616497">
        <ele>1805.5</ele>
        <time>2013-04-10T07:55:40Z</time>
      </trkpt>
      <trkpt lat="42.742152" lon="1.616472">
        <ele>1806.9</ele>
        <time>2013-04-10T07:55:51Z</time>
      </trkpt>
      <trkpt lat="42.742061" lon="1.616468">
        <ele>1807.9</ele>
        <time>2013-04-10T07:56:02Z</time>
      </trkpt>
      <trkpt lat="42.741971" lon="1.616484">
        <ele>1809.8</ele>
        <time>2013-04-10T07:56:13Z</time>
      </trkpt>
      <trkpt lat="42.741872" lon="1.616470">
        <ele>1811.3</ele>
        <time>2013-04-10T07:56:24Z</time>
      </trkpt>
      <trkpt lat="42.741778" lon="1.616446">
        <ele>1812.2</ele>
        <time>2013-04-10T07:56:34Z</time>
      </trkpt>
      <trkpt lat="42.741687" lon="1.616440">
        <ele>1813.2</ele>
        <time>2013-04-10T07:56:45Z</time>
      </trkpt>
      <trkpt lat="42.741589" lon="1.616400">
        <ele>1814.2</ele>
        <time>2013-04-10T07:56:56Z</time>
      </trkpt>
      <trkpt lat="42.741501" lon="1.616379">
        <ele>1815.1</ele>
        <time>2013-04-10T07:57:06Z</time>
      </trkpt>
      <trkpt lat="42.741414" lon="1.616365">
        <ele>1815.6</ele>
        <time>2013-04-10T07:57:16Z</time>
      </trkpt>
      <trkpt lat="42.741329" lon="1.616339">
        <ele>1816.6</ele>
        <time>2013-04-10T07:57:26Z</time>
      </trkpt>
      <trkpt lat="42.741230" lon="1.616310">
        <ele>1817.5</ele>
        <time>2013-04-10T07:57:37Z</time>
      </trkpt>
      <trkpt lat="42.741128" lon="1.616301">
        <ele>1818.0</ele>
        <time>2013-04-10T07:57:48Z</time>
      </trkpt>
      <trkpt lat="42.741031" lon="1.616303">
        <ele>1819.4</ele>
        <time>2013-04-10T07:57:59Z</time>
      </trkpt>
      <trkpt lat="42.740958" lon="1.616255">
        <ele>1820.4</ele>
        <time>2013-04-10T07:58:09Z</time>
      </trkpt>
      <trkpt lat="42.740876" lon="1.616228">
        <ele>1821.8</ele>
        <time>2013-04-10T07:58:20Z</time>
      </trkpt>
      <trkpt lat="42.740779" lon="1.616226">
        <ele>1823.8</ele>
        <time>2013-04-10T07:58:31Z</time>
      </trkpt>
      <trkpt lat="42.740689" lon="1.616203">
        <ele>1824.7</ele>
        <time>2013-04-10T07:58:42Z</time>
      </trkpt>
      <trkpt lat="42.740602" lon="1.616183">
        <ele>1826.2</ele>
        <time>2013-04-10T07:58:53Z</time>
      </trkpt>
      <trkpt lat="42.740518" lon="1.616162">
        <ele>1828.1</ele>
        <time>2013-04-10T07:59:05Z</time>
      </trkpt>
      <trkpt lat="42.740421" lon="1.616145">
        <ele>1830.0</ele>
        <time>2013-04-10T07:59:19Z</time>
      </trkpt>
      <trkpt lat="42.740331" lon="1.616112">
        <ele>1831.4</ele>
        <time>2013-04-10T07:59:33Z</time>
      </trkpt>
      <trkpt lat="42.740238" lon="1.616076">
        <ele>1832.9</ele>
        <time>2013-04-10T07:59:47Z</time>
      </trkpt>
      <trkpt lat="42.740143" lon="1.616051">
        <ele>1834.8</ele>
        <time>2013-04-10T08:00:01Z</time>
      </trkpt>
      <trkpt lat="42.740067" lon="1.615977">
        <ele>1835.8</ele>
        <time>2013-04-10T08:00:14Z</time>
      </trkpt>
      <trkpt lat="42.739986" lon="1.615943">
        <ele>1837.7</ele>
        <time>2013-04-10T08:00:28Z</time>
      </trkpt>
      <trkpt lat="42.739903" lon="1.615917">
        <ele>1839.6</ele>
        <time>2013-04-10T08:00:40Z</time>
      </trkpt>
      <trkpt lat="42.739810" lon="1.615873">
        <ele>1841.5</ele>
        <time>2013-04-10T08:00:53Z</time>
      </trkpt>
      <trkpt lat="42.739724" lon="1.615806">
        <ele>1843.5</ele>
        <time>2013-04-10T08:01:07Z</time>
      </trkpt>
      <trkpt lat="42.739630" lon="1.615758">
        <ele>1844.9</ele>
        <time>2013-04-10T08:01:20Z</time>
      </trkpt>
      <trkpt lat="42.739560" lon="1.615706">
        <ele>1846.3</ele>
        <time>2013-04-10T08:01:32Z</time>
      </trkpt>
      <trkpt lat="42.739481" lon="1.615648">
        <ele>1848.8</ele>
        <time>2013-04-10T08:01:46Z</time>
      </trkpt>
      <trkpt lat="42.739404" lon="1.615591">
        <ele>1849.7</ele>
        <time>2013-04-10T08:02:08Z</time>
      </trkpt>
      <trkpt lat="42.739325" lon="1.615552">
        <ele>1852.1</ele>
        <time>2013-04-10T08:02:23Z</time>
      </trkpt>
      <trkpt lat="42.739236" lon="1.615491">
        <ele>1854.0</ele>
        <time>2013-04-10T08:02:37Z</time>
      </trkpt>
      <trkpt lat="42.739149" lon="1.615433">
        <ele>1856.0</ele>
        <time>2013-04-10T08:02:49Z</time>
      </trkpt>
      <trkpt lat="42.739069" lon="1.615373">
        <ele>1857.9</ele>
        <time>2013-04-10T08:03:01Z</time>
      </trkpt>
      <trkpt lat="42.738988" lon="1.615316">
        <ele>1859.8</ele>
        <time>2013-04-10T08:03:14Z</time>
      </trkpt>
      <trkpt lat="42.738903" lon="1.615272">
        <ele>1862.2</ele>
        <time>2013-04-10T08:03:29Z</time>
      </trkpt>
      <trkpt lat="42.738820" lon="1.615202">
        <ele>1864.6</ele>
        <time>2013-04-10T08:03:46Z</time>
      </trkpt>
      <trkpt lat="42.738743" lon="1.615130">
        <ele>1868.9</ele>
        <time>2013-04-10T08:04:02Z</time>
      </trkpt>
      <trkpt lat="42.738660" lon="1.615076">
        <ele>1871.8</ele>
        <time>2013-04-10T08:04:22Z</time>
      </trkpt>
      <trkpt lat="42.738581" lon="1.615016">
        <ele>1875.2</ele>
        <time>2013-04-10T08:04:39Z</time>
      </trkpt>
      <trkpt lat="42.738503" lon="1.614963">
        <ele>1879.0</ele>
        <time>2013-04-10T08:04:57Z</time>
      </trkpt>
      <trkpt lat="42.738414" lon="1.614913">
        <ele>1881.9</ele>
        <time>2013-04-10T08:05:15Z</time>
      </trkpt>
      <trkpt lat="42.738328" lon="1.614857">
        <ele>1885.3</ele>
        <time>2013-04-10T08:05:32Z</time>
      </trkpt>
      <trkpt lat="42.738259" lon="1.614789">
        <ele>1888.2</ele>
        <time>2013-04-10T08:05:50Z</time>
      </trkpt>
      <trkpt lat="42.738178" lon="1.614722">
        <ele>1892.0</ele>
        <time>2013-04-10T08:06:10Z</time>
      </trkpt>
      <trkpt lat="42.738097" lon="1.614672">
        <ele>1894.9</ele>
        <time>2013-04-10T08:06:28Z</time>
      </trkpt>
      <trkpt lat="42.738014" lon="1.614600">
        <ele>1897.8</ele>
        <time>2013-04-10T08:06:46Z</time>
      </trkpt>
      <trkpt lat="42.737942" lon="1.614524">
        <ele>1900.7</ele>
        <time>2013-04-10T08:07:05Z</time>
      </trkpt>
      <trkpt lat="42.737861" lon="1.614466">
        <ele>1903.6</ele>
        <time>2013-04-10T08:07:23Z</time>
      </trkpt>
      <trkpt lat="42.737787" lon="1.614404">
        <ele>1905.9</ele>
        <time>2013-04-10T08:07:41Z</time>
      </trkpt>
      <trkpt lat="42.737709" lon="1.614336">
        <ele>1908.8</ele>
        <time>2013-04-10T08:07:59Z</time>
      </trkpt>
      <trkpt lat="42.737625" lon="1.614285">
        <ele>1911.7</ele>
        <time>2013-04-10T08:08:18Z</time>
      </trkpt>
      <trkpt lat="42.737540" lon="1.614230">
        <ele>1914.1</ele>
        <time>2013-04-10T08:08:36Z</time>
      </trkpt>
      <trkpt lat="42.737472" lon="1.614183">
        <ele>1917.0</ele>
        <time>2013-04-10T08:08:55Z</time>
      </trkpt>
      <trkpt lat="42.737386" lon="1.614127">
        <ele>1919.9</ele>
        <time>2013-04-10T08:09:13Z</time>
      </trkpt>
      <trkpt lat="42.737314" lon="1.614070">
        <ele>1921.8</ele>
        <time>2013-04-10T08:09:31Z</time>
      </trkpt>
      <trkpt lat="42.737233" lon="1.614024">
        <ele>1925.2</ele>
        <time>2013-04-10T08:09:51Z</time>
      </trkpt>
      <trkpt lat="42.737156" lon="1.613971">
        <ele>1927.1</ele>
        <time>2013-04-10T08:10:09Z</time>
      </trkpt>
      <trkpt lat="42.737068" lon="1.613942">
        <ele>1931.4</ele>
        <time>2013-04-10T08:10:30Z</time>
      </trkpt>
      <trkpt lat="42.736977" lon="1.613907">
        <ele>1934.3</ele>
        <time>2013-04-10T08:10:50Z</time>
      </trkpt>
      <trkpt lat="42.736893" lon="1.613839">
        <ele>1936.7</ele>
        <time>2013-04-10T08:11:10Z</time>
      </trkpt>
      <trkpt lat="42.736799" lon="1.613806">
        <ele>1939.6</ele>
        <time>2013-04-10T08:11:30Z</time>
      </trkpt>
      <trkpt lat="42.736702" lon="1.613766">
        <ele>1942.0</ele>
        <time>2013-04-10T08:11:49Z</time>
      </trkpt>
      <trkpt lat="42.736633" lon="1.613712">
        <ele>1944.9</ele>
        <time>2013-04-10T08:12:09Z</time>
      </trkpt>
      <trkpt lat="42.736545" lon="1.613691">
        <ele>1946.3</ele>
        <time>2013-04-10T08:12:24Z</time>
      </trkpt>
      <trkpt lat="42.736464" lon="1.613644">
        <ele>1948.2</ele>
        <time>2013-04-10T08:12:40Z</time>
      </trkpt>
      <trkpt lat="42.736379" lon="1.613596">
        <ele>1949.7</ele>
        <time>2013-04-10T08:12:53Z</time>
      </trkpt>
      <trkpt lat="42.736294" lon="1.613549">
        <ele>1951.1</ele>
        <time>2013-04-10T08:13:06Z</time>
      </trkpt>
      <trkpt lat="42.736200" lon="1.613510">
        <ele>1952.6</ele>
        <time>2013-04-10T08:13:21Z</time>
      </trkpt>
      <trkpt lat="42.736104" lon="1.613466">
        <ele>1954.0</ele>
        <time>2013-04-10T08:13:34Z</time>
      </trkpt>
      <trkpt lat="42.736045" lon="1.613433">
        <ele>1954.0</ele>
        <time>2013-04-10T08:15:07Z</time>
      </trkpt>
      <trkpt lat="42.735952" lon="1.613392">
        <ele>1955.0</ele>
        <time>2013-04-10T08:15:30Z</time>
      </trkpt>
      <trkpt lat="42.735854" lon="1.613351">
        <ele>1955.0</ele>
        <time>2013-04-10T08:15:40Z</time>
      </trkpt>
      <trkpt lat="42.735760" lon="1.613310">
        <ele>1956.4</ele>
        <time>2013-04-10T08:15:50Z</time>
      </trkpt>
      <trkpt lat="42.735679" lon="1.613268">
        <ele>1956.9</ele>
        <time>2013-04-10T08:15:59Z</time>
      </trkpt>
      <trkpt lat="42.735606" lon="1.613204">
        <ele>1957.4</ele>
        <time>2013-04-10T08:16:08Z</time>
      </trkpt>
      <trkpt lat="42.735512" lon="1.613203">
        <ele>1958.3</ele>
        <time>2013-04-10T08:16:18Z</time>
        <name>Pic du col Taillat</name>
      </trkpt>
      <trkpt lat="42.735419" lon="1.613208">
        <ele>1956.9</ele>
        <time>2013-04-10T08:16:28Z</time>
      </trkpt>
      <trkpt lat="42.735321" lon="1.613205">
        <ele>1957.9</ele>
        <time>2013-04-10T08:16:38Z</time>
      </trkpt>
      <trkpt lat="42.735227" lon="1.613210">
        <ele>1957.4</ele>
        <time>2013-04-10T08:16:48Z</time>
      </trkpt>
      <trkpt lat="42.735135" lon="1.613210">
        <ele>1956.4</ele>
        <time>2013-04-10T08:16:59Z</time>
      </trkpt>
      <trkpt lat="42.735031" lon="1.613204">
        <ele>1955.5</ele>
        <time>2013-04-10T08:17:10Z</time>
      </trkpt>
      <trkpt lat="42.734945" lon="1.613200">
        <ele>1953.5</ele>
        <time>2013-04-10T08:19:47Z</time>
      </trkpt>
      <trkpt lat="42.734846" lon="1.613223">
        <ele>1952.6</ele>
        <time>2013-04-10T08:19:58Z</time>
      </trkpt>
      <trkpt lat="42.734759" lon="1.613236">
        <ele>1951.6</ele>
        <time>2013-04-10T08:20:07Z</time>
      </trkpt>
      <trkpt lat="42.734659" lon="1.613238">
        <ele>1949.2</ele>
        <time>2013-04-10T08:20:17Z</time>
      </trkpt>
      <trkpt lat="42.734566" lon="1.613238">
        <ele>1948.2</ele>
        <time>2013-04-10T08:21:07Z</time>
      </trkpt>
      <trkpt lat="42.734471" lon="1.613232">
        <ele>1946.3</ele>
        <time>2013-04-10T08:21:20Z</time>
      </trkpt>
      <trkpt lat="42.734381" lon="1.613237">
        <ele>1944.4</ele>
        <time>2013-04-10T08:21:52Z</time>
      </trkpt>
      <trkpt lat="42.734284" lon="1.613218">
        <ele>1942.0</ele>
        <time>2013-04-10T08:22:03Z</time>
      </trkpt>
      <trkpt lat="42.734182" lon="1.613200">
        <ele>1939.1</ele>
        <time>2013-04-10T08:22:13Z</time>
      </trkpt>
      <trkpt lat="42.734076" lon="1.613213">
        <ele>1937.2</ele>
        <time>2013-04-10T08:22:23Z</time>
      </trkpt>
      <trkpt lat="42.733979" lon="1.613214">
        <ele>1934.8</ele>
        <time>2013-04-10T08:22:32Z</time>
      </trkpt>
      <trkpt lat="42.733890" lon="1.613228">
        <ele>1932.4</ele>
        <time>2013-04-10T08:22:41Z</time>
      </trkpt>
      <trkpt lat="42.733796" lon="1.613220">
        <ele>1935.3</ele>
        <time>2013-04-10T08:23:07Z</time>
      </trkpt>
      <trkpt lat="42.733704" lon="1.613222">
        <ele>1927.6</ele>
        <time>2013-04-10T08:23:17Z</time>
      </trkpt>
      <trkpt lat="42.733615" lon="1.613203">
        <ele>1926.1</ele>
        <time>2013-04-10T08:23:28Z</time>
      </trkpt>
      <trkpt lat="42.733586" lon="1.613208">
        <ele>1926.6</ele>
        <time>2013-04-10T08:27:04Z</time>
      </trkpt>
      <trkpt lat="42.733600" lon="1.613195">
        <ele>1927.6</ele>
        <time>2013-04-10T08:29:43Z</time>
      </trkpt>
      <trkpt lat="42.733526" lon="1.613132">
        <ele>1925.2</ele>
        <time>2013-04-10T08:29:54Z</time>
      </trkpt>
      <trkpt lat="42.733433" lon="1.613081">
        <ele>1922.8</ele>
        <time>2013-04-10T08:30:05Z</time>
      </trkpt>
      <trkpt lat="42.733350" lon="1.613019">
        <ele>1920.8</ele>
        <time>2013-04-10T08:30:15Z</time>
      </trkpt>
      <trkpt lat="42.733268" lon="1.612982">
        <ele>1918.0</ele>
        <time>2013-04-10T08:30:25Z</time>
      </trkpt>
      <trkpt lat="42.733181" lon="1.612970">
        <ele>1916.0</ele>
        <time>2013-04-10T08:30:34Z</time>
      </trkpt>
      <trkpt lat="42.733088" lon="1.612942">
        <ele>1913.2</ele>
        <time>2013-04-10T08:30:44Z</time>
      </trkpt>
      <trkpt lat="42.732987" lon="1.612923">
        <ele>1908.3</ele>
        <time>2013-04-10T08:30:54Z</time>
      </trkpt>
      <trkpt lat="42.732903" lon="1.612882">
        <ele>1906.9</ele>
        <time>2013-04-10T08:31:03Z</time>
      </trkpt>
      <trkpt lat="42.732815" lon="1.612860">
        <ele>1905.5</ele>
        <time>2013-04-10T08:31:12Z</time>
      </trkpt>
      <trkpt lat="42.732712" lon="1.612846">
        <ele>1904.0</ele>
        <time>2013-04-10T08:31:21Z</time>
      </trkpt>
      <trkpt lat="42.732619" lon="1.612826">
        <ele>1902.1</ele>
        <time>2013-04-10T08:31:30Z</time>
      </trkpt>
      <trkpt lat="42.732522" lon="1.612821">
        <ele>1900.7</ele>
        <time>2013-04-10T08:31:39Z</time>
      </trkpt>
      <trkpt lat="42.732432" lon="1.612787">
        <ele>1899.2</ele>
        <time>2013-04-10T08:31:48Z</time>
      </trkpt>
      <trkpt lat="42.732348" lon="1.612762">
        <ele>1898.3</ele>
        <time>2013-04-10T08:31:56Z</time>
      </trkpt>
      <trkpt lat="42.732256" lon="1.612753">
        <ele>1895.9</ele>
        <time>2013-04-10T08:32:04Z</time>
      </trkpt>
      <trkpt lat="42.732144" lon="1.612750">
        <ele>1893.9</ele>
        <time>2013-04-10T08:32:13Z</time>
      </trkpt>
      <trkpt lat="42.732048" lon="1.612718">
        <ele>1893.0</ele>
        <time>2013-04-10T08:32:21Z</time>
      </trkpt>
      <trkpt lat="42.731957" lon="1.612711">
        <ele>1891.1</ele>
        <time>2013-04-10T08:32:27Z</time>
      </trkpt>
      <trkpt lat="42.731865" lon="1.612701">
        <ele>1889.6</ele>
        <time>2013-04-10T08:32:33Z</time>
      </trkpt>
      <trkpt lat="42.731782" lon="1.612707">
        <ele>1888.2</ele>
        <time>2013-04-10T08:32:39Z</time>
      </trkpt>
      <trkpt lat="42.731703" lon="1.612673">
        <ele>1886.2</ele>
        <time>2013-04-10T08:32:48Z</time>
      </trkpt>
      <trkpt lat="42.731609" lon="1.612646">
        <ele>1884.3</ele>
        <time>2013-04-10T08:32:56Z</time>
      </trkpt>
      <trkpt lat="42.731513" lon="1.612650">
        <ele>1882.4</ele>
        <time>2013-04-10T08:33:05Z</time>
      </trkpt>
      <trkpt lat="42.731419" lon="1.612643">
        <ele>1879.5</ele>
        <time>2013-04-10T08:33:14Z</time>
      </trkpt>
      <trkpt lat="42.731331" lon="1.612640">
        <ele>1878.6</ele>
        <time>2013-04-10T08:33:23Z</time>
      </trkpt>
      <trkpt lat="42.731228" lon="1.612631">
        <ele>1877.1</ele>
        <time>2013-04-10T08:33:32Z</time>
      </trkpt>
      <trkpt lat="42.731126" lon="1.612644">
        <ele>1876.2</ele>
        <time>2013-04-10T08:33:41Z</time>
      </trkpt>
      <trkpt lat="42.731034" lon="1.612639">
        <ele>1874.7</ele>
        <time>2013-04-10T08:33:49Z</time>
      </trkpt>
      <trkpt lat="42.730939" lon="1.612645">
        <ele>1873.8</ele>
        <time>2013-04-10T08:33:58Z</time>
      </trkpt>
      <trkpt lat="42.730846" lon="1.612648">
        <ele>1872.8</ele>
        <time>2013-04-10T08:34:07Z</time>
      </trkpt>
      <trkpt lat="42.730744" lon="1.612639">
        <ele>1871.8</ele>
        <time>2013-04-10T08:34:16Z</time>
      </trkpt>
      <trkpt lat="42.730644" lon="1.612640">
        <ele>1870.9</ele>
        <time>2013-04-10T08:34:24Z</time>
      </trkpt>
      <trkpt lat="42.730541" lon="1.612629">
        <ele>1869.9</ele>
        <time>2013-04-10T08:34:32Z</time>
      </trkpt>
      <trkpt lat="42.730449" lon="1.612625">
        <ele>1868.9</ele>
        <time>2013-04-10T08:34:40Z</time>
      </trkpt>
      <trkpt lat="42.730342" lon="1.612609">
        <ele>1867.5</ele>
        <time>2013-04-10T08:34:48Z</time>
      </trkpt>
      <trkpt lat="42.730240" lon="1.612594">
        <ele>1865.6</ele>
        <time>2013-04-10T08:34:56Z</time>
      </trkpt>
      <trkpt lat="42.730145" lon="1.612588">
        <ele>1864.6</ele>
        <time>2013-04-10T08:35:03Z</time>
      </trkpt>
      <trkpt lat="42.730039" lon="1.612603">
        <ele>1864.1</ele>
        <time>2013-04-10T08:35:11Z</time>
      </trkpt>
      <trkpt lat="42.729938" lon="1.612600">
        <ele>1863.7</ele>
        <time>2013-04-10T08:35:19Z</time>
      </trkpt>
      <trkpt lat="42.729844" lon="1.612592">
        <ele>1862.7</ele>
        <time>2013-04-10T08:35:27Z</time>
      </trkpt>
      <trkpt lat="42.729739" lon="1.612602">
        <ele>1861.7</ele>
        <time>2013-04-10T08:35:36Z</time>
      </trkpt>
      <trkpt lat="42.729636" lon="1.612612">
        <ele>1862.2</ele>
        <time>2013-04-10T08:35:45Z</time>
      </trkpt>
      <trkpt lat="42.729535" lon="1.612615">
        <ele>1861.7</ele>
        <time>2013-04-10T08:35:53Z</time>
      </trkpt>
      <trkpt lat="42.729441" lon="1.612626">
        <ele>1862.2</ele>
        <time>2013-04-10T08:36:01Z</time>
      </trkpt>
      <trkpt lat="42.729324" lon="1.612619">
        <ele>1862.7</ele>
        <time>2013-04-10T08:36:10Z</time>
      </trkpt>
      <trkpt lat="42.729231" lon="1.612636">
        <ele>1864.1</ele>
        <time>2013-04-10T08:36:19Z</time>
      </trkpt>
      <trkpt lat="42.729145" lon="1.612651">
        <ele>1865.6</ele>
        <time>2013-04-10T08:36:28Z</time>
      </trkpt>
      <trkpt lat="42.729052" lon="1.612675">
        <ele>1866.1</ele>
        <time>2013-04-10T08:36:38Z</time>
      </trkpt>
      <trkpt lat="42.728961" lon="1.612694">
        <ele>1867.0</ele>
        <time>2013-04-10T08:36:48Z</time>
      </trkpt>
      <trkpt lat="42.728878" lon="1.612728">
        <ele>1867.5</ele>
        <time>2013-04-10T08:37:13Z</time>
      </trkpt>
      <trkpt lat="42.728878" lon="1.612693">
        <ele>1868.0</ele>
        <time>2013-04-10T08:38:54Z</time>
      </trkpt>
      <trkpt lat="42.728877" lon="1.612695">
        <ele>1868.5</ele>
        <time>2013-04-10T08:39:43Z</time>
      </trkpt>
      <trkpt lat="42.728842" lon="1.612686">
        <ele>1868.9</ele>
        <time>2013-04-10T08:42:37Z</time>
      </trkpt>
      <trkpt lat="42.728780" lon="1.612725">
        <ele>1868.5</ele>
        <time>2013-04-10T08:42:57Z</time>
      </trkpt>
      <trkpt lat="42.728686" lon="1.612733">
        <ele>1869.9</ele>
        <time>2013-04-10T08:43:06Z</time>
      </trkpt>
      <trkpt lat="42.728614" lon="1.612801">
        <ele>1872.3</ele>
        <time>2013-04-10T08:43:19Z</time>
      </trkpt>
      <trkpt lat="42.728561" lon="1.612882">
        <ele>1875.2</ele>
        <time>2013-04-10T08:43:32Z</time>
      </trkpt>
      <trkpt lat="42.728476" lon="1.612923">
        <ele>1877.6</ele>
        <time>2013-04-10T08:43:45Z</time>
      </trkpt>
      <trkpt lat="42.728389" lon="1.612971">
        <ele>1879.5</ele>
        <time>2013-04-10T08:43:59Z</time>
      </trkpt>
      <trkpt lat="42.728306" lon="1.613022">
        <ele>1882.9</ele>
        <time>2013-04-10T08:44:14Z</time>
      </trkpt>
      <trkpt lat="42.728266" lon="1.613143">
        <ele>1885.3</ele>
        <time>2013-04-10T08:44:32Z</time>
      </trkpt>
      <trkpt lat="42.728180" lon="1.613176">
        <ele>1889.1</ele>
        <time>2013-04-10T08:44:46Z</time>
      </trkpt>
      <trkpt lat="42.728084" lon="1.613198">
        <ele>1890.6</ele>
        <time>2013-04-10T08:45:02Z</time>
      </trkpt>
      <trkpt lat="42.727982" lon="1.613201">
        <ele>1892.0</ele>
        <time>2013-04-10T08:45:14Z</time>
      </trkpt>
      <trkpt lat="42.727888" lon="1.613245">
        <ele>1893.4</ele>
        <time>2013-04-10T08:45:28Z</time>
      </trkpt>
      <trkpt lat="42.727797" lon="1.613275">
        <ele>1895.9</ele>
        <time>2013-04-10T08:45:44Z</time>
      </trkpt>
      <trkpt lat="42.727703" lon="1.613292">
        <ele>1898.3</ele>
        <time>2013-04-10T08:46:01Z</time>
      </trkpt>
      <trkpt lat="42.727608" lon="1.613279">
        <ele>1901.1</ele>
        <time>2013-04-10T08:46:17Z</time>
      </trkpt>
      <trkpt lat="42.727558" lon="1.613336">
        <ele>1902.6</ele>
        <time>2013-04-10T08:50:55Z</time>
      </trkpt>
      <trkpt lat="42.727477" lon="1.613325">
        <ele>1904.0</ele>
        <time>2013-04-10T08:51:19Z</time>
      </trkpt>
      <trkpt lat="42.727386" lon="1.613328">
        <ele>1906.9</ele>
        <time>2013-04-10T08:51:33Z</time>
      </trkpt>
      <trkpt lat="42.727296" lon="1.613311">
        <ele>1908.8</ele>
        <time>2013-04-10T08:51:47Z</time>
      </trkpt>
      <trkpt lat="42.727204" lon="1.613290">
        <ele>1911.7</ele>
        <time>2013-04-10T08:52:02Z</time>
      </trkpt>
      <trkpt lat="42.727113" lon="1.613265">
        <ele>1915.6</ele>
        <time>2013-04-10T08:52:23Z</time>
      </trkpt>
      <trkpt lat="42.727018" lon="1.613251">
        <ele>1919.4</ele>
        <time>2013-04-10T08:52:44Z</time>
      </trkpt>
      <trkpt lat="42.726923" lon="1.613235">
        <ele>1920.8</ele>
        <time>2013-04-10T08:52:59Z</time>
      </trkpt>
      <trkpt lat="42.726825" lon="1.613238">
        <ele>1922.8</ele>
        <time>2013-04-10T08:53:14Z</time>
      </trkpt>
      <trkpt lat="42.726746" lon="1.613240">
        <ele>1924.7</ele>
        <time>2013-04-10T08:53:35Z</time>
      </trkpt>
      <trkpt lat="42.726652" lon="1.613261">
        <ele>1927.6</ele>
        <time>2013-04-10T08:53:56Z</time>
      </trkpt>
      <trkpt lat="42.726567" lon="1.613281">
        <ele>1930.5</ele>
        <time>2013-04-10T08:54:15Z</time>
      </trkpt>
      <trkpt lat="42.726475" lon="1.613271">
        <ele>1933.3</ele>
        <time>2013-04-10T08:54:36Z</time>
      </trkpt>
      <trkpt lat="42.726382" lon="1.613299">
        <ele>1937.2</ele>
        <time>2013-04-10T08:54:59Z</time>
      </trkpt>
      <trkpt lat="42.726290" lon="1.613305">
        <ele>1941.0</ele>
        <time>2013-04-10T08:55:23Z</time>
      </trkpt>
      <trkpt lat="42.726200" lon="1.613291">
        <ele>1944.9</ele>
        <time>2013-04-10T08:55:44Z</time>
      </trkpt>
      <trkpt lat="42.726117" lon="1.613254">
        <ele>1947.8</ele>
        <time>2013-04-10T08:56:03Z</time>
      </trkpt>
      <trkpt lat="42.726027" lon="1.613229">
        <ele>1951.6</ele>
        <time>2013-04-10T08:56:22Z</time>
      </trkpt>
      <trkpt lat="42.725936" lon="1.613174">
        <ele>1955.9</ele>
        <time>2013-04-10T08:56:43Z</time>
      </trkpt>
      <trkpt lat="42.725844" lon="1.613135">
        <ele>1959.3</ele>
        <time>2013-04-10T08:57:04Z</time>
      </trkpt>
      <trkpt lat="42.725753" lon="1.613087">
        <ele>1962.7</ele>
        <time>2013-04-10T08:57:25Z</time>
      </trkpt>
      <trkpt lat="42.725661" lon="1.613047">
        <ele>1965.1</ele>
        <time>2013-04-10T08:57:46Z</time>
      </trkpt>
      <trkpt lat="42.725581" lon="1.613001">
        <ele>1968.4</ele>
        <time>2013-04-10T08:58:07Z</time>
      </trkpt>
      <trkpt lat="42.725500" lon="1.612952">
        <ele>1970.4</ele>
        <time>2013-04-10T08:58:27Z</time>
      </trkpt>
      <trkpt lat="42.725417" lon="1.612909">
        <ele>1972.8</ele>
        <time>2013-04-10T08:58:43Z</time>
      </trkpt>
      <trkpt lat="42.725340" lon="1.612873">
        <ele>1975.2</ele>
        <time>2013-04-10T08:59:01Z</time>
      </trkpt>
      <trkpt lat="42.725268" lon="1.612821">
        <ele>1977.6</ele>
        <time>2013-04-10T08:59:21Z</time>
      </trkpt>
      <trkpt lat="42.725178" lon="1.612789">
        <ele>1980.9</ele>
        <time>2013-04-10T08:59:43Z</time>
      </trkpt>
      <trkpt lat="42.725087" lon="1.612751">
        <ele>1984.8</ele>
        <time>2013-04-10T09:00:04Z</time>
      </trkpt>
      <trkpt lat="42.724995" lon="1.612733">
        <ele>1986.2</ele>
        <time>2013-04-10T09:00:21Z</time>
      </trkpt>
      <trkpt lat="42.724907" lon="1.612700">
        <ele>1989.1</ele>
        <time>2013-04-10T09:00:40Z</time>
      </trkpt>
      <trkpt lat="42.724813" lon="1.612655">
        <ele>1992.0</ele>
        <time>2013-04-10T09:00:59Z</time>
      </trkpt>
      <trkpt lat="42.724733" lon="1.612614">
        <ele>1994.4</ele>
        <time>2013-04-10T09:01:17Z</time>
      </trkpt>
      <trkpt lat="42.724670" lon="1.612553">
        <ele>1998.2</ele>
        <time>2013-04-10T09:01:37Z</time>
      </trkpt>
      <trkpt lat="42.724612" lon="1.612485">
        <ele>2001.1</ele>
        <time>2013-04-10T09:01:58Z</time>
      </trkpt>
      <trkpt lat="42.724536" lon="1.612445">
        <ele>2005.4</ele>
        <time>2013-04-10T09:02:22Z</time>
      </trkpt>
      <trkpt lat="42.724468" lon="1.612396">
        <ele>2009.3</ele>
        <time>2013-04-10T09:02:46Z</time>
      </trkpt>
      <trkpt lat="42.724380" lon="1.612319">
        <ele>2014.1</ele>
        <time>2013-04-10T09:03:12Z</time>
      </trkpt>
      <trkpt lat="42.724327" lon="1.612275">
        <ele>2017.5</ele>
        <time>2013-04-10T09:03:33Z</time>
      </trkpt>
      <trkpt lat="42.724272" lon="1.612222">
        <ele>2022.8</ele>
        <time>2013-04-10T09:04:00Z</time>
      </trkpt>
      <trkpt lat="42.724189" lon="1.612205">
        <ele>2027.1</ele>
        <time>2013-04-10T09:04:17Z</time>
      </trkpt>
      <trkpt lat="42.724123" lon="1.612158">
        <ele>2030.9</ele>
        <time>2013-04-10T09:04:37Z</time>
      </trkpt>
      <trkpt lat="42.724048" lon="1.612097">
        <ele>2033.3</ele>
        <time>2013-04-10T09:04:55Z</time>
      </trkpt>
      <trkpt lat="42.724009" lon="1.612013">
        <ele>2035.2</ele>
        <time>2013-04-10T09:05:15Z</time>
      </trkpt>
      <trkpt lat="42.723925" lon="1.611944">
        <ele>2038.6</ele>
        <time>2013-04-10T09:05:34Z</time>
      </trkpt>
      <trkpt lat="42.723868" lon="1.611855">
        <ele>2041.0</ele>
        <time>2013-04-10T09:05:51Z</time>
      </trkpt>
      <trkpt lat="42.723794" lon="1.611782">
        <ele>2043.9</ele>
        <time>2013-04-10T09:06:11Z</time>
      </trkpt>
      <trkpt lat="42.723723" lon="1.611729">
        <ele>2046.8</ele>
        <time>2013-04-10T09:06:29Z</time>
      </trkpt>
      <trkpt lat="42.723658" lon="1.611632">
        <ele>2049.2</ele>
        <time>2013-04-10T09:06:47Z</time>
      </trkpt>
      <trkpt lat="42.723597" lon="1.611538">
        <ele>2051.6</ele>
        <time>2013-04-10T09:07:16Z</time>
      </trkpt>
      <trkpt lat="42.723530" lon="1.611447">
        <ele>2054.0</ele>
        <time>2013-04-10T09:07:35Z</time>
      </trkpt>
      <trkpt lat="42.723451" lon="1.611400">
        <ele>2055.9</ele>
        <time>2013-04-10T09:07:51Z</time>
      </trkpt>
      <trkpt lat="42.723384" lon="1.611311">
        <ele>2058.3</ele>
        <time>2013-04-10T09:08:08Z</time>
      </trkpt>
      <trkpt lat="42.723345" lon="1.611190">
        <ele>2060.2</ele>
        <time>2013-04-10T09:08:24Z</time>
      </trkpt>
      <trkpt lat="42.723301" lon="1.611078">
        <ele>2061.2</ele>
        <time>2013-04-10T09:08:39Z</time>
      </trkpt>
      <trkpt lat="42.723273" lon="1.610967">
        <ele>2064.1</ele>
        <time>2013-04-10T09:08:52Z</time>
      </trkpt>
      <trkpt lat="42.723216" lon="1.610886">
        <ele>2064.6</ele>
        <time>2013-04-10T09:09:04Z</time>
      </trkpt>
      <trkpt lat="42.723177" lon="1.610781">
        <ele>2067.0</ele>
        <time>2013-04-10T09:09:19Z</time>
      </trkpt>
      <trkpt lat="42.723145" lon="1.610671">
        <ele>2067.9</ele>
        <time>2013-04-10T09:10:18Z</time>
      </trkpt>
      <trkpt lat="42.723111" lon="1.610583">
        <ele>2070.3</ele>
        <time>2013-04-10T09:10:37Z</time>
      </trkpt>
      <trkpt lat="42.723172" lon="1.610517">
        <ele>2069.4</ele>
        <time>2013-04-10T09:14:03Z</time>
        <name>Cap de la Serre de l Escalier</name>
      </trkpt>
      <trkpt lat="42.723201" lon="1.610438">
        <ele>2069.4</ele>
        <time>2013-04-10T09:14:25Z</time>
      </trkpt>
      <trkpt lat="42.723207" lon="1.610389">
        <ele>2068.9</ele>
        <time>2013-04-10T09:15:24Z</time>
      </trkpt>
      <trkpt lat="42.723194" lon="1.610263">
        <ele>2069.4</ele>
        <time>2013-04-10T09:15:33Z</time>
      </trkpt>
      <trkpt lat="42.723200" lon="1.610177">
        <ele>2068.9</ele>
        <time>2013-04-10T09:18:17Z</time>
      </trkpt>
      <trkpt lat="42.723193" lon="1.610169">
        <ele>2067.9</ele>
        <time>2013-04-10T09:21:33Z</time>
      </trkpt>
      <trkpt lat="42.723204" lon="1.610171">
        <ele>2068.4</ele>
        <time>2013-04-10T09:27:30Z</time>
      </trkpt>
      <trkpt lat="42.723153" lon="1.610129">
        <ele>2067.9</ele>
        <time>2013-04-10T09:27:54Z</time>
      </trkpt>
      <trkpt lat="42.723076" lon="1.610061">
        <ele>2068.4</ele>
        <time>2013-04-10T09:28:05Z</time>
      </trkpt>
      <trkpt lat="42.722999" lon="1.609994">
        <ele>2067.4</ele>
        <time>2013-04-10T09:28:22Z</time>
      </trkpt>
      <trkpt lat="42.722904" lon="1.609983">
        <ele>2067.4</ele>
        <time>2013-04-10T09:28:31Z</time>
      </trkpt>
      <trkpt lat="42.722816" lon="1.609934">
        <ele>2068.4</ele>
        <time>2013-04-10T09:28:40Z</time>
      </trkpt>
      <trkpt lat="42.722734" lon="1.609863">
        <ele>2068.4</ele>
        <time>2013-04-10T09:28:49Z</time>
      </trkpt>
      <trkpt lat="42.722649" lon="1.609804">
        <ele>2067.9</ele>
        <time>2013-04-10T09:28:58Z</time>
      </trkpt>
      <trkpt lat="42.722571" lon="1.609715">
        <ele>2067.9</ele>
        <time>2013-04-10T09:29:08Z</time>
      </trkpt>
      <trkpt lat="42.722508" lon="1.609621">
        <ele>2067.4</ele>
        <time>2013-04-10T09:29:17Z</time>
      </trkpt>
      <trkpt lat="42.722443" lon="1.609535">
        <ele>2067.9</ele>
        <time>2013-04-10T09:29:26Z</time>
      </trkpt>
      <trkpt lat="42.722363" lon="1.609491">
        <ele>2067.9</ele>
        <time>2013-04-10T09:29:35Z</time>
      </trkpt>
      <trkpt lat="42.722295" lon="1.609432">
        <ele>2067.9</ele>
        <time>2013-04-10T09:29:57Z</time>
      </trkpt>
      <trkpt lat="42.722224" lon="1.609344">
        <ele>2068.4</ele>
        <time>2013-04-10T09:30:06Z</time>
      </trkpt>
      <trkpt lat="42.722153" lon="1.609273">
        <ele>2068.4</ele>
        <time>2013-04-10T09:30:15Z</time>
      </trkpt>
      <trkpt lat="42.722075" lon="1.609189">
        <ele>2069.4</ele>
        <time>2013-04-10T09:30:24Z</time>
      </trkpt>
      <trkpt lat="42.722003" lon="1.609098">
        <ele>2070.3</ele>
        <time>2013-04-10T09:30:33Z</time>
      </trkpt>
      <trkpt lat="42.721916" lon="1.609044">
        <ele>2069.9</ele>
        <time>2013-04-10T09:30:42Z</time>
      </trkpt>
      <trkpt lat="42.721848" lon="1.608942">
        <ele>2070.8</ele>
        <time>2013-04-10T09:30:51Z</time>
      </trkpt>
      <trkpt lat="42.721795" lon="1.608827">
        <ele>2070.8</ele>
        <time>2013-04-10T09:31:00Z</time>
      </trkpt>
      <trkpt lat="42.721747" lon="1.608767">
        <ele>2071.3</ele>
        <time>2013-04-10T09:31:53Z</time>
      </trkpt>
      <trkpt lat="42.721720" lon="1.608644">
        <ele>2070.3</ele>
        <time>2013-04-10T09:32:01Z</time>
      </trkpt>
      <trkpt lat="42.721690" lon="1.608511">
        <ele>2068.9</ele>
        <time>2013-04-10T09:32:10Z</time>
      </trkpt>
      <trkpt lat="42.721646" lon="1.608399">
        <ele>2068.4</ele>
        <time>2013-04-10T09:32:17Z</time>
      </trkpt>
      <trkpt lat="42.721603" lon="1.608291">
        <ele>2067.4</ele>
        <time>2013-04-10T09:32:25Z</time>
      </trkpt>
      <trkpt lat="42.721542" lon="1.608187">
        <ele>2067.0</ele>
        <time>2013-04-10T09:32:33Z</time>
      </trkpt>
      <trkpt lat="42.721481" lon="1.608099">
        <ele>2066.5</ele>
        <time>2013-04-10T09:32:40Z</time>
      </trkpt>
      <trkpt lat="42.721413" lon="1.608011">
        <ele>2066.5</ele>
        <time>2013-04-10T09:32:49Z</time>
      </trkpt>
      <trkpt lat="42.721345" lon="1.607938">
        <ele>2066.5</ele>
        <time>2013-04-10T09:32:58Z</time>
      </trkpt>
      <trkpt lat="42.721281" lon="1.607841">
        <ele>2066.5</ele>
        <time>2013-04-10T09:33:06Z</time>
      </trkpt>
      <trkpt lat="42.721216" lon="1.607733">
        <ele>2065.5</ele>
        <time>2013-04-10T09:33:14Z</time>
      </trkpt>
      <trkpt lat="42.721147" lon="1.607636">
        <ele>2064.6</ele>
        <time>2013-04-10T09:33:21Z</time>
      </trkpt>
      <trkpt lat="42.721084" lon="1.607529">
        <ele>2064.6</ele>
        <time>2013-04-10T09:33:29Z</time>
      </trkpt>
      <trkpt lat="42.721041" lon="1.607408">
        <ele>2063.6</ele>
        <time>2013-04-10T09:33:36Z</time>
      </trkpt>
      <trkpt lat="42.720995" lon="1.607303">
        <ele>2062.6</ele>
        <time>2013-04-10T09:33:44Z</time>
      </trkpt>
      <trkpt lat="42.720953" lon="1.607185">
        <ele>2062.2</ele>
        <time>2013-04-10T09:33:52Z</time>
      </trkpt>
      <trkpt lat="42.720918" lon="1.607055">
        <ele>2061.2</ele>
        <time>2013-04-10T09:34:00Z</time>
      </trkpt>
      <trkpt lat="42.720872" lon="1.606937">
        <ele>2060.2</ele>
        <time>2013-04-10T09:34:09Z</time>
      </trkpt>
      <trkpt lat="42.720822" lon="1.606840">
        <ele>2059.8</ele>
        <time>2013-04-10T09:34:18Z</time>
      </trkpt>
      <trkpt lat="42.720787" lon="1.606728">
        <ele>2059.3</ele>
        <time>2013-04-10T09:34:27Z</time>
      </trkpt>
      <trkpt lat="42.720749" lon="1.606620">
        <ele>2058.8</ele>
        <time>2013-04-10T09:34:36Z</time>
      </trkpt>
      <trkpt lat="42.720720" lon="1.606496">
        <ele>2057.4</ele>
        <time>2013-04-10T09:34:47Z</time>
      </trkpt>
      <trkpt lat="42.720667" lon="1.606384">
        <ele>2056.4</ele>
        <time>2013-04-10T09:34:56Z</time>
      </trkpt>
      <trkpt lat="42.720622" lon="1.606265">
        <ele>2055.9</ele>
        <time>2013-04-10T09:35:05Z</time>
      </trkpt>
      <trkpt lat="42.720578" lon="1.606157">
        <ele>2054.5</ele>
        <time>2013-04-10T09:35:14Z</time>
      </trkpt>
      <trkpt lat="42.720541" lon="1.606065">
        <ele>2054.0</ele>
        <time>2013-04-10T09:35:22Z</time>
      </trkpt>
      <trkpt lat="42.720519" lon="1.605921">
        <ele>2052.6</ele>
        <time>2013-04-10T09:35:31Z</time>
      </trkpt>
      <trkpt lat="42.720502" lon="1.605787">
        <ele>2051.1</ele>
        <time>2013-04-10T09:35:39Z</time>
      </trkpt>
      <trkpt lat="42.720494" lon="1.605670">
        <ele>2050.1</ele>
        <time>2013-04-10T09:35:47Z</time>
      </trkpt>
      <trkpt lat="42.720464" lon="1.605558">
        <ele>2049.7</ele>
        <time>2013-04-10T09:35:55Z</time>
      </trkpt>
      <trkpt lat="42.720422" lon="1.605442">
        <ele>2049.2</ele>
        <time>2013-04-10T09:36:03Z</time>
      </trkpt>
      <trkpt lat="42.720387" lon="1.605324">
        <ele>2048.7</ele>
        <time>2013-04-10T09:36:11Z</time>
      </trkpt>
      <trkpt lat="42.720359" lon="1.605201">
        <ele>2047.3</ele>
        <time>2013-04-10T09:36:19Z</time>
      </trkpt>
      <trkpt lat="42.720333" lon="1.605063">
        <ele>2047.3</ele>
        <time>2013-04-10T09:36:27Z</time>
      </trkpt>
      <trkpt lat="42.720306" lon="1.604928">
        <ele>2045.3</ele>
        <time>2013-04-10T09:36:35Z</time>
      </trkpt>
      <trkpt lat="42.720270" lon="1.604799">
        <ele>2045.3</ele>
        <time>2013-04-10T09:36:43Z</time>
      </trkpt>
      <trkpt lat="42.720234" lon="1.604680">
        <ele>2044.4</ele>
        <time>2013-04-10T09:36:50Z</time>
      </trkpt>
      <trkpt lat="42.720186" lon="1.604568">
        <ele>2043.9</ele>
        <time>2013-04-10T09:36:58Z</time>
      </trkpt>
      <trkpt lat="42.720147" lon="1.604447">
        <ele>2042.9</ele>
        <time>2013-04-10T09:37:06Z</time>
      </trkpt>
      <trkpt lat="42.720128" lon="1.604315">
        <ele>2041.5</ele>
        <time>2013-04-10T09:37:14Z</time>
      </trkpt>
      <trkpt lat="42.720101" lon="1.604186">
        <ele>2041.0</ele>
        <time>2013-04-10T09:37:22Z</time>
      </trkpt>
      <trkpt lat="42.720090" lon="1.604054">
        <ele>2040.1</ele>
        <time>2013-04-10T09:37:30Z</time>
      </trkpt>
      <trkpt lat="42.720060" lon="1.603992">
        <ele>2039.6</ele>
        <time>2013-04-10T09:38:20Z</time>
      </trkpt>
      <trkpt lat="42.720047" lon="1.603851">
        <ele>2039.1</ele>
        <time>2013-04-10T09:38:28Z</time>
      </trkpt>
      <trkpt lat="42.720030" lon="1.603711">
        <ele>2037.7</ele>
        <time>2013-04-10T09:38:36Z</time>
      </trkpt>
      <trkpt lat="42.720027" lon="1.603572">
        <ele>2037.2</ele>
        <time>2013-04-10T09:38:45Z</time>
      </trkpt>
      <trkpt lat="42.720018" lon="1.603474">
        <ele>2036.2</ele>
        <time>2013-04-10T09:39:29Z</time>
      </trkpt>
      <trkpt lat="42.720005" lon="1.603342">
        <ele>2035.7</ele>
        <time>2013-04-10T09:39:38Z</time>
      </trkpt>
      <trkpt lat="42.719987" lon="1.603218">
        <ele>2035.7</ele>
        <time>2013-04-10T09:39:48Z</time>
      </trkpt>
      <trkpt lat="42.719969" lon="1.603088">
        <ele>2035.2</ele>
        <time>2013-04-10T09:39:58Z</time>
      </trkpt>
      <trkpt lat="42.719991" lon="1.602994">
        <ele>2034.8</ele>
        <time>2013-04-10T09:44:23Z</time>
      </trkpt>
      <trkpt lat="42.719965" lon="1.602889">
        <ele>2034.8</ele>
        <time>2013-04-10T09:44:40Z</time>
      </trkpt>
      <trkpt lat="42.719968" lon="1.602749">
        <ele>2033.8</ele>
        <time>2013-04-10T09:44:49Z</time>
      </trkpt>
      <trkpt lat="42.719958" lon="1.602619">
        <ele>2033.8</ele>
        <time>2013-04-10T09:44:57Z</time>
      </trkpt>
      <trkpt lat="42.719950" lon="1.602492">
        <ele>2032.8</ele>
        <time>2013-04-10T09:45:06Z</time>
      </trkpt>
      <trkpt lat="42.719932" lon="1.602362">
        <ele>2031.9</ele>
        <time>2013-04-10T09:45:15Z</time>
      </trkpt>
      <trkpt lat="42.719919" lon="1.602261">
        <ele>2031.9</ele>
        <time>2013-04-10T09:45:24Z</time>
      </trkpt>
      <trkpt lat="42.719901" lon="1.602135">
        <ele>2031.4</ele>
        <time>2013-04-10T09:45:32Z</time>
      </trkpt>
      <trkpt lat="42.719889" lon="1.602011">
        <ele>2030.9</ele>
        <time>2013-04-10T09:45:40Z</time>
      </trkpt>
      <trkpt lat="42.719876" lon="1.601884">
        <ele>2030.0</ele>
        <time>2013-04-10T09:45:48Z</time>
      </trkpt>
      <trkpt lat="42.719868" lon="1.601765">
        <ele>2030.0</ele>
        <time>2013-04-10T09:45:56Z</time>
      </trkpt>
      <trkpt lat="42.719850" lon="1.601639">
        <ele>2030.9</ele>
        <time>2013-04-10T09:46:05Z</time>
      </trkpt>
      <trkpt lat="42.719839" lon="1.601510">
        <ele>2031.4</ele>
        <time>2013-04-10T09:46:14Z</time>
      </trkpt>
      <trkpt lat="42.719827" lon="1.601365">
        <ele>2031.4</ele>
        <time>2013-04-10T09:46:23Z</time>
      </trkpt>
      <trkpt lat="42.719817" lon="1.601231">
        <ele>2031.4</ele>
        <time>2013-04-10T09:46:31Z</time>
      </trkpt>
      <trkpt lat="42.719793" lon="1.601092">
        <ele>2031.4</ele>
        <time>2013-04-10T09:46:40Z</time>
      </trkpt>
      <trkpt lat="42.719795" lon="1.600972">
        <ele>2032.4</ele>
        <time>2013-04-10T09:46:56Z</time>
      </trkpt>
      <trkpt lat="42.719784" lon="1.600998">
        <ele>2032.8</ele>
        <time>2013-04-10T09:55:09Z</time>
      </trkpt>
      <trkpt lat="42.719828" lon="1.600965">
        <ele>2033.8</ele>
        <time>2013-04-10T09:58:47Z</time>
      </trkpt>
      <trkpt lat="42.719846" lon="1.600844">
        <ele>2035.2</ele>
        <time>2013-04-10T09:59:01Z</time>
      </trkpt>
      <trkpt lat="42.719871" lon="1.600727">
        <ele>2036.2</ele>
        <time>2013-04-10T09:59:13Z</time>
      </trkpt>
      <trkpt lat="42.719887" lon="1.600616">
        <ele>2037.2</ele>
        <time>2013-04-10T09:59:24Z</time>
      </trkpt>
      <trkpt lat="42.719911" lon="1.600484">
        <ele>2037.7</ele>
        <time>2013-04-10T09:59:36Z</time>
      </trkpt>
      <trkpt lat="42.719925" lon="1.600356">
        <ele>2038.1</ele>
        <time>2013-04-10T09:59:47Z</time>
      </trkpt>
      <trkpt lat="42.719946" lon="1.600235">
        <ele>2039.6</ele>
        <time>2013-04-10T09:59:58Z</time>
      </trkpt>
      <trkpt lat="42.719946" lon="1.600106">
        <ele>2040.5</ele>
        <time>2013-04-10T10:00:09Z</time>
      </trkpt>
      <trkpt lat="42.719954" lon="1.599977">
        <ele>2042.0</ele>
        <time>2013-04-10T10:00:19Z</time>
      </trkpt>
      <trkpt lat="42.719962" lon="1.599855">
        <ele>2042.5</ele>
        <time>2013-04-10T10:00:30Z</time>
      </trkpt>
      <trkpt lat="42.719965" lon="1.599711">
        <ele>2042.9</ele>
        <time>2013-04-10T10:00:41Z</time>
      </trkpt>
      <trkpt lat="42.719962" lon="1.599579">
        <ele>2043.4</ele>
        <time>2013-04-10T10:00:51Z</time>
      </trkpt>
      <trkpt lat="42.719964" lon="1.599451">
        <ele>2044.4</ele>
        <time>2013-04-10T10:01:02Z</time>
      </trkpt>
      <trkpt lat="42.719972" lon="1.599295">
        <ele>2045.8</ele>
        <time>2013-04-10T10:01:15Z</time>
      </trkpt>
      <trkpt lat="42.719964" lon="1.599182">
        <ele>2047.8</ele>
        <time>2013-04-10T10:01:29Z</time>
      </trkpt>
      <trkpt lat="42.719965" lon="1.599055">
        <ele>2048.7</ele>
        <time>2013-04-10T10:01:44Z</time>
      </trkpt>
      <trkpt lat="42.719973" lon="1.598919">
        <ele>2051.6</ele>
        <time>2013-04-10T10:02:00Z</time>
      </trkpt>
      <trkpt lat="42.719981" lon="1.598793">
        <ele>2054.0</ele>
        <time>2013-04-10T10:02:15Z</time>
      </trkpt>
      <trkpt lat="42.719984" lon="1.598658">
        <ele>2056.4</ele>
        <time>2013-04-10T10:02:31Z</time>
      </trkpt>
      <trkpt lat="42.720002" lon="1.598560">
        <ele>2058.3</ele>
        <time>2013-04-10T10:02:48Z</time>
      </trkpt>
      <trkpt lat="42.720004" lon="1.598414">
        <ele>2060.7</ele>
        <time>2013-04-10T10:03:07Z</time>
      </trkpt>
      <trkpt lat="42.720009" lon="1.598279">
        <ele>2064.1</ele>
        <time>2013-04-10T10:03:24Z</time>
      </trkpt>
      <trkpt lat="42.720019" lon="1.598138">
        <ele>2066.0</ele>
        <time>2013-04-10T10:03:44Z</time>
      </trkpt>
      <trkpt lat="42.720011" lon="1.598036">
        <ele>2068.4</ele>
        <time>2013-04-10T10:04:03Z</time>
      </trkpt>
      <trkpt lat="42.720011" lon="1.597930">
        <ele>2071.3</ele>
        <time>2013-04-10T10:04:21Z</time>
      </trkpt>
      <trkpt lat="42.720032" lon="1.597813">
        <ele>2074.7</ele>
        <time>2013-04-10T10:04:40Z</time>
      </trkpt>
      <trkpt lat="42.720021" lon="1.597703">
        <ele>2079.0</ele>
        <time>2013-04-10T10:05:04Z</time>
      </trkpt>
      <trkpt lat="42.719993" lon="1.597591">
        <ele>2083.3</ele>
        <time>2013-04-10T10:05:30Z</time>
      </trkpt>
      <trkpt lat="42.720003" lon="1.597491">
        <ele>2088.6</ele>
        <time>2013-04-10T10:06:04Z</time>
      </trkpt>
      <trkpt lat="42.720013" lon="1.597333">
        <ele>2094.4</ele>
        <time>2013-04-10T10:06:43Z</time>
      </trkpt>
      <trkpt lat="42.720043" lon="1.597250">
        <ele>2099.2</ele>
        <time>2013-04-10T10:07:45Z</time>
      </trkpt>
      <trkpt lat="42.720024" lon="1.597138">
        <ele>2102.1</ele>
        <time>2013-04-10T10:08:03Z</time>
      </trkpt>
      <trkpt lat="42.720014" lon="1.597042">
        <ele>2104.9</ele>
        <time>2013-04-10T10:08:22Z</time>
      </trkpt>
      <trkpt lat="42.719998" lon="1.596916">
        <ele>2107.4</ele>
        <time>2013-04-10T10:08:45Z</time>
      </trkpt>
      <trkpt lat="42.719970" lon="1.596806">
        <ele>2109.8</ele>
        <time>2013-04-10T10:09:02Z</time>
      </trkpt>
      <trkpt lat="42.719933" lon="1.596703">
        <ele>2111.2</ele>
        <time>2013-04-10T10:09:17Z</time>
      </trkpt>
      <trkpt lat="42.719882" lon="1.596586">
        <ele>2112.1</ele>
        <time>2013-04-10T10:09:29Z</time>
      </trkpt>
      <trkpt lat="42.719839" lon="1.596493">
        <ele>2113.1</ele>
        <time>2013-04-10T10:09:42Z</time>
      </trkpt>
      <trkpt lat="42.719785" lon="1.596380">
        <ele>2113.6</ele>
        <time>2013-04-10T10:09:55Z</time>
      </trkpt>
      <trkpt lat="42.719741" lon="1.596279">
        <ele>2114.1</ele>
        <time>2013-04-10T10:10:07Z</time>
      </trkpt>
      <trkpt lat="42.719691" lon="1.596179">
        <ele>2115.0</ele>
        <time>2013-04-10T10:10:19Z</time>
      </trkpt>
      <trkpt lat="42.719647" lon="1.596083">
        <ele>2115.5</ele>
        <time>2013-04-10T10:10:31Z</time>
      </trkpt>
      <trkpt lat="42.719595" lon="1.595979">
        <ele>2116.5</ele>
        <time>2013-04-10T10:10:42Z</time>
      </trkpt>
      <trkpt lat="42.719532" lon="1.595874">
        <ele>2117.4</ele>
        <time>2013-04-10T10:10:54Z</time>
      </trkpt>
      <trkpt lat="42.719495" lon="1.595776">
        <ele>2117.9</ele>
        <time>2013-04-10T10:11:05Z</time>
      </trkpt>
      <trkpt lat="42.719468" lon="1.595679">
        <ele>2118.4</ele>
        <time>2013-04-10T10:11:17Z</time>
      </trkpt>
      <trkpt lat="42.719512" lon="1.595571">
        <ele>2122.2</ele>
        <time>2013-04-10T10:11:38Z</time>
      </trkpt>
      <trkpt lat="42.719600" lon="1.595540">
        <ele>2129.5</ele>
        <time>2013-04-10T10:12:18Z</time>
      </trkpt>
      <trkpt lat="42.719645" lon="1.595447">
        <ele>2132.8</ele>
        <time>2013-04-10T10:12:44Z</time>
      </trkpt>
      <trkpt lat="42.719747" lon="1.595484">
        <ele>2136.7</ele>
        <time>2013-04-10T10:13:15Z</time>
      </trkpt>
      <trkpt lat="42.719788" lon="1.595414">
        <ele>2141.0</ele>
        <time>2013-04-10T10:13:54Z</time>
      </trkpt>
      <trkpt lat="42.719844" lon="1.595390">
        <ele>2145.3</ele>
        <time>2013-04-10T10:14:45Z</time>
      </trkpt>
      <trkpt lat="42.719891" lon="1.595309">
        <ele>2150.1</ele>
        <time>2013-04-10T10:15:09Z</time>
      </trkpt>
      <trkpt lat="42.719973" lon="1.595301">
        <ele>2154.0</ele>
        <time>2013-04-10T10:15:33Z</time>
      </trkpt>
      <trkpt lat="42.720049" lon="1.595292">
        <ele>2157.3</ele>
        <time>2013-04-10T10:15:56Z</time>
      </trkpt>
      <trkpt lat="42.720135" lon="1.595274">
        <ele>2159.7</ele>
        <time>2013-04-10T10:16:15Z</time>
      </trkpt>
      <trkpt lat="42.720202" lon="1.595225">
        <ele>2163.1</ele>
        <time>2013-04-10T10:16:38Z</time>
      </trkpt>
      <trkpt lat="42.720241" lon="1.595138">
        <ele>2166.5</ele>
        <time>2013-04-10T10:17:09Z</time>
      </trkpt>
      <trkpt lat="42.720291" lon="1.595103">
        <ele>2167.9</ele>
        <time>2013-04-10T10:17:53Z</time>
      </trkpt>
      <trkpt lat="42.720312" lon="1.594987">
        <ele>2170.8</ele>
        <time>2013-04-10T10:18:39Z</time>
      </trkpt>
      <trkpt lat="42.720279" lon="1.594859">
        <ele>2172.7</ele>
        <time>2013-04-10T10:19:05Z</time>
      </trkpt>
      <trkpt lat="42.720265" lon="1.594765">
        <ele>2174.2</ele>
        <time>2013-04-10T10:19:19Z</time>
      </trkpt>
      <trkpt lat="42.720230" lon="1.594652">
        <ele>2176.6</ele>
        <time>2013-04-10T10:19:32Z</time>
      </trkpt>
      <trkpt lat="42.720198" lon="1.594550">
        <ele>2177.0</ele>
        <time>2013-04-10T10:19:44Z</time>
      </trkpt>
      <trkpt lat="42.720195" lon="1.594422">
        <ele>2178.0</ele>
        <time>2013-04-10T10:19:56Z</time>
      </trkpt>
      <trkpt lat="42.720172" lon="1.594302">
        <ele>2179.0</ele>
        <time>2013-04-10T10:20:08Z</time>
      </trkpt>
      <trkpt lat="42.720142" lon="1.594171">
        <ele>2179.4</ele>
        <time>2013-04-10T10:20:22Z</time>
      </trkpt>
      <trkpt lat="42.720164" lon="1.594107">
        <ele>2178.5</ele>
        <time>2013-04-10T10:24:08Z</time>
      </trkpt>
      <trkpt lat="42.720123" lon="1.594001">
        <ele>2182.3</ele>
        <time>2013-04-10T10:24:19Z</time>
      </trkpt>
      <trkpt lat="42.720093" lon="1.593894">
        <ele>2177.5</ele>
        <time>2013-04-10T10:24:28Z</time>
        <name>Cap de la Serre de font Cendrasse</name>
      </trkpt>
      <trkpt lat="42.720065" lon="1.593782">
        <ele>2178.0</ele>
        <time>2013-04-10T10:24:36Z</time>
      </trkpt>
      <trkpt lat="42.720030" lon="1.593666">
        <ele>2176.6</ele>
        <time>2013-04-10T10:24:46Z</time>
      </trkpt>
      <trkpt lat="42.720004" lon="1.593544">
        <ele>2173.2</ele>
        <time>2013-04-10T10:24:56Z</time>
      </trkpt>
      <trkpt lat="42.719982" lon="1.593421">
        <ele>2174.2</ele>
        <time>2013-04-10T10:25:06Z</time>
      </trkpt>
      <trkpt lat="42.719946" lon="1.593296">
        <ele>2173.2</ele>
        <time>2013-04-10T10:25:16Z</time>
      </trkpt>
      <trkpt lat="42.719900" lon="1.593175">
        <ele>2170.3</ele>
        <time>2013-04-10T10:25:44Z</time>
      </trkpt>
      <trkpt lat="42.719925" lon="1.593043">
        <ele>2168.9</ele>
        <time>2013-04-10T10:26:01Z</time>
      </trkpt>
      <trkpt lat="42.719955" lon="1.592923">
        <ele>2167.4</ele>
        <time>2013-04-10T10:26:10Z</time>
      </trkpt>
      <trkpt lat="42.719965" lon="1.592779">
        <ele>2163.6</ele>
        <time>2013-04-10T10:26:20Z</time>
      </trkpt>
      <trkpt lat="42.719947" lon="1.592663">
        <ele>2162.6</ele>
        <time>2013-04-10T10:26:28Z</time>
      </trkpt>
      <trkpt lat="42.719916" lon="1.592548">
        <ele>2158.3</ele>
        <time>2013-04-10T10:26:36Z</time>
      </trkpt>
      <trkpt lat="42.719905" lon="1.592408">
        <ele>2158.8</ele>
        <time>2013-04-10T10:26:45Z</time>
      </trkpt>
      <trkpt lat="42.719929" lon="1.592290">
        <ele>2157.8</ele>
        <time>2013-04-10T10:26:51Z</time>
      </trkpt>
      <trkpt lat="42.719952" lon="1.592175">
        <ele>2155.4</ele>
        <time>2013-04-10T10:26:57Z</time>
      </trkpt>
      <trkpt lat="42.719945" lon="1.592054">
        <ele>2152.5</ele>
        <time>2013-04-10T10:27:05Z</time>
      </trkpt>
      <trkpt lat="42.719932" lon="1.591950">
        <ele>2150.1</ele>
        <time>2013-04-10T10:27:12Z</time>
      </trkpt>
      <trkpt lat="42.719874" lon="1.591884">
        <ele>2148.2</ele>
        <time>2013-04-10T10:27:20Z</time>
      </trkpt>
      <trkpt lat="42.719811" lon="1.591787">
        <ele>2145.8</ele>
        <time>2013-04-10T10:27:30Z</time>
      </trkpt>
      <trkpt lat="42.719773" lon="1.591666">
        <ele>2142.9</ele>
        <time>2013-04-10T10:27:41Z</time>
      </trkpt>
      <trkpt lat="42.719725" lon="1.591542">
        <ele>2139.1</ele>
        <time>2013-04-10T10:28:44Z</time>
      </trkpt>
      <trkpt lat="42.719737" lon="1.591540">
        <ele>2138.1</ele>
        <time>2013-04-10T10:33:15Z</time>
      </trkpt>
      <trkpt lat="42.719677" lon="1.591410">
        <ele>2134.7</ele>
        <time>2013-04-10T10:33:30Z</time>
      </trkpt>
      <trkpt lat="42.719621" lon="1.591322">
        <ele>2132.8</ele>
        <time>2013-04-10T10:33:44Z</time>
      </trkpt>
      <trkpt lat="42.719539" lon="1.591259">
        <ele>2129.9</ele>
        <time>2013-04-10T10:33:54Z</time>
      </trkpt>
      <trkpt lat="42.719482" lon="1.591185">
        <ele>2127.1</ele>
        <time>2013-04-10T10:34:03Z</time>
      </trkpt>
      <trkpt lat="42.719433" lon="1.591140">
        <ele>2124.6</ele>
        <time>2013-04-10T10:34:12Z</time>
      </trkpt>
      <trkpt lat="42.719439" lon="1.591089">
        <ele>2123.7</ele>
        <time>2013-04-10T10:38:22Z</time>
      </trkpt>
      <trkpt lat="42.719412" lon="1.591026">
        <ele>2121.3</ele>
        <time>2013-04-10T10:38:47Z</time>
      </trkpt>
      <trkpt lat="42.719295" lon="1.590979">
        <ele>2119.4</ele>
        <time>2013-04-10T10:38:58Z</time>
      </trkpt>
      <trkpt lat="42.719215" lon="1.590913">
        <ele>2118.4</ele>
        <time>2013-04-10T10:39:10Z</time>
      </trkpt>
      <trkpt lat="42.719129" lon="1.590837">
        <ele>2117.0</ele>
        <time>2013-04-10T10:39:21Z</time>
      </trkpt>
      <trkpt lat="42.719035" lon="1.590795">
        <ele>2117.0</ele>
        <time>2013-04-10T10:39:30Z</time>
      </trkpt>
      <trkpt lat="42.718961" lon="1.590722">
        <ele>2116.5</ele>
        <time>2013-04-10T10:39:40Z</time>
      </trkpt>
      <trkpt lat="42.718869" lon="1.590678">
        <ele>2117.0</ele>
        <time>2013-04-10T10:39:50Z</time>
      </trkpt>
      <trkpt lat="42.718775" lon="1.590649">
        <ele>2117.4</ele>
        <time>2013-04-10T10:40:00Z</time>
      </trkpt>
      <trkpt lat="42.718695" lon="1.590571">
        <ele>2118.4</ele>
        <time>2013-04-10T10:40:11Z</time>
      </trkpt>
      <trkpt lat="42.718623" lon="1.590498">
        <ele>2118.9</ele>
        <time>2013-04-10T10:40:21Z</time>
      </trkpt>
      <trkpt lat="42.718530" lon="1.590460">
        <ele>2119.4</ele>
        <time>2013-04-10T10:40:32Z</time>
      </trkpt>
      <trkpt lat="42.718433" lon="1.590419">
        <ele>2120.3</ele>
        <time>2013-04-10T10:40:42Z</time>
      </trkpt>
      <trkpt lat="42.718348" lon="1.590362">
        <ele>2120.8</ele>
        <time>2013-04-10T10:40:51Z</time>
      </trkpt>
      <trkpt lat="42.718264" lon="1.590283">
        <ele>2120.8</ele>
        <time>2013-04-10T10:41:00Z</time>
      </trkpt>
      <trkpt lat="42.718169" lon="1.590232">
        <ele>2120.8</ele>
        <time>2013-04-10T10:41:11Z</time>
      </trkpt>
      <trkpt lat="42.718085" lon="1.590178">
        <ele>2120.8</ele>
        <time>2013-04-10T10:41:21Z</time>
      </trkpt>
      <trkpt lat="42.717999" lon="1.590114">
        <ele>2121.3</ele>
        <time>2013-04-10T10:41:32Z</time>
      </trkpt>
      <trkpt lat="42.717917" lon="1.590051">
        <ele>2121.8</ele>
        <time>2013-04-10T10:41:43Z</time>
      </trkpt>
      <trkpt lat="42.717839" lon="1.589973">
        <ele>2122.2</ele>
        <time>2013-04-10T10:41:54Z</time>
      </trkpt>
      <trkpt lat="42.717758" lon="1.589878">
        <ele>2122.7</ele>
        <time>2013-04-10T10:42:05Z</time>
      </trkpt>
      <trkpt lat="42.717669" lon="1.589812">
        <ele>2122.2</ele>
        <time>2013-04-10T10:42:17Z</time>
      </trkpt>
      <trkpt lat="42.717608" lon="1.589774">
        <ele>2123.7</ele>
        <time>2013-04-10T10:42:28Z</time>
      </trkpt>
      <trkpt lat="42.717546" lon="1.589705">
        <ele>2124.2</ele>
        <time>2013-04-10T10:42:39Z</time>
      </trkpt>
      <trkpt lat="42.717437" lon="1.589645">
        <ele>2124.2</ele>
        <time>2013-04-10T10:42:51Z</time>
      </trkpt>
      <trkpt lat="42.717372" lon="1.589556">
        <ele>2125.1</ele>
        <time>2013-04-10T10:43:01Z</time>
      </trkpt>
      <trkpt lat="42.717314" lon="1.589448">
        <ele>2125.6</ele>
        <time>2013-04-10T10:43:13Z</time>
      </trkpt>
      <trkpt lat="42.717260" lon="1.589346">
        <ele>2125.6</ele>
        <time>2013-04-10T10:43:24Z</time>
      </trkpt>
      <trkpt lat="42.717184" lon="1.589267">
        <ele>2126.1</ele>
        <time>2013-04-10T10:43:34Z</time>
      </trkpt>
      <trkpt lat="42.717109" lon="1.589175">
        <ele>2126.6</ele>
        <time>2013-04-10T10:43:44Z</time>
      </trkpt>
      <trkpt lat="42.717051" lon="1.589079">
        <ele>2127.5</ele>
        <time>2013-04-10T10:43:54Z</time>
      </trkpt>
      <trkpt lat="42.716987" lon="1.588990">
        <ele>2127.5</ele>
        <time>2013-04-10T10:44:04Z</time>
      </trkpt>
      <trkpt lat="42.716927" lon="1.588892">
        <ele>2128.0</ele>
        <time>2013-04-10T10:44:14Z</time>
      </trkpt>
      <trkpt lat="42.716862" lon="1.588806">
        <ele>2129.0</ele>
        <time>2013-04-10T10:44:25Z</time>
      </trkpt>
      <trkpt lat="42.716818" lon="1.588706">
        <ele>2129.5</ele>
        <time>2013-04-10T10:44:37Z</time>
      </trkpt>
      <trkpt lat="42.716757" lon="1.588606">
        <ele>2130.4</ele>
        <time>2013-04-10T10:44:49Z</time>
      </trkpt>
      <trkpt lat="42.716697" lon="1.588511">
        <ele>2132.3</ele>
        <time>2013-04-10T10:45:02Z</time>
      </trkpt>
      <trkpt lat="42.716647" lon="1.588401">
        <ele>2133.3</ele>
        <time>2013-04-10T10:45:14Z</time>
      </trkpt>
      <trkpt lat="42.716601" lon="1.588290">
        <ele>2134.7</ele>
        <time>2013-04-10T10:45:28Z</time>
      </trkpt>
      <trkpt lat="42.716553" lon="1.588190">
        <ele>2136.2</ele>
        <time>2013-04-10T10:45:42Z</time>
      </trkpt>
      <trkpt lat="42.716505" lon="1.588079">
        <ele>2137.6</ele>
        <time>2013-04-10T10:45:57Z</time>
      </trkpt>
      <trkpt lat="42.716468" lon="1.587983">
        <ele>2139.6</ele>
        <time>2013-04-10T10:46:13Z</time>
      </trkpt>
      <trkpt lat="42.716418" lon="1.587882">
        <ele>2141.5</ele>
        <time>2013-04-10T10:46:30Z</time>
      </trkpt>
      <trkpt lat="42.716389" lon="1.587773">
        <ele>2143.4</ele>
        <time>2013-04-10T10:46:47Z</time>
      </trkpt>
      <trkpt lat="42.716338" lon="1.587680">
        <ele>2145.3</ele>
        <time>2013-04-10T10:47:02Z</time>
      </trkpt>
      <trkpt lat="42.716289" lon="1.587585">
        <ele>2147.7</ele>
        <time>2013-04-10T10:47:18Z</time>
      </trkpt>
      <trkpt lat="42.716244" lon="1.587486">
        <ele>2150.1</ele>
        <time>2013-04-10T10:47:34Z</time>
      </trkpt>
      <trkpt lat="42.716201" lon="1.587402">
        <ele>2151.1</ele>
        <time>2013-04-10T10:47:50Z</time>
      </trkpt>
      <trkpt lat="42.716156" lon="1.587295">
        <ele>2153.5</ele>
        <time>2013-04-10T10:48:07Z</time>
      </trkpt>
      <trkpt lat="42.716097" lon="1.587192">
        <ele>2155.4</ele>
        <time>2013-04-10T10:48:21Z</time>
      </trkpt>
      <trkpt lat="42.716055" lon="1.587089">
        <ele>2157.3</ele>
        <time>2013-04-10T10:48:35Z</time>
      </trkpt>
      <trkpt lat="42.716018" lon="1.586974">
        <ele>2158.3</ele>
        <time>2013-04-10T10:48:49Z</time>
      </trkpt>
      <trkpt lat="42.715985" lon="1.586863">
        <ele>2159.7</ele>
        <time>2013-04-10T10:49:03Z</time>
      </trkpt>
      <trkpt lat="42.715955" lon="1.586746">
        <ele>2162.1</ele>
        <time>2013-04-10T10:49:18Z</time>
      </trkpt>
      <trkpt lat="42.715914" lon="1.586662">
        <ele>2163.6</ele>
        <time>2013-04-10T10:50:03Z</time>
      </trkpt>
      <trkpt lat="42.715852" lon="1.586558">
        <ele>2165.0</ele>
        <time>2013-04-10T10:50:19Z</time>
      </trkpt>
      <trkpt lat="42.715786" lon="1.586466">
        <ele>2166.9</ele>
        <time>2013-04-10T10:50:35Z</time>
      </trkpt>
      <trkpt lat="42.715723" lon="1.586372">
        <ele>2170.3</ele>
        <time>2013-04-10T10:50:52Z</time>
      </trkpt>
      <trkpt lat="42.715658" lon="1.586284">
        <ele>2172.7</ele>
        <time>2013-04-10T10:51:08Z</time>
      </trkpt>
      <trkpt lat="42.715603" lon="1.586169">
        <ele>2175.1</ele>
        <time>2013-04-10T10:51:25Z</time>
      </trkpt>
      <trkpt lat="42.715570" lon="1.586069">
        <ele>2177.5</ele>
        <time>2013-04-10T10:51:42Z</time>
      </trkpt>
      <trkpt lat="42.715492" lon="1.585996">
        <ele>2180.4</ele>
        <time>2013-04-10T10:51:59Z</time>
      </trkpt>
      <trkpt lat="42.715430" lon="1.585904">
        <ele>2184.7</ele>
        <time>2013-04-10T10:52:18Z</time>
      </trkpt>
      <trkpt lat="42.715365" lon="1.585830">
        <ele>2187.6</ele>
        <time>2013-04-10T10:52:40Z</time>
      </trkpt>
      <trkpt lat="42.715321" lon="1.585736">
        <ele>2191.0</ele>
        <time>2013-04-10T10:53:01Z</time>
      </trkpt>
      <trkpt lat="42.715248" lon="1.585654">
        <ele>2194.4</ele>
        <time>2013-04-10T10:53:18Z</time>
      </trkpt>
      <trkpt lat="42.715194" lon="1.585578">
        <ele>2197.2</ele>
        <time>2013-04-10T10:53:37Z</time>
      </trkpt>
      <trkpt lat="42.715116" lon="1.585523">
        <ele>2200.1</ele>
        <time>2013-04-10T10:53:58Z</time>
      </trkpt>
      <trkpt lat="42.715058" lon="1.585464">
        <ele>2203.0</ele>
        <time>2013-04-10T10:54:19Z</time>
      </trkpt>
      <trkpt lat="42.714988" lon="1.585408">
        <ele>2206.8</ele>
        <time>2013-04-10T10:54:41Z</time>
      </trkpt>
      <trkpt lat="42.714926" lon="1.585348">
        <ele>2210.2</ele>
        <time>2013-04-10T10:55:04Z</time>
      </trkpt>
      <trkpt lat="42.714866" lon="1.585320">
        <ele>2212.6</ele>
        <time>2013-04-10T10:55:25Z</time>
      </trkpt>
      <trkpt lat="42.714798" lon="1.585301">
        <ele>2216.0</ele>
        <time>2013-04-10T10:55:48Z</time>
      </trkpt>
      <trkpt lat="42.714697" lon="1.585308">
        <ele>2218.9</ele>
        <time>2013-04-10T10:56:12Z</time>
      </trkpt>
      <trkpt lat="42.714629" lon="1.585216">
        <ele>2222.7</ele>
        <time>2013-04-10T10:56:34Z</time>
      </trkpt>
      <trkpt lat="42.714552" lon="1.585166">
        <ele>2226.1</ele>
        <time>2013-04-10T10:56:56Z</time>
      </trkpt>
      <trkpt lat="42.714488" lon="1.585124">
        <ele>2228.9</ele>
        <time>2013-04-10T10:57:13Z</time>
      </trkpt>
      <trkpt lat="42.714443" lon="1.585028">
        <ele>2231.4</ele>
        <time>2013-04-10T10:57:37Z</time>
      </trkpt>
      <trkpt lat="42.714385" lon="1.584941">
        <ele>2236.6</ele>
        <time>2013-04-10T10:58:06Z</time>
      </trkpt>
      <trkpt lat="42.714350" lon="1.584870">
        <ele>2241.0</ele>
        <time>2013-04-10T10:58:30Z</time>
      </trkpt>
      <trkpt lat="42.714311" lon="1.584741">
        <ele>2245.3</ele>
        <time>2013-04-10T10:59:01Z</time>
      </trkpt>
      <trkpt lat="42.714222" lon="1.584713">
        <ele>2249.6</ele>
        <time>2013-04-10T10:59:30Z</time>
      </trkpt>
      <trkpt lat="42.714197" lon="1.584607">
        <ele>2253.5</ele>
        <time>2013-04-10T11:01:19Z</time>
      </trkpt>
      <trkpt lat="42.714176" lon="1.584534">
        <ele>2256.4</ele>
        <time>2013-04-10T11:01:45Z</time>
      </trkpt>
      <trkpt lat="42.714115" lon="1.584493">
        <ele>2261.2</ele>
        <time>2013-04-10T11:02:11Z</time>
      </trkpt>
      <trkpt lat="42.714077" lon="1.584402">
        <ele>2265.0</ele>
        <time>2013-04-10T11:02:40Z</time>
      </trkpt>
      <trkpt lat="42.713981" lon="1.584380">
        <ele>2268.9</ele>
        <time>2013-04-10T11:03:07Z</time>
      </trkpt>
      <trkpt lat="42.713896" lon="1.584358">
        <ele>2271.2</ele>
        <time>2013-04-10T11:03:43Z</time>
      </trkpt>
      <trkpt lat="42.713837" lon="1.584341">
        <ele>2272.7</ele>
        <time>2013-04-10T11:04:01Z</time>
      </trkpt>
      <trkpt lat="42.713752" lon="1.584290">
        <ele>2274.1</ele>
        <time>2013-04-10T11:04:17Z</time>
      </trkpt>
      <trkpt lat="42.713643" lon="1.584259">
        <ele>2275.6</ele>
        <time>2013-04-10T11:04:35Z</time>
      </trkpt>
      <trkpt lat="42.713534" lon="1.584165">
        <ele>2277.5</ele>
        <time>2013-04-10T11:04:54Z</time>
      </trkpt>
      <trkpt lat="42.713449" lon="1.584104">
        <ele>2278.9</ele>
        <time>2013-04-10T11:05:11Z</time>
      </trkpt>
      <trkpt lat="42.713386" lon="1.584000">
        <ele>2280.4</ele>
        <time>2013-04-10T11:05:26Z</time>
      </trkpt>
      <trkpt lat="42.713312" lon="1.583907">
        <ele>2281.4</ele>
        <time>2013-04-10T11:05:42Z</time>
      </trkpt>
      <trkpt lat="42.713245" lon="1.583828">
        <ele>2283.8</ele>
        <time>2013-04-10T11:06:01Z</time>
      </trkpt>
      <trkpt lat="42.713182" lon="1.583741">
        <ele>2285.7</ele>
        <time>2013-04-10T11:06:20Z</time>
      </trkpt>
      <trkpt lat="42.713111" lon="1.583673">
        <ele>2287.6</ele>
        <time>2013-04-10T11:06:38Z</time>
      </trkpt>
      <trkpt lat="42.713059" lon="1.583598">
        <ele>2290.0</ele>
        <time>2013-04-10T11:07:12Z</time>
      </trkpt>
      <trkpt lat="42.712988" lon="1.583538">
        <ele>2293.4</ele>
        <time>2013-04-10T11:07:27Z</time>
      </trkpt>
      <trkpt lat="42.712904" lon="1.583499">
        <ele>2292.9</ele>
        <time>2013-04-10T11:07:40Z</time>
      </trkpt>
      <trkpt lat="42.712810" lon="1.583474">
        <ele>2292.9</ele>
        <time>2013-04-10T11:07:52Z</time>
      </trkpt>
      <trkpt lat="42.712726" lon="1.583463">
        <ele>2291.9</ele>
        <time>2013-04-10T11:08:02Z</time>
      </trkpt>
      <trkpt lat="42.712631" lon="1.583443">
        <ele>2291.4</ele>
        <time>2013-04-10T11:08:13Z</time>
      </trkpt>
      <trkpt lat="42.712531" lon="1.583427">
        <ele>2291.9</ele>
        <time>2013-04-10T11:08:25Z</time>
      </trkpt>
      <trkpt lat="42.712437" lon="1.583415">
        <ele>2294.3</ele>
        <time>2013-04-10T11:08:41Z</time>
      </trkpt>
      <trkpt lat="42.712359" lon="1.583355">
        <ele>2297.2</ele>
        <time>2013-04-10T11:09:20Z</time>
      </trkpt>
      <trkpt lat="42.712273" lon="1.583370">
        <ele>2298.6</ele>
        <time>2013-04-10T11:09:38Z</time>
      </trkpt>
      <trkpt lat="42.712209" lon="1.583378">
        <ele>2300.1</ele>
        <time>2013-04-10T11:11:55Z</time>
      </trkpt>
      <trkpt lat="42.712099" lon="1.583388">
        <ele>2301.1</ele>
        <time>2013-04-10T11:12:10Z</time>
      </trkpt>
      <trkpt lat="42.712015" lon="1.583423">
        <ele>2300.1</ele>
        <time>2013-04-10T11:12:44Z</time>
      </trkpt>
      <trkpt lat="42.711942" lon="1.583460">
        <ele>2300.6</ele>
        <time>2013-04-10T11:13:02Z</time>
      </trkpt>
      <trkpt lat="42.711837" lon="1.583429">
        <ele>2301.1</ele>
        <time>2013-04-10T11:13:55Z</time>
      </trkpt>
      <trkpt lat="42.711747" lon="1.583414">
        <ele>2303.9</ele>
        <time>2013-04-10T11:14:19Z</time>
      </trkpt>
      <trkpt lat="42.711672" lon="1.583456">
        <ele>2304.4</ele>
        <time>2013-04-10T11:14:36Z</time>
      </trkpt>
      <trkpt lat="42.711583" lon="1.583409">
        <ele>2306.3</ele>
        <time>2013-04-10T11:15:17Z</time>
      </trkpt>
      <trkpt lat="42.711502" lon="1.583363">
        <ele>2304.4</ele>
        <time>2013-04-10T11:15:28Z</time>
      </trkpt>
      <trkpt lat="42.711427" lon="1.583400">
        <ele>2300.6</ele>
        <time>2013-04-10T11:15:49Z</time>
      </trkpt>
      <trkpt lat="42.711376" lon="1.583460">
        <ele>2299.1</ele>
        <time>2013-04-10T11:16:13Z</time>
      </trkpt>
      <trkpt lat="42.711282" lon="1.583496">
        <ele>2298.2</ele>
        <time>2013-04-10T11:16:26Z</time>
      </trkpt>
      <trkpt lat="42.711192" lon="1.583509">
        <ele>2298.2</ele>
        <time>2013-04-10T11:16:40Z</time>
      </trkpt>
      <trkpt lat="42.711070" lon="1.583501">
        <ele>2299.1</ele>
        <time>2013-04-10T11:17:00Z</time>
      </trkpt>
      <trkpt lat="42.710966" lon="1.583536">
        <ele>2301.1</ele>
        <time>2013-04-10T11:17:28Z</time>
      </trkpt>
      <trkpt lat="42.710901" lon="1.583572">
        <ele>2304.4</ele>
        <time>2013-04-10T11:17:55Z</time>
      </trkpt>
      <trkpt lat="42.710814" lon="1.583631">
        <ele>2308.7</ele>
        <time>2013-04-10T11:18:25Z</time>
      </trkpt>
      <trkpt lat="42.710754" lon="1.583683">
        <ele>2312.6</ele>
        <time>2013-04-10T11:18:48Z</time>
      </trkpt>
      <trkpt lat="42.710681" lon="1.583652">
        <ele>2312.6</ele>
        <time>2013-04-10T11:22:04Z</time>
      </trkpt>
      <trkpt lat="42.710602" lon="1.583664">
        <ele>2309.2</ele>
        <time>2013-04-10T11:23:06Z</time>
      </trkpt>
      <trkpt lat="42.710534" lon="1.583736">
        <ele>2307.3</ele>
        <time>2013-04-10T11:24:07Z</time>
      </trkpt>
      <trkpt lat="42.710462" lon="1.583745">
        <ele>2304.4</ele>
        <time>2013-04-10T11:24:18Z</time>
      </trkpt>
      <trkpt lat="42.710396" lon="1.583779">
        <ele>2300.6</ele>
        <time>2013-04-10T11:24:27Z</time>
      </trkpt>
      <trkpt lat="42.710319" lon="1.583776">
        <ele>2297.7</ele>
        <time>2013-04-10T11:24:36Z</time>
      </trkpt>
      <trkpt lat="42.710222" lon="1.583752">
        <ele>2297.7</ele>
        <time>2013-04-10T11:24:45Z</time>
      </trkpt>
      <trkpt lat="42.710118" lon="1.583767">
        <ele>2296.7</ele>
        <time>2013-04-10T11:24:55Z</time>
      </trkpt>
      <trkpt lat="42.710020" lon="1.583786">
        <ele>2294.8</ele>
        <time>2013-04-10T11:25:05Z</time>
      </trkpt>
      <trkpt lat="42.709924" lon="1.583817">
        <ele>2291.4</ele>
        <time>2013-04-10T11:25:14Z</time>
      </trkpt>
      <trkpt lat="42.709840" lon="1.583787">
        <ele>2287.1</ele>
        <time>2013-04-10T11:25:23Z</time>
      </trkpt>
      <trkpt lat="42.709741" lon="1.583782">
        <ele>2282.8</ele>
        <time>2013-04-10T11:25:32Z</time>
      </trkpt>
      <trkpt lat="42.709661" lon="1.583836">
        <ele>2278.9</ele>
        <time>2013-04-10T11:25:41Z</time>
      </trkpt>
      <trkpt lat="42.709561" lon="1.583899">
        <ele>2278.9</ele>
        <time>2013-04-10T11:25:52Z</time>
      </trkpt>
      <trkpt lat="42.709475" lon="1.583981">
        <ele>2278.5</ele>
        <time>2013-04-10T11:26:03Z</time>
      </trkpt>
      <trkpt lat="42.709369" lon="1.584043">
        <ele>2278.5</ele>
        <time>2013-04-10T11:26:56Z</time>
      </trkpt>
      <trkpt lat="42.709284" lon="1.584076">
        <ele>2278.5</ele>
        <time>2013-04-10T11:27:08Z</time>
      </trkpt>
      <trkpt lat="42.709199" lon="1.584117">
        <ele>2278.9</ele>
        <time>2013-04-10T11:27:49Z</time>
      </trkpt>
      <trkpt lat="42.709119" lon="1.584163">
        <ele>2279.9</ele>
        <time>2013-04-10T11:28:00Z</time>
      </trkpt>
      <trkpt lat="42.709107" lon="1.584300">
        <ele>2280.9</ele>
        <time>2013-04-10T11:28:10Z</time>
      </trkpt>
      <trkpt lat="42.709021" lon="1.584350">
        <ele>2281.8</ele>
        <time>2013-04-10T11:28:19Z</time>
        <name>Pas des Egues</name>
      </trkpt>
      <trkpt lat="42.708929" lon="1.584395">
        <ele>2281.8</ele>
        <time>2013-04-10T11:28:29Z</time>
      </trkpt>
      <trkpt lat="42.708861" lon="1.584429">
        <ele>2283.3</ele>
        <time>2013-04-10T11:28:41Z</time>
      </trkpt>
      <trkpt lat="42.708777" lon="1.584462">
        <ele>2284.2</ele>
        <time>2013-04-10T11:28:52Z</time>
      </trkpt>
      <trkpt lat="42.708711" lon="1.584483">
        <ele>2283.8</ele>
        <time>2013-04-10T11:29:02Z</time>
      </trkpt>
      <trkpt lat="42.708620" lon="1.584549">
        <ele>2282.8</ele>
        <time>2013-04-10T11:29:13Z</time>
      </trkpt>
      <trkpt lat="42.708489" lon="1.584634">
        <ele>2282.8</ele>
        <time>2013-04-10T11:29:31Z</time>
      </trkpt>
      <trkpt lat="42.708400" lon="1.584694">
        <ele>2281.4</ele>
        <time>2013-04-10T11:29:39Z</time>
      </trkpt>
      <trkpt lat="42.708305" lon="1.584762">
        <ele>2279.9</ele>
        <time>2013-04-10T11:29:48Z</time>
      </trkpt>
      <trkpt lat="42.708219" lon="1.584807">
        <ele>2278.5</ele>
        <time>2013-04-10T11:29:56Z</time>
      </trkpt>
      <trkpt lat="42.708165" lon="1.584846">
        <ele>2277.0</ele>
        <time>2013-04-10T11:31:04Z</time>
      </trkpt>
      <trkpt lat="42.708070" lon="1.584905">
        <ele>2273.7</ele>
        <time>2013-04-10T11:31:14Z</time>
      </trkpt>
      <trkpt lat="42.707983" lon="1.584970">
        <ele>2270.3</ele>
        <time>2013-04-10T11:31:24Z</time>
      </trkpt>
      <trkpt lat="42.707899" lon="1.585031">
        <ele>2267.9</ele>
        <time>2013-04-10T11:31:32Z</time>
      </trkpt>
      <trkpt lat="42.707823" lon="1.585089">
        <ele>2266.0</ele>
        <time>2013-04-10T11:31:39Z</time>
      </trkpt>
      <trkpt lat="42.707735" lon="1.585145">
        <ele>2263.6</ele>
        <time>2013-04-10T11:31:47Z</time>
      </trkpt>
      <trkpt lat="42.707654" lon="1.585210">
        <ele>2263.1</ele>
        <time>2013-04-10T11:31:55Z</time>
      </trkpt>
      <trkpt lat="42.707566" lon="1.585272">
        <ele>2261.6</ele>
        <time>2013-04-10T11:32:03Z</time>
      </trkpt>
      <trkpt lat="42.707473" lon="1.585316">
        <ele>2260.7</ele>
        <time>2013-04-10T11:32:11Z</time>
      </trkpt>
      <trkpt lat="42.707392" lon="1.585379">
        <ele>2258.3</ele>
        <time>2013-04-10T11:32:19Z</time>
      </trkpt>
      <trkpt lat="42.707304" lon="1.585442">
        <ele>2257.3</ele>
        <time>2013-04-10T11:32:27Z</time>
      </trkpt>
      <trkpt lat="42.707217" lon="1.585502">
        <ele>2257.3</ele>
        <time>2013-04-10T11:32:35Z</time>
      </trkpt>
      <trkpt lat="42.707137" lon="1.585557">
        <ele>2256.8</ele>
        <time>2013-04-10T11:32:43Z</time>
      </trkpt>
      <trkpt lat="42.707051" lon="1.585611">
        <ele>2257.3</ele>
        <time>2013-04-10T11:32:52Z</time>
      </trkpt>
      <trkpt lat="42.706979" lon="1.585662">
        <ele>2256.8</ele>
        <time>2013-04-10T11:33:13Z</time>
      </trkpt>
      <trkpt lat="42.706904" lon="1.585738">
        <ele>2258.8</ele>
        <time>2013-04-10T11:33:33Z</time>
      </trkpt>
      <trkpt lat="42.706830" lon="1.585813">
        <ele>2262.1</ele>
        <time>2013-04-10T11:33:44Z</time>
      </trkpt>
      <trkpt lat="42.706771" lon="1.585906">
        <ele>2259.2</ele>
        <time>2013-04-10T11:33:57Z</time>
      </trkpt>
      <trkpt lat="42.706704" lon="1.585985">
        <ele>2260.7</ele>
        <time>2013-04-10T11:34:08Z</time>
      </trkpt>
      <trkpt lat="42.706646" lon="1.586077">
        <ele>2261.6</ele>
        <time>2013-04-10T11:34:19Z</time>
      </trkpt>
      <trkpt lat="42.706564" lon="1.586147">
        <ele>2262.6</ele>
        <time>2013-04-10T11:34:31Z</time>
      </trkpt>
      <trkpt lat="42.706473" lon="1.586209">
        <ele>2264.0</ele>
        <time>2013-04-10T11:34:44Z</time>
      </trkpt>
      <trkpt lat="42.706389" lon="1.586280">
        <ele>2265.0</ele>
        <time>2013-04-10T11:35:02Z</time>
      </trkpt>
      <trkpt lat="42.706301" lon="1.586321">
        <ele>2266.9</ele>
        <time>2013-04-10T11:35:21Z</time>
      </trkpt>
      <trkpt lat="42.706216" lon="1.586377">
        <ele>2268.4</ele>
        <time>2013-04-10T11:35:35Z</time>
      </trkpt>
      <trkpt lat="42.706124" lon="1.586436">
        <ele>2270.3</ele>
        <time>2013-04-10T11:35:49Z</time>
      </trkpt>
      <trkpt lat="42.706042" lon="1.586490">
        <ele>2272.2</ele>
        <time>2013-04-10T11:36:03Z</time>
      </trkpt>
      <trkpt lat="42.705963" lon="1.586532">
        <ele>2274.1</ele>
        <time>2013-04-10T11:36:18Z</time>
      </trkpt>
      <trkpt lat="42.705878" lon="1.586585">
        <ele>2276.1</ele>
        <time>2013-04-10T11:36:35Z</time>
      </trkpt>
      <trkpt lat="42.705791" lon="1.586663">
        <ele>2278.5</ele>
        <time>2013-04-10T11:36:50Z</time>
      </trkpt>
      <trkpt lat="42.705710" lon="1.586706">
        <ele>2281.4</ele>
        <time>2013-04-10T11:37:08Z</time>
      </trkpt>
      <trkpt lat="42.705626" lon="1.586750">
        <ele>2282.8</ele>
        <time>2013-04-10T11:37:24Z</time>
      </trkpt>
      <trkpt lat="42.705540" lon="1.586813">
        <ele>2285.7</ele>
        <time>2013-04-10T11:37:40Z</time>
      </trkpt>
      <trkpt lat="42.705461" lon="1.586855">
        <ele>2288.6</ele>
        <time>2013-04-10T11:37:56Z</time>
      </trkpt>
      <trkpt lat="42.705392" lon="1.586887">
        <ele>2291.0</ele>
        <time>2013-04-10T11:38:14Z</time>
      </trkpt>
      <trkpt lat="42.705302" lon="1.586901">
        <ele>2292.4</ele>
        <time>2013-04-10T11:38:49Z</time>
      </trkpt>
      <trkpt lat="42.705223" lon="1.586952">
        <ele>2294.8</ele>
        <time>2013-04-10T11:39:03Z</time>
      </trkpt>
      <trkpt lat="42.705142" lon="1.587013">
        <ele>2298.2</ele>
        <time>2013-04-10T11:39:18Z</time>
      </trkpt>
      <trkpt lat="42.705065" lon="1.587090">
        <ele>2299.6</ele>
        <time>2013-04-10T11:39:31Z</time>
      </trkpt>
      <trkpt lat="42.704994" lon="1.587165">
        <ele>2301.1</ele>
        <time>2013-04-10T11:39:44Z</time>
      </trkpt>
      <trkpt lat="42.704926" lon="1.587239">
        <ele>2303.0</ele>
        <time>2013-04-10T11:39:56Z</time>
      </trkpt>
      <trkpt lat="42.704855" lon="1.587316">
        <ele>2303.9</ele>
        <time>2013-04-10T11:40:10Z</time>
      </trkpt>
      <trkpt lat="42.704784" lon="1.587395">
        <ele>2305.4</ele>
        <time>2013-04-10T11:40:23Z</time>
      </trkpt>
      <trkpt lat="42.704718" lon="1.587476">
        <ele>2306.8</ele>
        <time>2013-04-10T11:40:36Z</time>
      </trkpt>
      <trkpt lat="42.704642" lon="1.587543">
        <ele>2306.8</ele>
        <time>2013-04-10T11:40:50Z</time>
      </trkpt>
      <trkpt lat="42.704571" lon="1.587640">
        <ele>2309.2</ele>
        <time>2013-04-10T11:41:04Z</time>
      </trkpt>
      <trkpt lat="42.704501" lon="1.587739">
        <ele>2309.7</ele>
        <time>2013-04-10T11:41:17Z</time>
      </trkpt>
      <trkpt lat="42.704425" lon="1.587808">
        <ele>2312.1</ele>
        <time>2013-04-10T11:41:32Z</time>
      </trkpt>
      <trkpt lat="42.704350" lon="1.587885">
        <ele>2313.6</ele>
        <time>2013-04-10T11:41:46Z</time>
      </trkpt>
      <trkpt lat="42.704272" lon="1.587962">
        <ele>2315.0</ele>
        <time>2013-04-10T11:42:00Z</time>
      </trkpt>
      <trkpt lat="42.704201" lon="1.588035">
        <ele>2315.9</ele>
        <time>2013-04-10T11:42:13Z</time>
      </trkpt>
      <trkpt lat="42.704122" lon="1.588117">
        <ele>2317.9</ele>
        <time>2013-04-10T11:42:27Z</time>
      </trkpt>
      <trkpt lat="42.704039" lon="1.588177">
        <ele>2320.3</ele>
        <time>2013-04-10T11:42:42Z</time>
      </trkpt>
      <trkpt lat="42.703961" lon="1.588238">
        <ele>2321.7</ele>
        <time>2013-04-10T11:42:57Z</time>
      </trkpt>
      <trkpt lat="42.703887" lon="1.588313">
        <ele>2325.1</ele>
        <time>2013-04-10T11:43:11Z</time>
      </trkpt>
      <trkpt lat="42.703816" lon="1.588387">
        <ele>2326.5</ele>
        <time>2013-04-10T11:43:24Z</time>
      </trkpt>
      <trkpt lat="42.703734" lon="1.588461">
        <ele>2328.4</ele>
        <time>2013-04-10T11:43:37Z</time>
      </trkpt>
      <trkpt lat="42.703653" lon="1.588520">
        <ele>2330.4</ele>
        <time>2013-04-10T11:43:50Z</time>
      </trkpt>
      <trkpt lat="42.703580" lon="1.588588">
        <ele>2331.8</ele>
        <time>2013-04-10T11:44:04Z</time>
      </trkpt>
      <trkpt lat="42.703502" lon="1.588626">
        <ele>2334.7</ele>
        <time>2013-04-10T11:44:16Z</time>
      </trkpt>
      <trkpt lat="42.703421" lon="1.588663">
        <ele>2336.6</ele>
        <time>2013-04-10T11:44:30Z</time>
      </trkpt>
      <trkpt lat="42.703328" lon="1.588675">
        <ele>2337.6</ele>
        <time>2013-04-10T11:44:44Z</time>
      </trkpt>
      <trkpt lat="42.703252" lon="1.588710">
        <ele>2340.5</ele>
        <time>2013-04-10T11:44:58Z</time>
      </trkpt>
      <trkpt lat="42.703178" lon="1.588777">
        <ele>2341.9</ele>
        <time>2013-04-10T11:45:12Z</time>
      </trkpt>
      <trkpt lat="42.703119" lon="1.588875">
        <ele>2342.4</ele>
        <time>2013-04-10T11:45:51Z</time>
      </trkpt>
      <trkpt lat="42.703036" lon="1.588965">
        <ele>2343.4</ele>
        <time>2013-04-10T11:46:08Z</time>
      </trkpt>
      <trkpt lat="42.702958" lon="1.589043">
        <ele>2345.3</ele>
        <time>2013-04-10T11:46:21Z</time>
      </trkpt>
      <trkpt lat="42.702892" lon="1.589114">
        <ele>2346.7</ele>
        <time>2013-04-10T11:46:35Z</time>
      </trkpt>
      <trkpt lat="42.702820" lon="1.589198">
        <ele>2348.2</ele>
        <time>2013-04-10T11:46:50Z</time>
      </trkpt>
      <trkpt lat="42.702760" lon="1.589258">
        <ele>2350.1</ele>
        <time>2013-04-10T11:47:12Z</time>
      </trkpt>
      <trkpt lat="42.702683" lon="1.589357">
        <ele>2350.6</ele>
        <time>2013-04-10T11:47:29Z</time>
      </trkpt>
      <trkpt lat="42.702613" lon="1.589443">
        <ele>2351.5</ele>
        <time>2013-04-10T11:47:40Z</time>
      </trkpt>
      <trkpt lat="42.702533" lon="1.589511">
        <ele>2353.4</ele>
        <time>2013-04-10T11:47:53Z</time>
      </trkpt>
      <trkpt lat="42.702452" lon="1.589571">
        <ele>2354.4</ele>
        <time>2013-04-10T11:48:06Z</time>
      </trkpt>
      <trkpt lat="42.702371" lon="1.589631">
        <ele>2356.3</ele>
        <time>2013-04-10T11:48:19Z</time>
      </trkpt>
      <trkpt lat="42.702291" lon="1.589696">
        <ele>2357.3</ele>
        <time>2013-04-10T11:48:31Z</time>
      </trkpt>
      <trkpt lat="42.702207" lon="1.589755">
        <ele>2357.8</ele>
        <time>2013-04-10T11:48:43Z</time>
      </trkpt>
      <trkpt lat="42.702109" lon="1.589785">
        <ele>2359.2</ele>
        <time>2013-04-10T11:48:55Z</time>
      </trkpt>
      <trkpt lat="42.702024" lon="1.589827">
        <ele>2360.2</ele>
        <time>2013-04-10T11:49:08Z</time>
      </trkpt>
      <trkpt lat="42.701931" lon="1.589864">
        <ele>2362.1</ele>
        <time>2013-04-10T11:49:21Z</time>
      </trkpt>
      <trkpt lat="42.701837" lon="1.589889">
        <ele>2364.5</ele>
        <time>2013-04-10T11:49:33Z</time>
      </trkpt>
      <trkpt lat="42.701744" lon="1.589899">
        <ele>2364.0</ele>
        <time>2013-04-10T11:49:46Z</time>
      </trkpt>
      <trkpt lat="42.701658" lon="1.589903">
        <ele>2367.4</ele>
        <time>2013-04-10T11:50:00Z</time>
      </trkpt>
      <trkpt lat="42.701567" lon="1.589943">
        <ele>2368.8</ele>
        <time>2013-04-10T11:50:12Z</time>
      </trkpt>
      <trkpt lat="42.701494" lon="1.590017">
        <ele>2368.8</ele>
        <time>2013-04-10T11:50:24Z</time>
      </trkpt>
      <trkpt lat="42.701425" lon="1.590120">
        <ele>2370.3</ele>
        <time>2013-04-10T11:50:36Z</time>
      </trkpt>
      <trkpt lat="42.701367" lon="1.590220">
        <ele>2370.8</ele>
        <time>2013-04-10T11:50:47Z</time>
      </trkpt>
      <trkpt lat="42.701303" lon="1.590325">
        <ele>2371.2</ele>
        <time>2013-04-10T11:50:58Z</time>
      </trkpt>
      <trkpt lat="42.701238" lon="1.590422">
        <ele>2371.2</ele>
        <time>2013-04-10T11:51:08Z</time>
      </trkpt>
      <trkpt lat="42.701166" lon="1.590517">
        <ele>2371.7</ele>
        <time>2013-04-10T11:51:19Z</time>
      </trkpt>
      <trkpt lat="42.701098" lon="1.590613">
        <ele>2371.7</ele>
        <time>2013-04-10T11:51:29Z</time>
      </trkpt>
      <trkpt lat="42.701030" lon="1.590716">
        <ele>2372.2</ele>
        <time>2013-04-10T11:51:40Z</time>
      </trkpt>
      <trkpt lat="42.700953" lon="1.590819">
        <ele>2373.6</ele>
        <time>2013-04-10T11:51:51Z</time>
      </trkpt>
      <trkpt lat="42.700873" lon="1.590911">
        <ele>2373.6</ele>
        <time>2013-04-10T11:52:01Z</time>
      </trkpt>
      <trkpt lat="42.700791" lon="1.590988">
        <ele>2372.7</ele>
        <time>2013-04-10T11:52:11Z</time>
      </trkpt>
      <trkpt lat="42.700716" lon="1.591065">
        <ele>2374.6</ele>
        <time>2013-04-10T11:52:21Z</time>
      </trkpt>
      <trkpt lat="42.700632" lon="1.591141">
        <ele>2375.6</ele>
        <time>2013-04-10T11:52:31Z</time>
      </trkpt>
      <trkpt lat="42.700561" lon="1.591225">
        <ele>2375.1</ele>
        <time>2013-04-10T11:52:41Z</time>
      </trkpt>
      <trkpt lat="42.700500" lon="1.591318">
        <ele>2376.0</ele>
        <time>2013-04-10T11:52:50Z</time>
      </trkpt>
      <trkpt lat="42.700431" lon="1.591424">
        <ele>2375.6</ele>
        <time>2013-04-10T11:53:02Z</time>
      </trkpt>
      <trkpt lat="42.700352" lon="1.591496">
        <ele>2376.0</ele>
        <time>2013-04-10T11:53:15Z</time>
      </trkpt>
      <trkpt lat="42.700260" lon="1.591545">
        <ele>2373.6</ele>
        <time>2013-04-10T11:53:42Z</time>
      </trkpt>
      <trkpt lat="42.700172" lon="1.591566">
        <ele>2375.1</ele>
        <time>2013-04-10T11:53:53Z</time>
      </trkpt>
      <trkpt lat="42.700095" lon="1.591634">
        <ele>2376.0</ele>
        <time>2013-04-10T11:54:05Z</time>
      </trkpt>
      <trkpt lat="42.700045" lon="1.591664">
        <ele>2376.5</ele>
        <time>2013-04-10T11:54:47Z</time>
        <name>Pic de la Beze</name>
      </trkpt>
      <trkpt lat="42.700084" lon="1.591644">
        <ele>2376.5</ele>
        <time>2013-04-10T13:09:12Z</time>
      </trkpt>
      <trkpt lat="42.700160" lon="1.591599">
        <ele>2373.6</ele>
        <time>2013-04-10T13:09:21Z</time>
      </trkpt>
      <trkpt lat="42.700238" lon="1.591544">
        <ele>2373.1</ele>
        <time>2013-04-10T13:09:30Z</time>
      </trkpt>
      <trkpt lat="42.700337" lon="1.591499">
        <ele>2374.6</ele>
        <time>2013-04-10T13:09:40Z</time>
      </trkpt>
      <trkpt lat="42.700413" lon="1.591433">
        <ele>2374.1</ele>
        <time>2013-04-10T13:09:50Z</time>
      </trkpt>
      <trkpt lat="42.700488" lon="1.591368">
        <ele>2374.1</ele>
        <time>2013-04-10T13:09:57Z</time>
      </trkpt>
      <trkpt lat="42.700571" lon="1.591310">
        <ele>2373.6</ele>
        <time>2013-04-10T13:10:04Z</time>
      </trkpt>
      <trkpt lat="42.700651" lon="1.591231">
        <ele>2372.7</ele>
        <time>2013-04-10T13:10:11Z</time>
      </trkpt>
      <trkpt lat="42.700734" lon="1.591142">
        <ele>2372.2</ele>
        <time>2013-04-10T13:10:18Z</time>
      </trkpt>
      <trkpt lat="42.700800" lon="1.591033">
        <ele>2371.2</ele>
        <time>2013-04-10T13:10:26Z</time>
      </trkpt>
      <trkpt lat="42.700879" lon="1.590964">
        <ele>2371.2</ele>
        <time>2013-04-10T13:10:33Z</time>
      </trkpt>
      <trkpt lat="42.700964" lon="1.590890">
        <ele>2371.2</ele>
        <time>2013-04-10T13:10:40Z</time>
      </trkpt>
      <trkpt lat="42.701037" lon="1.590799">
        <ele>2371.2</ele>
        <time>2013-04-10T13:10:47Z</time>
      </trkpt>
      <trkpt lat="42.701113" lon="1.590702">
        <ele>2369.8</ele>
        <time>2013-04-10T13:10:54Z</time>
      </trkpt>
      <trkpt lat="42.701182" lon="1.590609">
        <ele>2370.8</ele>
        <time>2013-04-10T13:11:01Z</time>
      </trkpt>
      <trkpt lat="42.701244" lon="1.590514">
        <ele>2369.8</ele>
        <time>2013-04-10T13:11:08Z</time>
      </trkpt>
      <trkpt lat="42.701322" lon="1.590427">
        <ele>2369.3</ele>
        <time>2013-04-10T13:11:15Z</time>
      </trkpt>
      <trkpt lat="42.701396" lon="1.590327">
        <ele>2368.8</ele>
        <time>2013-04-10T13:11:22Z</time>
      </trkpt>
      <trkpt lat="42.701476" lon="1.590231">
        <ele>2367.4</ele>
        <time>2013-04-10T13:11:29Z</time>
      </trkpt>
      <trkpt lat="42.701566" lon="1.590151">
        <ele>2367.9</ele>
        <time>2013-04-10T13:11:36Z</time>
      </trkpt>
      <trkpt lat="42.701648" lon="1.590085">
        <ele>2366.4</ele>
        <time>2013-04-10T13:11:43Z</time>
      </trkpt>
      <trkpt lat="42.701733" lon="1.590025">
        <ele>2366.4</ele>
        <time>2013-04-10T13:11:50Z</time>
      </trkpt>
      <trkpt lat="42.701824" lon="1.590003">
        <ele>2363.5</ele>
        <time>2013-04-10T13:11:56Z</time>
      </trkpt>
      <trkpt lat="42.701901" lon="1.589929">
        <ele>2361.6</ele>
        <time>2013-04-10T13:12:02Z</time>
      </trkpt>
      <trkpt lat="42.701975" lon="1.589856">
        <ele>2360.6</ele>
        <time>2013-04-10T13:12:08Z</time>
      </trkpt>
      <trkpt lat="42.702067" lon="1.589788">
        <ele>2359.2</ele>
        <time>2013-04-10T13:12:15Z</time>
      </trkpt>
      <trkpt lat="42.702155" lon="1.589725">
        <ele>2357.3</ele>
        <time>2013-04-10T13:12:22Z</time>
      </trkpt>
      <trkpt lat="42.702247" lon="1.589660">
        <ele>2355.4</ele>
        <time>2013-04-10T13:12:29Z</time>
      </trkpt>
      <trkpt lat="42.702333" lon="1.589573">
        <ele>2354.4</ele>
        <time>2013-04-10T13:12:36Z</time>
      </trkpt>
      <trkpt lat="42.702425" lon="1.589515">
        <ele>2353.9</ele>
        <time>2013-04-10T13:12:43Z</time>
      </trkpt>
      <trkpt lat="42.702522" lon="1.589452">
        <ele>2352.0</ele>
        <time>2013-04-10T13:12:50Z</time>
      </trkpt>
      <trkpt lat="42.702604" lon="1.589369">
        <ele>2351.0</ele>
        <time>2013-04-10T13:12:57Z</time>
      </trkpt>
      <trkpt lat="42.702677" lon="1.589282">
        <ele>2349.6</ele>
        <time>2013-04-10T13:13:03Z</time>
      </trkpt>
      <trkpt lat="42.702743" lon="1.589194">
        <ele>2348.2</ele>
        <time>2013-04-10T13:13:09Z</time>
      </trkpt>
      <trkpt lat="42.702826" lon="1.589103">
        <ele>2347.2</ele>
        <time>2013-04-10T13:13:16Z</time>
      </trkpt>
      <trkpt lat="42.702916" lon="1.589044">
        <ele>2345.8</ele>
        <time>2013-04-10T13:13:22Z</time>
      </trkpt>
      <trkpt lat="42.703002" lon="1.588982">
        <ele>2344.8</ele>
        <time>2013-04-10T13:13:29Z</time>
      </trkpt>
      <trkpt lat="42.703083" lon="1.588880">
        <ele>2341.9</ele>
        <time>2013-04-10T13:13:36Z</time>
      </trkpt>
      <trkpt lat="42.703176" lon="1.588823">
        <ele>2341.9</ele>
        <time>2013-04-10T13:13:42Z</time>
      </trkpt>
      <trkpt lat="42.703260" lon="1.588774">
        <ele>2339.0</ele>
        <time>2013-04-10T13:13:48Z</time>
      </trkpt>
      <trkpt lat="42.703340" lon="1.588692">
        <ele>2336.6</ele>
        <time>2013-04-10T13:13:55Z</time>
      </trkpt>
      <trkpt lat="42.703427" lon="1.588609">
        <ele>2334.2</ele>
        <time>2013-04-10T13:14:02Z</time>
      </trkpt>
      <trkpt lat="42.703509" lon="1.588549">
        <ele>2332.3</ele>
        <time>2013-04-10T13:14:08Z</time>
      </trkpt>
      <trkpt lat="42.703597" lon="1.588511">
        <ele>2330.9</ele>
        <time>2013-04-10T13:14:14Z</time>
      </trkpt>
      <trkpt lat="42.703675" lon="1.588444">
        <ele>2329.4</ele>
        <time>2013-04-10T13:14:20Z</time>
      </trkpt>
      <trkpt lat="42.703753" lon="1.588373">
        <ele>2327.5</ele>
        <time>2013-04-10T13:14:26Z</time>
      </trkpt>
      <trkpt lat="42.703840" lon="1.588321">
        <ele>2325.1</ele>
        <time>2013-04-10T13:14:33Z</time>
      </trkpt>
      <trkpt lat="42.703917" lon="1.588248">
        <ele>2322.2</ele>
        <time>2013-04-10T13:14:39Z</time>
      </trkpt>
      <trkpt lat="42.704002" lon="1.588169">
        <ele>2320.3</ele>
        <time>2013-04-10T13:14:45Z</time>
      </trkpt>
      <trkpt lat="42.704086" lon="1.588103">
        <ele>2317.9</ele>
        <time>2013-04-10T13:14:51Z</time>
      </trkpt>
      <trkpt lat="42.704158" lon="1.588015">
        <ele>2316.4</ele>
        <time>2013-04-10T13:14:57Z</time>
      </trkpt>
      <trkpt lat="42.704233" lon="1.587955">
        <ele>2314.5</ele>
        <time>2013-04-10T13:15:03Z</time>
      </trkpt>
      <trkpt lat="42.704313" lon="1.587884">
        <ele>2313.1</ele>
        <time>2013-04-10T13:15:09Z</time>
      </trkpt>
      <trkpt lat="42.704390" lon="1.587801">
        <ele>2311.6</ele>
        <time>2013-04-10T13:15:16Z</time>
      </trkpt>
      <trkpt lat="42.704467" lon="1.587716">
        <ele>2309.7</ele>
        <time>2013-04-10T13:15:23Z</time>
      </trkpt>
      <trkpt lat="42.704493" lon="1.587681">
        <ele>2309.2</ele>
        <time>2013-04-10T13:16:37Z</time>
      </trkpt>
      <trkpt lat="42.704575" lon="1.587598">
        <ele>2307.3</ele>
        <time>2013-04-10T13:16:44Z</time>
      </trkpt>
      <trkpt lat="42.704651" lon="1.587514">
        <ele>2304.9</ele>
        <time>2013-04-10T13:16:51Z</time>
      </trkpt>
      <trkpt lat="42.704733" lon="1.587433">
        <ele>2304.4</ele>
        <time>2013-04-10T13:16:58Z</time>
      </trkpt>
      <trkpt lat="42.704819" lon="1.587339">
        <ele>2303.0</ele>
        <time>2013-04-10T13:17:05Z</time>
      </trkpt>
      <trkpt lat="42.704905" lon="1.587254">
        <ele>2301.1</ele>
        <time>2013-04-10T13:17:13Z</time>
      </trkpt>
      <trkpt lat="42.704990" lon="1.587163">
        <ele>2299.1</ele>
        <time>2013-04-10T13:17:20Z</time>
      </trkpt>
      <trkpt lat="42.705069" lon="1.587088">
        <ele>2297.7</ele>
        <time>2013-04-10T13:17:26Z</time>
      </trkpt>
      <trkpt lat="42.705149" lon="1.587016">
        <ele>2293.8</ele>
        <time>2013-04-10T13:17:32Z</time>
      </trkpt>
      <trkpt lat="42.705229" lon="1.586955">
        <ele>2292.4</ele>
        <time>2013-04-10T13:17:38Z</time>
      </trkpt>
      <trkpt lat="42.705311" lon="1.586892">
        <ele>2290.0</ele>
        <time>2013-04-10T13:17:44Z</time>
      </trkpt>
      <trkpt lat="42.705397" lon="1.586850">
        <ele>2288.6</ele>
        <time>2013-04-10T13:17:51Z</time>
      </trkpt>
      <trkpt lat="42.705490" lon="1.586808">
        <ele>2286.1</ele>
        <time>2013-04-10T13:17:59Z</time>
      </trkpt>
      <trkpt lat="42.705582" lon="1.586760">
        <ele>2283.3</ele>
        <time>2013-04-10T13:18:07Z</time>
      </trkpt>
      <trkpt lat="42.705674" lon="1.586712">
        <ele>2280.4</ele>
        <time>2013-04-10T13:18:14Z</time>
      </trkpt>
      <trkpt lat="42.705767" lon="1.586656">
        <ele>2278.0</ele>
        <time>2013-04-10T13:18:22Z</time>
      </trkpt>
      <trkpt lat="42.705859" lon="1.586588">
        <ele>2275.6</ele>
        <time>2013-04-10T13:18:30Z</time>
      </trkpt>
      <trkpt lat="42.705948" lon="1.586519">
        <ele>2272.2</ele>
        <time>2013-04-10T13:18:38Z</time>
      </trkpt>
      <trkpt lat="42.706034" lon="1.586464">
        <ele>2273.7</ele>
        <time>2013-04-10T13:18:46Z</time>
      </trkpt>
      <trkpt lat="42.706118" lon="1.586399">
        <ele>2270.3</ele>
        <time>2013-04-10T13:20:02Z</time>
      </trkpt>
      <trkpt lat="42.706209" lon="1.586347">
        <ele>2267.9</ele>
        <time>2013-04-10T13:20:09Z</time>
      </trkpt>
      <trkpt lat="42.706304" lon="1.586279">
        <ele>2266.4</ele>
        <time>2013-04-10T13:20:16Z</time>
      </trkpt>
      <trkpt lat="42.706387" lon="1.586225">
        <ele>2265.0</ele>
        <time>2013-04-10T13:20:23Z</time>
      </trkpt>
      <trkpt lat="42.706475" lon="1.586167">
        <ele>2262.1</ele>
        <time>2013-04-10T13:20:30Z</time>
      </trkpt>
      <trkpt lat="42.706560" lon="1.586084">
        <ele>2260.7</ele>
        <time>2013-04-10T13:20:38Z</time>
      </trkpt>
      <trkpt lat="42.706644" lon="1.585997">
        <ele>2259.2</ele>
        <time>2013-04-10T13:20:45Z</time>
      </trkpt>
      <trkpt lat="42.706732" lon="1.585925">
        <ele>2258.8</ele>
        <time>2013-04-10T13:20:52Z</time>
      </trkpt>
      <trkpt lat="42.706820" lon="1.585836">
        <ele>2256.8</ele>
        <time>2013-04-10T13:20:59Z</time>
      </trkpt>
      <trkpt lat="42.706888" lon="1.585722">
        <ele>2255.9</ele>
        <time>2013-04-10T13:21:06Z</time>
      </trkpt>
      <trkpt lat="42.706974" lon="1.585646">
        <ele>2255.4</ele>
        <time>2013-04-10T13:21:13Z</time>
      </trkpt>
      <trkpt lat="42.707062" lon="1.585577">
        <ele>2254.9</ele>
        <time>2013-04-10T13:21:20Z</time>
      </trkpt>
      <trkpt lat="42.707152" lon="1.585505">
        <ele>2253.9</ele>
        <time>2013-04-10T13:21:27Z</time>
      </trkpt>
      <trkpt lat="42.707239" lon="1.585431">
        <ele>2253.9</ele>
        <time>2013-04-10T13:21:34Z</time>
      </trkpt>
      <trkpt lat="42.707327" lon="1.585359">
        <ele>2253.5</ele>
        <time>2013-04-10T13:21:47Z</time>
      </trkpt>
      <trkpt lat="42.707415" lon="1.585302">
        <ele>2253.9</ele>
        <time>2013-04-10T13:21:56Z</time>
      </trkpt>
      <trkpt lat="42.707504" lon="1.585243">
        <ele>2256.8</ele>
        <time>2013-04-10T13:22:05Z</time>
      </trkpt>
      <trkpt lat="42.707597" lon="1.585194">
        <ele>2257.8</ele>
        <time>2013-04-10T13:22:16Z</time>
      </trkpt>
      <trkpt lat="42.707676" lon="1.585124">
        <ele>2258.8</ele>
        <time>2013-04-10T13:22:26Z</time>
      </trkpt>
      <trkpt lat="42.707760" lon="1.585069">
        <ele>2260.7</ele>
        <time>2013-04-10T13:22:37Z</time>
      </trkpt>
      <trkpt lat="42.707855" lon="1.585007">
        <ele>2263.1</ele>
        <time>2013-04-10T13:22:48Z</time>
      </trkpt>
      <trkpt lat="42.707954" lon="1.584951">
        <ele>2265.0</ele>
        <time>2013-04-10T13:23:01Z</time>
      </trkpt>
      <trkpt lat="42.708056" lon="1.584873">
        <ele>2267.9</ele>
        <time>2013-04-10T13:23:16Z</time>
      </trkpt>
      <trkpt lat="42.708135" lon="1.584788">
        <ele>2270.8</ele>
        <time>2013-04-10T13:23:28Z</time>
      </trkpt>
      <trkpt lat="42.708209" lon="1.584739">
        <ele>2273.2</ele>
        <time>2013-04-10T13:23:41Z</time>
      </trkpt>
      <trkpt lat="42.708292" lon="1.584687">
        <ele>2275.1</ele>
        <time>2013-04-10T13:23:57Z</time>
      </trkpt>
      <trkpt lat="42.708389" lon="1.584647">
        <ele>2277.0</ele>
        <time>2013-04-10T13:24:11Z</time>
      </trkpt>
      <trkpt lat="42.708488" lon="1.584578">
        <ele>2278.5</ele>
        <time>2013-04-10T13:24:24Z</time>
      </trkpt>
      <trkpt lat="42.708545" lon="1.584496">
        <ele>2279.4</ele>
        <time>2013-04-10T13:24:37Z</time>
      </trkpt>
      <trkpt lat="42.708641" lon="1.584452">
        <ele>2279.4</ele>
        <time>2013-04-10T13:24:48Z</time>
      </trkpt>
      <trkpt lat="42.708741" lon="1.584421">
        <ele>2279.9</ele>
        <time>2013-04-10T13:24:59Z</time>
      </trkpt>
      <trkpt lat="42.708817" lon="1.584384">
        <ele>2282.3</ele>
        <time>2013-04-10T13:26:07Z</time>
      </trkpt>
      <trkpt lat="42.708905" lon="1.584333">
        <ele>2279.9</ele>
        <time>2013-04-10T13:27:09Z</time>
      </trkpt>
      <trkpt lat="42.708984" lon="1.584297">
        <ele>2279.4</ele>
        <time>2013-04-10T13:27:21Z</time>
      </trkpt>
      <trkpt lat="42.709057" lon="1.584268">
        <ele>2278.5</ele>
        <time>2013-04-10T13:27:44Z</time>
      </trkpt>
      <trkpt lat="42.709141" lon="1.584185">
        <ele>2277.5</ele>
        <time>2013-04-10T13:27:52Z</time>
      </trkpt>
      <trkpt lat="42.709222" lon="1.584121">
        <ele>2275.6</ele>
        <time>2013-04-10T13:27:59Z</time>
      </trkpt>
      <trkpt lat="42.709307" lon="1.584039">
        <ele>2275.1</ele>
        <time>2013-04-10T13:28:06Z</time>
      </trkpt>
      <trkpt lat="42.709405" lon="1.584005">
        <ele>2276.1</ele>
        <time>2013-04-10T13:28:13Z</time>
      </trkpt>
      <trkpt lat="42.709463" lon="1.584113">
        <ele>2276.1</ele>
        <time>2013-04-10T13:28:22Z</time>
      </trkpt>
      <trkpt lat="42.709524" lon="1.584071">
        <ele>2274.1</ele>
        <time>2013-04-10T13:28:42Z</time>
      </trkpt>
      <trkpt lat="42.709590" lon="1.583982">
        <ele>2274.6</ele>
        <time>2013-04-10T13:28:52Z</time>
      </trkpt>
      <trkpt lat="42.709646" lon="1.583911">
        <ele>2277.0</ele>
        <time>2013-04-10T13:29:06Z</time>
      </trkpt>
      <trkpt lat="42.709736" lon="1.583880">
        <ele>2280.4</ele>
        <time>2013-04-10T13:29:23Z</time>
      </trkpt>
      <trkpt lat="42.709808" lon="1.583804">
        <ele>2283.8</ele>
        <time>2013-04-10T13:29:40Z</time>
      </trkpt>
      <trkpt lat="42.709909" lon="1.583802">
        <ele>2287.6</ele>
        <time>2013-04-10T13:29:59Z</time>
      </trkpt>
      <trkpt lat="42.709993" lon="1.583786">
        <ele>2291.4</ele>
        <time>2013-04-10T13:30:18Z</time>
      </trkpt>
      <trkpt lat="42.710075" lon="1.583765">
        <ele>2294.8</ele>
        <time>2013-04-10T13:30:35Z</time>
      </trkpt>
      <trkpt lat="42.710179" lon="1.583755">
        <ele>2295.8</ele>
        <time>2013-04-10T13:30:48Z</time>
      </trkpt>
      <trkpt lat="42.710280" lon="1.583758">
        <ele>2295.8</ele>
        <time>2013-04-10T13:31:00Z</time>
      </trkpt>
      <trkpt lat="42.710365" lon="1.583783">
        <ele>2299.1</ele>
        <time>2013-04-10T13:31:20Z</time>
      </trkpt>
      <trkpt lat="42.710452" lon="1.583751">
        <ele>2302.5</ele>
        <time>2013-04-10T13:31:43Z</time>
      </trkpt>
      <trkpt lat="42.710535" lon="1.583717">
        <ele>2305.4</ele>
        <time>2013-04-10T13:32:00Z</time>
      </trkpt>
      <trkpt lat="42.710628" lon="1.583697">
        <ele>2308.3</ele>
        <time>2013-04-10T13:32:18Z</time>
      </trkpt>
      <trkpt lat="42.710721" lon="1.583679">
        <ele>2310.7</ele>
        <time>2013-04-10T13:32:46Z</time>
      </trkpt>
      <trkpt lat="42.710789" lon="1.583667">
        <ele>2311.1</ele>
        <time>2013-04-10T13:33:35Z</time>
      </trkpt>
      <trkpt lat="42.710799" lon="1.583572">
        <ele>2308.7</ele>
        <time>2013-04-10T13:33:54Z</time>
      </trkpt>
      <trkpt lat="42.710898" lon="1.583497">
        <ele>2304.4</ele>
        <time>2013-04-10T13:34:30Z</time>
      </trkpt>
      <trkpt lat="42.710975" lon="1.583457">
        <ele>2301.5</ele>
        <time>2013-04-10T13:35:05Z</time>
      </trkpt>
      <trkpt lat="42.711088" lon="1.583427">
        <ele>2298.6</ele>
        <time>2013-04-10T13:35:24Z</time>
      </trkpt>
      <trkpt lat="42.711203" lon="1.583457">
        <ele>2298.2</ele>
        <time>2013-04-10T13:35:40Z</time>
      </trkpt>
      <trkpt lat="42.711298" lon="1.583496">
        <ele>2298.6</ele>
        <time>2013-04-10T13:35:54Z</time>
      </trkpt>
      <trkpt lat="42.711370" lon="1.583426">
        <ele>2298.6</ele>
        <time>2013-04-10T13:36:10Z</time>
      </trkpt>
      <trkpt lat="42.711438" lon="1.583364">
        <ele>2302.0</ele>
        <time>2013-04-10T13:36:37Z</time>
      </trkpt>
      <trkpt lat="42.711547" lon="1.583366">
        <ele>2305.4</ele>
        <time>2013-04-10T13:37:01Z</time>
      </trkpt>
      <trkpt lat="42.711642" lon="1.583395">
        <ele>2306.3</ele>
        <time>2013-04-10T13:37:15Z</time>
      </trkpt>
      <trkpt lat="42.711738" lon="1.583362">
        <ele>2303.0</ele>
        <time>2013-04-10T13:38:01Z</time>
      </trkpt>
      <trkpt lat="42.711847" lon="1.583363">
        <ele>2303.9</ele>
        <time>2013-04-10T13:38:10Z</time>
      </trkpt>
      <trkpt lat="42.711941" lon="1.583390">
        <ele>2303.9</ele>
        <time>2013-04-10T13:38:18Z</time>
      </trkpt>
      <trkpt lat="42.712036" lon="1.583392">
        <ele>2301.5</ele>
        <time>2013-04-10T13:38:28Z</time>
      </trkpt>
      <trkpt lat="42.712131" lon="1.583406">
        <ele>2300.6</ele>
        <time>2013-04-10T13:38:37Z</time>
      </trkpt>
      <trkpt lat="42.712240" lon="1.583392">
        <ele>2299.1</ele>
        <time>2013-04-10T13:38:47Z</time>
      </trkpt>
      <trkpt lat="42.712330" lon="1.583438">
        <ele>2297.2</ele>
        <time>2013-04-10T13:38:56Z</time>
      </trkpt>
      <trkpt lat="42.712424" lon="1.583466">
        <ele>2293.4</ele>
        <time>2013-04-10T13:39:16Z</time>
      </trkpt>
      <trkpt lat="42.712518" lon="1.583479">
        <ele>2291.4</ele>
        <time>2013-04-10T13:39:27Z</time>
      </trkpt>
      <trkpt lat="42.712611" lon="1.583454">
        <ele>2290.5</ele>
        <time>2013-04-10T13:39:38Z</time>
      </trkpt>
      <trkpt lat="42.712705" lon="1.583427">
        <ele>2290.5</ele>
        <time>2013-04-10T13:39:50Z</time>
      </trkpt>
      <trkpt lat="42.712812" lon="1.583427">
        <ele>2291.4</ele>
        <time>2013-04-10T13:40:01Z</time>
      </trkpt>
      <trkpt lat="42.712899" lon="1.583453">
        <ele>2291.9</ele>
        <time>2013-04-10T13:40:12Z</time>
      </trkpt>
      <trkpt lat="42.712977" lon="1.583519">
        <ele>2291.0</ele>
        <time>2013-04-10T13:40:24Z</time>
      </trkpt>
      <trkpt lat="42.713063" lon="1.583582">
        <ele>2289.0</ele>
        <time>2013-04-10T13:40:35Z</time>
      </trkpt>
      <trkpt lat="42.713143" lon="1.583656">
        <ele>2287.6</ele>
        <time>2013-04-10T13:40:46Z</time>
      </trkpt>
      <trkpt lat="42.713218" lon="1.583742">
        <ele>2285.2</ele>
        <time>2013-04-10T13:40:56Z</time>
      </trkpt>
      <trkpt lat="42.713301" lon="1.583811">
        <ele>2283.3</ele>
        <time>2013-04-10T13:41:06Z</time>
      </trkpt>
      <trkpt lat="42.713388" lon="1.583875">
        <ele>2280.9</ele>
        <time>2013-04-10T13:41:15Z</time>
      </trkpt>
      <trkpt lat="42.713476" lon="1.583937">
        <ele>2279.4</ele>
        <time>2013-04-10T13:41:24Z</time>
      </trkpt>
      <trkpt lat="42.713553" lon="1.584007">
        <ele>2279.4</ele>
        <time>2013-04-10T13:41:33Z</time>
      </trkpt>
      <trkpt lat="42.713636" lon="1.584073">
        <ele>2276.5</ele>
        <time>2013-04-10T13:41:42Z</time>
      </trkpt>
      <trkpt lat="42.713709" lon="1.584154">
        <ele>2276.1</ele>
        <time>2013-04-10T13:41:51Z</time>
      </trkpt>
      <trkpt lat="42.713786" lon="1.584233">
        <ele>2274.1</ele>
        <time>2013-04-10T13:42:00Z</time>
      </trkpt>
      <trkpt lat="42.713849" lon="1.584307">
        <ele>2271.7</ele>
        <time>2013-04-10T13:42:11Z</time>
      </trkpt>
      <trkpt lat="42.713935" lon="1.584338">
        <ele>2267.9</ele>
        <time>2013-04-10T13:42:26Z</time>
      </trkpt>
      <trkpt lat="42.714020" lon="1.584346">
        <ele>2265.5</ele>
        <time>2013-04-10T13:42:40Z</time>
      </trkpt>
      <trkpt lat="42.714091" lon="1.584399">
        <ele>2262.6</ele>
        <time>2013-04-10T13:43:06Z</time>
      </trkpt>
      <trkpt lat="42.714088" lon="1.584518">
        <ele>2259.2</ele>
        <time>2013-04-10T13:43:23Z</time>
      </trkpt>
      <trkpt lat="42.714085" lon="1.584624">
        <ele>2255.4</ele>
        <time>2013-04-10T13:43:37Z</time>
      </trkpt>
      <trkpt lat="42.714094" lon="1.584753">
        <ele>2251.1</ele>
        <time>2013-04-10T13:43:55Z</time>
      </trkpt>
      <trkpt lat="42.714144" lon="1.584856">
        <ele>2245.8</ele>
        <time>2013-04-10T13:44:03Z</time>
      </trkpt>
      <trkpt lat="42.714200" lon="1.584919">
        <ele>2241.9</ele>
        <time>2013-04-10T13:44:23Z</time>
      </trkpt>
      <trkpt lat="42.714266" lon="1.584978">
        <ele>2237.6</ele>
        <time>2013-04-10T13:46:18Z</time>
      </trkpt>
      <trkpt lat="42.714352" lon="1.585038">
        <ele>2233.3</ele>
        <time>2013-04-10T13:46:28Z</time>
      </trkpt>
      <trkpt lat="42.714426" lon="1.585118">
        <ele>2229.4</ele>
        <time>2013-04-10T13:46:36Z</time>
      </trkpt>
      <trkpt lat="42.714500" lon="1.585201">
        <ele>2224.6</ele>
        <time>2013-04-10T13:46:45Z</time>
      </trkpt>
      <trkpt lat="42.714582" lon="1.585286">
        <ele>2220.8</ele>
        <time>2013-04-10T13:46:53Z</time>
      </trkpt>
      <trkpt lat="42.714663" lon="1.585386">
        <ele>2216.9</ele>
        <time>2013-04-10T13:47:01Z</time>
      </trkpt>
      <trkpt lat="42.714714" lon="1.585479">
        <ele>2212.1</ele>
        <time>2013-04-10T13:47:26Z</time>
      </trkpt>
      <trkpt lat="42.714787" lon="1.585566">
        <ele>2208.8</ele>
        <time>2013-04-10T13:47:34Z</time>
      </trkpt>
      <trkpt lat="42.714854" lon="1.585657">
        <ele>2205.4</ele>
        <time>2013-04-10T13:47:43Z</time>
      </trkpt>
      <trkpt lat="42.714936" lon="1.585723">
        <ele>2201.1</ele>
        <time>2013-04-10T13:47:54Z</time>
      </trkpt>
      <trkpt lat="42.715022" lon="1.585778">
        <ele>2198.7</ele>
        <time>2013-04-10T13:48:04Z</time>
      </trkpt>
      <trkpt lat="42.715106" lon="1.585838">
        <ele>2194.8</ele>
        <time>2013-04-10T13:48:13Z</time>
      </trkpt>
      <trkpt lat="42.715196" lon="1.585857">
        <ele>2192.4</ele>
        <time>2013-04-10T13:48:21Z</time>
      </trkpt>
      <trkpt lat="42.715278" lon="1.585914">
        <ele>2189.1</ele>
        <time>2013-04-10T13:48:30Z</time>
      </trkpt>
      <trkpt lat="42.715343" lon="1.585999">
        <ele>2184.7</ele>
        <time>2013-04-10T13:48:40Z</time>
      </trkpt>
      <trkpt lat="42.715419" lon="1.586068">
        <ele>2180.9</ele>
        <time>2013-04-10T13:48:49Z</time>
      </trkpt>
      <trkpt lat="42.715516" lon="1.586093">
        <ele>2177.0</ele>
        <time>2013-04-10T13:48:58Z</time>
      </trkpt>
      <trkpt lat="42.715625" lon="1.586129">
        <ele>2174.2</ele>
        <time>2013-04-10T13:49:06Z</time>
      </trkpt>
      <trkpt lat="42.715710" lon="1.586205">
        <ele>2171.8</ele>
        <time>2013-04-10T13:49:14Z</time>
      </trkpt>
      <trkpt lat="42.715759" lon="1.586315">
        <ele>2169.4</ele>
        <time>2013-04-10T13:49:21Z</time>
      </trkpt>
      <trkpt lat="42.715807" lon="1.586429">
        <ele>2166.9</ele>
        <time>2013-04-10T13:49:29Z</time>
      </trkpt>
      <trkpt lat="42.715852" lon="1.586548">
        <ele>2164.6</ele>
        <time>2013-04-10T13:49:37Z</time>
      </trkpt>
      <trkpt lat="42.715886" lon="1.586665">
        <ele>2163.1</ele>
        <time>2013-04-10T13:49:46Z</time>
      </trkpt>
      <trkpt lat="42.715935" lon="1.586808">
        <ele>2159.3</ele>
        <time>2013-04-10T13:50:02Z</time>
      </trkpt>
      <trkpt lat="42.715948" lon="1.586926">
        <ele>2159.3</ele>
        <time>2013-04-10T13:50:09Z</time>
      </trkpt>
      <trkpt lat="42.716018" lon="1.587013">
        <ele>2157.3</ele>
        <time>2013-04-10T13:50:18Z</time>
      </trkpt>
      <trkpt lat="42.716059" lon="1.587136">
        <ele>2155.4</ele>
        <time>2013-04-10T13:50:26Z</time>
      </trkpt>
      <trkpt lat="42.716074" lon="1.587251">
        <ele>2153.5</ele>
        <time>2013-04-10T13:50:33Z</time>
      </trkpt>
      <trkpt lat="42.716080" lon="1.587369">
        <ele>2153.0</ele>
        <time>2013-04-10T13:50:41Z</time>
      </trkpt>
      <trkpt lat="42.716072" lon="1.587493">
        <ele>2154.0</ele>
        <time>2013-04-10T13:50:49Z</time>
      </trkpt>
      <trkpt lat="42.716074" lon="1.587608">
        <ele>2152.5</ele>
        <time>2013-04-10T13:51:00Z</time>
      </trkpt>
      <trkpt lat="42.716117" lon="1.587706">
        <ele>2150.1</ele>
        <time>2013-04-10T13:52:11Z</time>
      </trkpt>
      <trkpt lat="42.716201" lon="1.587765">
        <ele>2148.2</ele>
        <time>2013-04-10T13:52:21Z</time>
      </trkpt>
      <trkpt lat="42.716268" lon="1.587863">
        <ele>2144.4</ele>
        <time>2013-04-10T13:52:29Z</time>
      </trkpt>
      <trkpt lat="42.716313" lon="1.587995">
        <ele>2141.5</ele>
        <time>2013-04-10T13:52:38Z</time>
      </trkpt>
      <trkpt lat="42.716387" lon="1.588075">
        <ele>2139.1</ele>
        <time>2013-04-10T13:52:46Z</time>
      </trkpt>
      <trkpt lat="42.716443" lon="1.588181">
        <ele>2137.6</ele>
        <time>2013-04-10T13:52:54Z</time>
      </trkpt>
      <trkpt lat="42.716500" lon="1.588307">
        <ele>2136.2</ele>
        <time>2013-04-10T13:53:02Z</time>
      </trkpt>
      <trkpt lat="42.716560" lon="1.588408">
        <ele>2135.2</ele>
        <time>2013-04-10T13:53:10Z</time>
      </trkpt>
      <trkpt lat="42.716616" lon="1.588508">
        <ele>2133.3</ele>
        <time>2013-04-10T13:53:44Z</time>
      </trkpt>
      <trkpt lat="42.716687" lon="1.588603">
        <ele>2131.9</ele>
        <time>2013-04-10T13:53:53Z</time>
      </trkpt>
      <trkpt lat="42.716759" lon="1.588692">
        <ele>2129.5</ele>
        <time>2013-04-10T13:54:03Z</time>
      </trkpt>
      <trkpt lat="42.716821" lon="1.588792">
        <ele>2121.8</ele>
        <time>2013-04-10T13:54:12Z</time>
      </trkpt>
      <trkpt lat="42.716882" lon="1.588894">
        <ele>2129.9</ele>
        <time>2013-04-10T13:54:22Z</time>
      </trkpt>
      <trkpt lat="42.716946" lon="1.588985">
        <ele>2128.0</ele>
        <time>2013-04-10T13:54:32Z</time>
      </trkpt>
      <trkpt lat="42.717014" lon="1.589077">
        <ele>2128.0</ele>
        <time>2013-04-10T13:54:42Z</time>
      </trkpt>
      <trkpt lat="42.717091" lon="1.589156">
        <ele>2135.2</ele>
        <time>2013-04-10T13:54:51Z</time>
      </trkpt>
      <trkpt lat="42.717161" lon="1.589245">
        <ele>2128.5</ele>
        <time>2013-04-10T13:55:01Z</time>
      </trkpt>
      <trkpt lat="42.717246" lon="1.589320">
        <ele>2124.6</ele>
        <time>2013-04-10T13:55:12Z</time>
      </trkpt>
      <trkpt lat="42.717334" lon="1.589377">
        <ele>2124.2</ele>
        <time>2013-04-10T13:55:22Z</time>
      </trkpt>
      <trkpt lat="42.717397" lon="1.589473">
        <ele>2123.2</ele>
        <time>2013-04-10T13:55:31Z</time>
      </trkpt>
      <trkpt lat="42.717468" lon="1.589570">
        <ele>2124.2</ele>
        <time>2013-04-10T13:55:39Z</time>
      </trkpt>
      <trkpt lat="42.717542" lon="1.589644">
        <ele>2123.7</ele>
        <time>2013-04-10T13:55:47Z</time>
      </trkpt>
      <trkpt lat="42.717611" lon="1.589714">
        <ele>2122.2</ele>
        <time>2013-04-10T13:55:55Z</time>
      </trkpt>
      <trkpt lat="42.717693" lon="1.589775">
        <ele>2122.2</ele>
        <time>2013-04-10T13:56:03Z</time>
      </trkpt>
      <trkpt lat="42.717776" lon="1.589860">
        <ele>2121.8</ele>
        <time>2013-04-10T13:56:11Z</time>
      </trkpt>
      <trkpt lat="42.717856" lon="1.589911">
        <ele>2120.8</ele>
        <time>2013-04-10T13:56:19Z</time>
      </trkpt>
      <trkpt lat="42.717941" lon="1.589963">
        <ele>2120.3</ele>
        <time>2013-04-10T13:56:28Z</time>
      </trkpt>
      <trkpt lat="42.718041" lon="1.590026">
        <ele>2119.4</ele>
        <time>2013-04-10T13:56:36Z</time>
      </trkpt>
      <trkpt lat="42.718109" lon="1.590092">
        <ele>2119.4</ele>
        <time>2013-04-10T13:56:44Z</time>
      </trkpt>
      <trkpt lat="42.718191" lon="1.590153">
        <ele>2119.8</ele>
        <time>2013-04-10T13:56:52Z</time>
      </trkpt>
      <trkpt lat="42.718272" lon="1.590210">
        <ele>2118.9</ele>
        <time>2013-04-10T13:57:00Z</time>
      </trkpt>
      <trkpt lat="42.718355" lon="1.590263">
        <ele>2118.9</ele>
        <time>2013-04-10T13:57:09Z</time>
      </trkpt>
      <trkpt lat="42.718431" lon="1.590331">
        <ele>2119.4</ele>
        <time>2013-04-10T13:57:18Z</time>
      </trkpt>
      <trkpt lat="42.718518" lon="1.590422">
        <ele>2117.9</ele>
        <time>2013-04-10T13:57:28Z</time>
      </trkpt>
      <trkpt lat="42.718601" lon="1.590507">
        <ele>2117.9</ele>
        <time>2013-04-10T13:57:37Z</time>
      </trkpt>
      <trkpt lat="42.718670" lon="1.590549">
        <ele>2117.0</ele>
        <time>2013-04-10T13:58:23Z</time>
      </trkpt>
      <trkpt lat="42.718750" lon="1.590625">
        <ele>2117.4</ele>
        <time>2013-04-10T13:58:31Z</time>
      </trkpt>
      <trkpt lat="42.718840" lon="1.590675">
        <ele>2116.0</ele>
        <time>2013-04-10T13:58:40Z</time>
      </trkpt>
      <trkpt lat="42.718929" lon="1.590721">
        <ele>2115.0</ele>
        <time>2013-04-10T13:58:48Z</time>
      </trkpt>
      <trkpt lat="42.719008" lon="1.590795">
        <ele>2117.4</ele>
        <time>2013-04-10T13:58:58Z</time>
      </trkpt>
      <trkpt lat="42.719101" lon="1.590844">
        <ele>2116.0</ele>
        <time>2013-04-10T13:59:08Z</time>
      </trkpt>
      <trkpt lat="42.719181" lon="1.590884">
        <ele>2118.9</ele>
        <time>2013-04-10T13:59:19Z</time>
      </trkpt>
      <trkpt lat="42.719262" lon="1.590965">
        <ele>2117.4</ele>
        <time>2013-04-10T13:59:34Z</time>
      </trkpt>
      <trkpt lat="42.719349" lon="1.591002">
        <ele>2119.4</ele>
        <time>2013-04-10T13:59:48Z</time>
      </trkpt>
      <trkpt lat="42.719460" lon="1.591035">
        <ele>2119.8</ele>
        <time>2013-04-10T14:00:00Z</time>
      </trkpt>
      <trkpt lat="42.719581" lon="1.591067">
        <ele>2121.3</ele>
        <time>2013-04-10T14:00:12Z</time>
      </trkpt>
      <trkpt lat="42.719681" lon="1.591092">
        <ele>2123.2</ele>
        <time>2013-04-10T14:00:25Z</time>
      </trkpt>
      <trkpt lat="42.719779" lon="1.591104">
        <ele>2124.2</ele>
        <time>2013-04-10T14:00:37Z</time>
      </trkpt>
      <trkpt lat="42.719903" lon="1.591124">
        <ele>2125.6</ele>
        <time>2013-04-10T14:00:48Z</time>
      </trkpt>
      <trkpt lat="42.720002" lon="1.591122">
        <ele>2127.5</ele>
        <time>2013-04-10T14:01:00Z</time>
      </trkpt>
      <trkpt lat="42.720090" lon="1.591164">
        <ele>2128.0</ele>
        <time>2013-04-10T14:01:13Z</time>
      </trkpt>
      <trkpt lat="42.720181" lon="1.591193">
        <ele>2128.5</ele>
        <time>2013-04-10T14:01:24Z</time>
      </trkpt>
      <trkpt lat="42.720227" lon="1.591255">
        <ele>2131.4</ele>
        <time>2013-04-10T14:01:38Z</time>
      </trkpt>
      <trkpt lat="42.720323" lon="1.591314">
        <ele>2133.3</ele>
        <time>2013-04-10T14:01:54Z</time>
      </trkpt>
      <trkpt lat="42.720432" lon="1.591352">
        <ele>2134.7</ele>
        <time>2013-04-10T14:02:07Z</time>
      </trkpt>
      <trkpt lat="42.720508" lon="1.591404">
        <ele>2135.7</ele>
        <time>2013-04-10T14:02:20Z</time>
      </trkpt>
      <trkpt lat="42.720616" lon="1.591455">
        <ele>2137.1</ele>
        <time>2013-04-10T14:02:34Z</time>
      </trkpt>
      <trkpt lat="42.720716" lon="1.591488">
        <ele>2138.6</ele>
        <time>2013-04-10T14:02:46Z</time>
      </trkpt>
      <trkpt lat="42.720817" lon="1.591504">
        <ele>2139.6</ele>
        <time>2013-04-10T14:03:00Z</time>
      </trkpt>
      <trkpt lat="42.720917" lon="1.591552">
        <ele>2141.0</ele>
        <time>2013-04-10T14:03:11Z</time>
      </trkpt>
      <trkpt lat="42.720998" lon="1.591574">
        <ele>2141.0</ele>
        <time>2013-04-10T14:03:20Z</time>
      </trkpt>
      <trkpt lat="42.721140" lon="1.591576">
        <ele>2143.9</ele>
        <time>2013-04-10T14:03:29Z</time>
      </trkpt>
      <trkpt lat="42.721220" lon="1.591604">
        <ele>2144.4</ele>
        <time>2013-04-10T14:03:38Z</time>
      </trkpt>
      <trkpt lat="42.721305" lon="1.591638">
        <ele>2145.3</ele>
        <time>2013-04-10T14:03:47Z</time>
      </trkpt>
      <trkpt lat="42.721398" lon="1.591659">
        <ele>2146.3</ele>
        <time>2013-04-10T14:03:56Z</time>
      </trkpt>
      <trkpt lat="42.721505" lon="1.591684">
        <ele>2147.7</ele>
        <time>2013-04-10T14:04:06Z</time>
      </trkpt>
      <trkpt lat="42.721598" lon="1.591709">
        <ele>2148.7</ele>
        <time>2013-04-10T14:04:15Z</time>
      </trkpt>
      <trkpt lat="42.721681" lon="1.591744">
        <ele>2149.2</ele>
        <time>2013-04-10T14:04:25Z</time>
      </trkpt>
      <trkpt lat="42.721769" lon="1.591745">
        <ele>2149.6</ele>
        <time>2013-04-10T14:04:35Z</time>
      </trkpt>
      <trkpt lat="42.721867" lon="1.591757">
        <ele>2150.6</ele>
        <time>2013-04-10T14:04:45Z</time>
      </trkpt>
      <trkpt lat="42.721960" lon="1.591754">
        <ele>2151.6</ele>
        <time>2013-04-10T14:04:55Z</time>
      </trkpt>
      <trkpt lat="42.722058" lon="1.591779">
        <ele>2153.0</ele>
        <time>2013-04-10T14:05:07Z</time>
      </trkpt>
      <trkpt lat="42.722107" lon="1.591817">
        <ele>2154.0</ele>
        <time>2013-04-10T14:05:38Z</time>
      </trkpt>
      <trkpt lat="42.722214" lon="1.591828">
        <ele>2154.9</ele>
        <time>2013-04-10T14:05:50Z</time>
      </trkpt>
      <trkpt lat="42.722295" lon="1.591833">
        <ele>2155.9</ele>
        <time>2013-04-10T14:06:02Z</time>
      </trkpt>
      <trkpt lat="42.722379" lon="1.591863">
        <ele>2157.3</ele>
        <time>2013-04-10T14:06:13Z</time>
      </trkpt>
      <trkpt lat="42.722469" lon="1.591878">
        <ele>2158.8</ele>
        <time>2013-04-10T14:06:23Z</time>
      </trkpt>
      <trkpt lat="42.722570" lon="1.591874">
        <ele>2159.3</ele>
        <time>2013-04-10T14:06:33Z</time>
      </trkpt>
      <trkpt lat="42.722666" lon="1.591892">
        <ele>2160.2</ele>
        <time>2013-04-10T14:06:43Z</time>
      </trkpt>
      <trkpt lat="42.722746" lon="1.591952">
        <ele>2161.7</ele>
        <time>2013-04-10T14:06:54Z</time>
      </trkpt>
      <trkpt lat="42.722827" lon="1.592001">
        <ele>2162.6</ele>
        <time>2013-04-10T14:07:05Z</time>
      </trkpt>
      <trkpt lat="42.722898" lon="1.592071">
        <ele>2163.1</ele>
        <time>2013-04-10T14:07:16Z</time>
      </trkpt>
      <trkpt lat="42.722986" lon="1.592103">
        <ele>2163.6</ele>
        <time>2013-04-10T14:07:27Z</time>
      </trkpt>
      <trkpt lat="42.723076" lon="1.592159">
        <ele>2165.0</ele>
        <time>2013-04-10T14:07:37Z</time>
      </trkpt>
      <trkpt lat="42.723150" lon="1.592250">
        <ele>2166.0</ele>
        <time>2013-04-10T14:07:47Z</time>
      </trkpt>
      <trkpt lat="42.723222" lon="1.592346">
        <ele>2165.5</ele>
        <time>2013-04-10T14:07:57Z</time>
      </trkpt>
      <trkpt lat="42.723306" lon="1.592411">
        <ele>2165.5</ele>
        <time>2013-04-10T14:08:06Z</time>
        <name>La Calbe</name>
      </trkpt>
      <trkpt lat="42.723382" lon="1.592497">
        <ele>2165.0</ele>
        <time>2013-04-10T14:08:15Z</time>
      </trkpt>
      <trkpt lat="42.723446" lon="1.592584">
        <ele>2164.1</ele>
        <time>2013-04-10T14:08:26Z</time>
      </trkpt>
      <trkpt lat="42.723504" lon="1.592696">
        <ele>2164.6</ele>
        <time>2013-04-10T14:08:39Z</time>
      </trkpt>
      <trkpt lat="42.723578" lon="1.592776">
        <ele>2163.1</ele>
        <time>2013-04-10T14:08:48Z</time>
      </trkpt>
      <trkpt lat="42.723643" lon="1.592854">
        <ele>2163.1</ele>
        <time>2013-04-10T14:08:57Z</time>
      </trkpt>
      <trkpt lat="42.723724" lon="1.592930">
        <ele>2162.6</ele>
        <time>2013-04-10T14:09:08Z</time>
      </trkpt>
      <trkpt lat="42.723792" lon="1.593013">
        <ele>2160.2</ele>
        <time>2013-04-10T14:09:18Z</time>
      </trkpt>
      <trkpt lat="42.723864" lon="1.593081">
        <ele>2158.3</ele>
        <time>2013-04-10T14:09:27Z</time>
      </trkpt>
      <trkpt lat="42.723936" lon="1.593202">
        <ele>2157.3</ele>
        <time>2013-04-10T14:09:38Z</time>
      </trkpt>
      <trkpt lat="42.724010" lon="1.593288">
        <ele>2156.4</ele>
        <time>2013-04-10T14:09:48Z</time>
      </trkpt>
      <trkpt lat="42.724077" lon="1.593368">
        <ele>2154.4</ele>
        <time>2013-04-10T14:09:57Z</time>
      </trkpt>
      <trkpt lat="42.724097" lon="1.593438">
        <ele>2155.4</ele>
        <time>2013-04-10T14:10:33Z</time>
      </trkpt>
      <trkpt lat="42.724166" lon="1.593418">
        <ele>2152.1</ele>
        <time>2013-04-10T14:13:16Z</time>
      </trkpt>
      <trkpt lat="42.724222" lon="1.593329">
        <ele>2149.2</ele>
        <time>2013-04-10T14:13:31Z</time>
      </trkpt>
      <trkpt lat="42.724324" lon="1.593350">
        <ele>2146.8</ele>
        <time>2013-04-10T14:13:42Z</time>
      </trkpt>
      <trkpt lat="42.724427" lon="1.593386">
        <ele>2143.4</ele>
        <time>2013-04-10T14:13:53Z</time>
      </trkpt>
      <trkpt lat="42.724526" lon="1.593376">
        <ele>2138.1</ele>
        <time>2013-04-10T14:14:04Z</time>
      </trkpt>
      <trkpt lat="42.724610" lon="1.593353">
        <ele>2135.7</ele>
        <time>2013-04-10T14:14:12Z</time>
      </trkpt>
      <trkpt lat="42.724702" lon="1.593424">
        <ele>2133.3</ele>
        <time>2013-04-10T14:14:21Z</time>
      </trkpt>
      <trkpt lat="42.724792" lon="1.593464">
        <ele>2129.9</ele>
        <time>2013-04-10T14:14:30Z</time>
      </trkpt>
      <trkpt lat="42.724865" lon="1.593527">
        <ele>2128.5</ele>
        <time>2013-04-10T14:14:39Z</time>
      </trkpt>
      <trkpt lat="42.724951" lon="1.593573">
        <ele>2125.6</ele>
        <time>2013-04-10T14:14:47Z</time>
      </trkpt>
      <trkpt lat="42.725049" lon="1.593580">
        <ele>2122.2</ele>
        <time>2013-04-10T14:14:57Z</time>
      </trkpt>
      <trkpt lat="42.725145" lon="1.593619">
        <ele>2120.3</ele>
        <time>2013-04-10T14:15:08Z</time>
      </trkpt>
      <trkpt lat="42.725228" lon="1.593661">
        <ele>2115.5</ele>
        <time>2013-04-10T14:15:18Z</time>
      </trkpt>
      <trkpt lat="42.725329" lon="1.593691">
        <ele>2113.1</ele>
        <time>2013-04-10T14:15:27Z</time>
      </trkpt>
      <trkpt lat="42.725419" lon="1.593637">
        <ele>2109.8</ele>
        <time>2013-04-10T14:15:36Z</time>
      </trkpt>
      <trkpt lat="42.725453" lon="1.593744">
        <ele>2106.9</ele>
        <time>2013-04-10T14:15:59Z</time>
      </trkpt>
      <trkpt lat="42.725517" lon="1.593775">
        <ele>2104.5</ele>
        <time>2013-04-10T14:17:30Z</time>
      </trkpt>
      <trkpt lat="42.725602" lon="1.593817">
        <ele>2099.7</ele>
        <time>2013-04-10T14:17:40Z</time>
      </trkpt>
      <trkpt lat="42.725683" lon="1.593845">
        <ele>2095.3</ele>
        <time>2013-04-10T14:17:49Z</time>
      </trkpt>
      <trkpt lat="42.725776" lon="1.593867">
        <ele>2091.5</ele>
        <time>2013-04-10T14:18:00Z</time>
      </trkpt>
      <trkpt lat="42.725856" lon="1.593856">
        <ele>2086.7</ele>
        <time>2013-04-10T14:18:39Z</time>
      </trkpt>
      <trkpt lat="42.725952" lon="1.593864">
        <ele>2081.4</ele>
        <time>2013-04-10T14:18:48Z</time>
      </trkpt>
      <trkpt lat="42.726030" lon="1.593939">
        <ele>2076.1</ele>
        <time>2013-04-10T14:19:03Z</time>
      </trkpt>
      <trkpt lat="42.726099" lon="1.593973">
        <ele>2070.8</ele>
        <time>2013-04-10T14:19:19Z</time>
      </trkpt>
      <trkpt lat="42.726149" lon="1.593993">
        <ele>2069.4</ele>
        <time>2013-04-10T14:19:57Z</time>
      </trkpt>
      <trkpt lat="42.726242" lon="1.594065">
        <ele>2063.6</ele>
        <time>2013-04-10T14:20:02Z</time>
      </trkpt>
      <trkpt lat="42.726332" lon="1.594090">
        <ele>2057.4</ele>
        <time>2013-04-10T14:20:08Z</time>
      </trkpt>
      <trkpt lat="42.726423" lon="1.594113">
        <ele>2052.1</ele>
        <time>2013-04-10T14:20:14Z</time>
      </trkpt>
      <trkpt lat="42.726518" lon="1.594134">
        <ele>2047.3</ele>
        <time>2013-04-10T14:20:19Z</time>
      </trkpt>
      <trkpt lat="42.726616" lon="1.594161">
        <ele>2041.0</ele>
        <time>2013-04-10T14:20:25Z</time>
      </trkpt>
      <trkpt lat="42.726716" lon="1.594176">
        <ele>2035.7</ele>
        <time>2013-04-10T14:20:31Z</time>
      </trkpt>
      <trkpt lat="42.726811" lon="1.594197">
        <ele>2031.4</ele>
        <time>2013-04-10T14:20:37Z</time>
      </trkpt>
      <trkpt lat="42.726912" lon="1.594208">
        <ele>2026.1</ele>
        <time>2013-04-10T14:20:43Z</time>
      </trkpt>
      <trkpt lat="42.727003" lon="1.594229">
        <ele>2020.3</ele>
        <time>2013-04-10T14:20:49Z</time>
      </trkpt>
      <trkpt lat="42.727091" lon="1.594234">
        <ele>2016.5</ele>
        <time>2013-04-10T14:20:56Z</time>
      </trkpt>
      <trkpt lat="42.727139" lon="1.594282">
        <ele>2013.1</ele>
        <time>2013-04-10T14:22:58Z</time>
      </trkpt>
      <trkpt lat="42.727216" lon="1.594303">
        <ele>2009.8</ele>
        <time>2013-04-10T14:23:37Z</time>
      </trkpt>
      <trkpt lat="42.727307" lon="1.594330">
        <ele>2003.5</ele>
        <time>2013-04-10T14:24:07Z</time>
      </trkpt>
      <trkpt lat="42.727388" lon="1.594351">
        <ele>1999.2</ele>
        <time>2013-04-10T14:24:18Z</time>
      </trkpt>
      <trkpt lat="42.727485" lon="1.594361">
        <ele>1993.9</ele>
        <time>2013-04-10T14:24:29Z</time>
      </trkpt>
      <trkpt lat="42.727564" lon="1.594397">
        <ele>1988.6</ele>
        <time>2013-04-10T14:24:47Z</time>
      </trkpt>
      <trkpt lat="42.727647" lon="1.594429">
        <ele>1983.3</ele>
        <time>2013-04-10T14:24:58Z</time>
      </trkpt>
      <trkpt lat="42.727745" lon="1.594454">
        <ele>1978.5</ele>
        <time>2013-04-10T14:25:19Z</time>
      </trkpt>
      <trkpt lat="42.727858" lon="1.594472">
        <ele>1973.7</ele>
        <time>2013-04-10T14:25:28Z</time>
      </trkpt>
      <trkpt lat="42.727953" lon="1.594492">
        <ele>1968.9</ele>
        <time>2013-04-10T14:25:35Z</time>
      </trkpt>
      <trkpt lat="42.728047" lon="1.594506">
        <ele>1964.1</ele>
        <time>2013-04-10T14:25:42Z</time>
      </trkpt>
      <trkpt lat="42.728145" lon="1.594529">
        <ele>1960.3</ele>
        <time>2013-04-10T14:25:49Z</time>
      </trkpt>
      <trkpt lat="42.728238" lon="1.594523">
        <ele>1955.9</ele>
        <time>2013-04-10T14:25:56Z</time>
      </trkpt>
      <trkpt lat="42.728332" lon="1.594552">
        <ele>1952.6</ele>
        <time>2013-04-10T14:26:03Z</time>
      </trkpt>
      <trkpt lat="42.728402" lon="1.594575">
        <ele>1949.2</ele>
        <time>2013-04-10T14:26:30Z</time>
      </trkpt>
      <trkpt lat="42.728491" lon="1.594603">
        <ele>1945.4</ele>
        <time>2013-04-10T14:26:39Z</time>
      </trkpt>
      <trkpt lat="42.728580" lon="1.594606">
        <ele>1941.0</ele>
        <time>2013-04-10T14:26:48Z</time>
      </trkpt>
      <trkpt lat="42.728674" lon="1.594616">
        <ele>1938.2</ele>
        <time>2013-04-10T14:26:56Z</time>
      </trkpt>
      <trkpt lat="42.728766" lon="1.594598">
        <ele>1934.8</ele>
        <time>2013-04-10T14:27:04Z</time>
      </trkpt>
      <trkpt lat="42.728852" lon="1.594599">
        <ele>1930.5</ele>
        <time>2013-04-10T14:27:11Z</time>
      </trkpt>
      <trkpt lat="42.728946" lon="1.594622">
        <ele>1926.1</ele>
        <time>2013-04-10T14:27:18Z</time>
      </trkpt>
      <trkpt lat="42.729042" lon="1.594629">
        <ele>1921.8</ele>
        <time>2013-04-10T14:27:26Z</time>
      </trkpt>
      <trkpt lat="42.729140" lon="1.594649">
        <ele>1918.9</ele>
        <time>2013-04-10T14:27:33Z</time>
      </trkpt>
      <trkpt lat="42.729232" lon="1.594663">
        <ele>1915.6</ele>
        <time>2013-04-10T14:27:40Z</time>
      </trkpt>
      <trkpt lat="42.729339" lon="1.594656">
        <ele>1912.2</ele>
        <time>2013-04-10T14:27:48Z</time>
      </trkpt>
      <trkpt lat="42.729430" lon="1.594653">
        <ele>1908.8</ele>
        <time>2013-04-10T14:27:55Z</time>
      </trkpt>
      <trkpt lat="42.729531" lon="1.594675">
        <ele>1905.9</ele>
        <time>2013-04-10T14:28:03Z</time>
      </trkpt>
      <trkpt lat="42.729635" lon="1.594688">
        <ele>1902.6</ele>
        <time>2013-04-10T14:28:11Z</time>
      </trkpt>
      <trkpt lat="42.729728" lon="1.594694">
        <ele>1900.2</ele>
        <time>2013-04-10T14:28:19Z</time>
      </trkpt>
      <trkpt lat="42.729816" lon="1.594708">
        <ele>1897.8</ele>
        <time>2013-04-10T14:28:27Z</time>
      </trkpt>
      <trkpt lat="42.729914" lon="1.594699">
        <ele>1894.9</ele>
        <time>2013-04-10T14:28:34Z</time>
      </trkpt>
      <trkpt lat="42.730011" lon="1.594692">
        <ele>1892.5</ele>
        <time>2013-04-10T14:28:41Z</time>
      </trkpt>
      <trkpt lat="42.730110" lon="1.594703">
        <ele>1890.6</ele>
        <time>2013-04-10T14:28:48Z</time>
      </trkpt>
      <trkpt lat="42.730208" lon="1.594701">
        <ele>1888.2</ele>
        <time>2013-04-10T14:28:56Z</time>
      </trkpt>
      <trkpt lat="42.730302" lon="1.594705">
        <ele>1886.2</ele>
        <time>2013-04-10T14:29:04Z</time>
      </trkpt>
      <trkpt lat="42.730404" lon="1.594691">
        <ele>1883.4</ele>
        <time>2013-04-10T14:29:12Z</time>
      </trkpt>
      <trkpt lat="42.730492" lon="1.594684">
        <ele>1881.4</ele>
        <time>2013-04-10T14:29:19Z</time>
      </trkpt>
      <trkpt lat="42.730589" lon="1.594685">
        <ele>1879.0</ele>
        <time>2013-04-10T14:29:28Z</time>
      </trkpt>
      <trkpt lat="42.730699" lon="1.594693">
        <ele>1876.6</ele>
        <time>2013-04-10T14:29:37Z</time>
      </trkpt>
      <trkpt lat="42.730797" lon="1.594689">
        <ele>1873.8</ele>
        <time>2013-04-10T14:29:45Z</time>
      </trkpt>
      <trkpt lat="42.730897" lon="1.594704">
        <ele>1870.9</ele>
        <time>2013-04-10T14:29:55Z</time>
      </trkpt>
      <trkpt lat="42.730998" lon="1.594696">
        <ele>1867.5</ele>
        <time>2013-04-10T14:30:04Z</time>
      </trkpt>
      <trkpt lat="42.731093" lon="1.594674">
        <ele>1863.7</ele>
        <time>2013-04-10T14:30:12Z</time>
      </trkpt>
      <trkpt lat="42.731184" lon="1.594664">
        <ele>1859.8</ele>
        <time>2013-04-10T14:30:19Z</time>
      </trkpt>
      <trkpt lat="42.731285" lon="1.594629">
        <ele>1856.4</ele>
        <time>2013-04-10T14:30:27Z</time>
      </trkpt>
      <trkpt lat="42.731379" lon="1.594613">
        <ele>1853.1</ele>
        <time>2013-04-10T14:30:34Z</time>
      </trkpt>
      <trkpt lat="42.731474" lon="1.594582">
        <ele>1849.2</ele>
        <time>2013-04-10T14:30:41Z</time>
      </trkpt>
      <trkpt lat="42.731575" lon="1.594595">
        <ele>1845.9</ele>
        <time>2013-04-10T14:30:49Z</time>
      </trkpt>
      <trkpt lat="42.731666" lon="1.594598">
        <ele>1843.0</ele>
        <time>2013-04-10T14:30:58Z</time>
      </trkpt>
      <trkpt lat="42.731765" lon="1.594612">
        <ele>1839.1</ele>
        <time>2013-04-10T14:31:07Z</time>
      </trkpt>
      <trkpt lat="42.731864" lon="1.594592">
        <ele>1834.3</ele>
        <time>2013-04-10T14:31:15Z</time>
      </trkpt>
      <trkpt lat="42.731959" lon="1.594585">
        <ele>1831.0</ele>
        <time>2013-04-10T14:31:23Z</time>
      </trkpt>
      <trkpt lat="42.732061" lon="1.594571">
        <ele>1827.6</ele>
        <time>2013-04-10T14:31:31Z</time>
      </trkpt>
      <trkpt lat="42.732148" lon="1.594559">
        <ele>1823.8</ele>
        <time>2013-04-10T14:31:44Z</time>
      </trkpt>
      <trkpt lat="42.732143" lon="1.594560">
        <ele>1824.7</ele>
        <time>2013-04-10T14:34:54Z</time>
      </trkpt>
      <trkpt lat="42.732210" lon="1.594569">
        <ele>1823.3</ele>
        <time>2013-04-10T14:35:39Z</time>
      </trkpt>
      <trkpt lat="42.732267" lon="1.594684">
        <ele>1819.9</ele>
        <time>2013-04-10T14:35:52Z</time>
      </trkpt>
      <trkpt lat="42.732339" lon="1.594757">
        <ele>1819.4</ele>
        <time>2013-04-10T14:36:03Z</time>
      </trkpt>
      <trkpt lat="42.732401" lon="1.594855">
        <ele>1817.5</ele>
        <time>2013-04-10T14:36:17Z</time>
      </trkpt>
      <trkpt lat="42.732477" lon="1.594884">
        <ele>1817.0</ele>
        <time>2013-04-10T14:36:40Z</time>
      </trkpt>
      <trkpt lat="42.732557" lon="1.594924">
        <ele>1814.2</ele>
        <time>2013-04-10T14:37:07Z</time>
      </trkpt>
      <trkpt lat="42.732626" lon="1.594991">
        <ele>1811.3</ele>
        <time>2013-04-10T14:37:18Z</time>
      </trkpt>
      <trkpt lat="42.732704" lon="1.595011">
        <ele>1807.9</ele>
        <time>2013-04-10T14:37:37Z</time>
      </trkpt>
      <trkpt lat="42.732795" lon="1.595011">
        <ele>1803.1</ele>
        <time>2013-04-10T14:37:47Z</time>
      </trkpt>
      <trkpt lat="42.732835" lon="1.594912">
        <ele>1801.7</ele>
        <time>2013-04-10T14:37:58Z</time>
      </trkpt>
      <trkpt lat="42.732900" lon="1.594914">
        <ele>1797.8</ele>
        <time>2013-04-10T14:38:09Z</time>
      </trkpt>
      <trkpt lat="42.732966" lon="1.594994">
        <ele>1794.4</ele>
        <time>2013-04-10T14:38:19Z</time>
      </trkpt>
      <trkpt lat="42.733046" lon="1.594997">
        <ele>1790.1</ele>
        <time>2013-04-10T14:38:36Z</time>
      </trkpt>
      <trkpt lat="42.733139" lon="1.594941">
        <ele>1787.2</ele>
        <time>2013-04-10T14:38:45Z</time>
      </trkpt>
      <trkpt lat="42.733209" lon="1.595001">
        <ele>1783.4</ele>
        <time>2013-04-10T14:38:58Z</time>
      </trkpt>
      <trkpt lat="42.733308" lon="1.594978">
        <ele>1778.1</ele>
        <time>2013-04-10T14:39:08Z</time>
      </trkpt>
      <trkpt lat="42.733391" lon="1.594963">
        <ele>1772.8</ele>
        <time>2013-04-10T14:39:20Z</time>
      </trkpt>
      <trkpt lat="42.733483" lon="1.594892">
        <ele>1767.0</ele>
        <time>2013-04-10T14:39:30Z</time>
      </trkpt>
      <trkpt lat="42.733542" lon="1.594837">
        <ele>1764.6</ele>
        <time>2013-04-10T14:40:49Z</time>
      </trkpt>
      <trkpt lat="42.733640" lon="1.594835">
        <ele>1759.8</ele>
        <time>2013-04-10T14:40:58Z</time>
      </trkpt>
      <trkpt lat="42.733724" lon="1.594800">
        <ele>1755.0</ele>
        <time>2013-04-10T14:41:07Z</time>
      </trkpt>
      <trkpt lat="42.733801" lon="1.594752">
        <ele>1751.2</ele>
        <time>2013-04-10T14:41:21Z</time>
      </trkpt>
      <trkpt lat="42.733889" lon="1.594786">
        <ele>1745.4</ele>
        <time>2013-04-10T14:41:35Z</time>
      </trkpt>
      <trkpt lat="42.733938" lon="1.594783">
        <ele>1741.1</ele>
        <time>2013-04-10T14:44:04Z</time>
      </trkpt>
      <trkpt lat="42.734027" lon="1.594807">
        <ele>1738.2</ele>
        <time>2013-04-10T14:44:29Z</time>
      </trkpt>
      <trkpt lat="42.734107" lon="1.594772">
        <ele>1731.0</ele>
        <time>2013-04-10T14:44:40Z</time>
      </trkpt>
      <trkpt lat="42.734121" lon="1.594748">
        <ele>1730.5</ele>
        <time>2013-04-10T14:45:02Z</time>
      </trkpt>
      <trkpt lat="42.734182" lon="1.594814">
        <ele>1726.7</ele>
        <time>2013-04-10T14:45:12Z</time>
      </trkpt>
      <trkpt lat="42.734255" lon="1.594848">
        <ele>1722.3</ele>
        <time>2013-04-10T14:45:23Z</time>
      </trkpt>
      <trkpt lat="42.734341" lon="1.594821">
        <ele>1718.0</ele>
        <time>2013-04-10T14:46:28Z</time>
      </trkpt>
      <trkpt lat="42.734392" lon="1.594825">
        <ele>1712.2</ele>
        <time>2013-04-10T14:46:51Z</time>
      </trkpt>
      <trkpt lat="42.734485" lon="1.594843">
        <ele>1706.0</ele>
        <time>2013-04-10T14:47:03Z</time>
      </trkpt>
      <trkpt lat="42.734577" lon="1.594855">
        <ele>1699.8</ele>
        <time>2013-04-10T14:47:14Z</time>
      </trkpt>
      <trkpt lat="42.734664" lon="1.594826">
        <ele>1694.0</ele>
        <time>2013-04-10T14:47:33Z</time>
      </trkpt>
      <trkpt lat="42.734736" lon="1.594782">
        <ele>1690.1</ele>
        <time>2013-04-10T14:48:07Z</time>
      </trkpt>
      <trkpt lat="42.734807" lon="1.594736">
        <ele>1686.8</ele>
        <time>2013-04-10T14:48:16Z</time>
      </trkpt>
      <trkpt lat="42.734901" lon="1.594720">
        <ele>1683.4</ele>
        <time>2013-04-10T14:48:22Z</time>
      </trkpt>
      <trkpt lat="42.734901" lon="1.594639">
        <ele>1680.0</ele>
        <time>2013-04-10T14:49:51Z</time>
      </trkpt>
      <trkpt lat="42.734935" lon="1.594515">
        <ele>1675.2</ele>
        <time>2013-04-10T14:50:03Z</time>
      </trkpt>
      <trkpt lat="42.734937" lon="1.594417">
        <ele>1673.3</ele>
        <time>2013-04-10T14:50:15Z</time>
      </trkpt>
      <trkpt lat="42.734998" lon="1.594337">
        <ele>1667.1</ele>
        <time>2013-04-10T14:50:41Z</time>
      </trkpt>
      <trkpt lat="42.735104" lon="1.594394">
        <ele>1662.7</ele>
        <time>2013-04-10T14:54:30Z</time>
      </trkpt>
      <trkpt lat="42.735150" lon="1.594264">
        <ele>1656.0</ele>
        <time>2013-04-10T14:54:58Z</time>
      </trkpt>
      <trkpt lat="42.735267" lon="1.594386">
        <ele>1653.1</ele>
        <time>2013-04-10T14:55:36Z</time>
      </trkpt>
      <trkpt lat="42.735382" lon="1.594451">
        <ele>1646.4</ele>
        <time>2013-04-10T14:55:48Z</time>
      </trkpt>
      <trkpt lat="42.735461" lon="1.594489">
        <ele>1643.5</ele>
        <time>2013-04-10T14:56:21Z</time>
      </trkpt>
      <trkpt lat="42.735540" lon="1.594557">
        <ele>1637.7</ele>
        <time>2013-04-10T14:56:31Z</time>
      </trkpt>
      <trkpt lat="42.735646" lon="1.594560">
        <ele>1633.4</ele>
        <time>2013-04-10T14:56:41Z</time>
      </trkpt>
      <trkpt lat="42.735658" lon="1.594468">
        <ele>1627.2</ele>
        <time>2013-04-10T14:57:05Z</time>
      </trkpt>
      <trkpt lat="42.735781" lon="1.594552">
        <ele>1625.2</ele>
        <time>2013-04-10T14:58:23Z</time>
      </trkpt>
      <trkpt lat="42.735888" lon="1.594556">
        <ele>1624.8</ele>
        <time>2013-04-10T15:03:57Z</time>
      </trkpt>
      <trkpt lat="42.735969" lon="1.594547">
        <ele>1619.5</ele>
        <time>2013-04-10T15:07:00Z</time>
      </trkpt>
      <trkpt lat="42.736053" lon="1.594611">
        <ele>1613.7</ele>
        <time>2013-04-10T15:07:20Z</time>
      </trkpt>
      <trkpt lat="42.736255" lon="1.594557">
        <ele>1599.3</ele>
        <time>2013-04-10T15:08:05Z</time>
      </trkpt>
      <trkpt lat="42.736406" lon="1.594550">
        <ele>1592.1</ele>
        <time>2013-04-10T15:08:29Z</time>
      </trkpt>
      <trkpt lat="42.736465" lon="1.594658">
        <ele>1589.2</ele>
        <time>2013-04-10T15:09:02Z</time>
      </trkpt>
      <trkpt lat="42.736546" lon="1.594739">
        <ele>1584.9</ele>
        <time>2013-04-10T15:10:52Z</time>
      </trkpt>
      <trkpt lat="42.736663" lon="1.594696">
        <ele>1577.7</ele>
        <time>2013-04-10T15:11:50Z</time>
      </trkpt>
      <trkpt lat="42.736789" lon="1.594725">
        <ele>1570.4</ele>
        <time>2013-04-10T15:12:29Z</time>
      </trkpt>
      <trkpt lat="42.736885" lon="1.594722">
        <ele>1563.2</ele>
        <time>2013-04-10T15:13:21Z</time>
      </trkpt>
      <trkpt lat="42.736988" lon="1.594746">
        <ele>1556.0</ele>
        <time>2013-04-10T15:13:56Z</time>
      </trkpt>
      <trkpt lat="42.737113" lon="1.594865">
        <ele>1548.3</ele>
        <time>2013-04-10T15:16:12Z</time>
      </trkpt>
      <trkpt lat="42.737229" lon="1.594782">
        <ele>1537.8</ele>
        <time>2013-04-10T15:16:55Z</time>
      </trkpt>
      <trkpt lat="42.737380" lon="1.594712">
        <ele>1527.2</ele>
        <time>2013-04-10T15:17:44Z</time>
      </trkpt>
      <trkpt lat="42.737468" lon="1.594651">
        <ele>1522.9</ele>
        <time>2013-04-10T15:18:17Z</time>
      </trkpt>
      <trkpt lat="42.737649" lon="1.594615">
        <ele>1511.3</ele>
        <time>2013-04-10T15:19:11Z</time>
      </trkpt>
      <trkpt lat="42.737830" lon="1.594555">
        <ele>1499.8</ele>
        <time>2013-04-10T15:19:58Z</time>
      </trkpt>
      <trkpt lat="42.738020" lon="1.594594">
        <ele>1491.1</ele>
        <time>2013-04-10T15:21:02Z</time>
      </trkpt>
      <trkpt lat="42.738177" lon="1.594687">
        <ele>1478.7</ele>
        <time>2013-04-10T15:21:49Z</time>
      </trkpt>
      <trkpt lat="42.738327" lon="1.594693">
        <ele>1470.5</ele>
        <time>2013-04-10T15:22:08Z</time>
      </trkpt>
      <trkpt lat="42.738441" lon="1.594774">
        <ele>1464.2</ele>
        <time>2013-04-10T15:22:31Z</time>
      </trkpt>
      <trkpt lat="42.738547" lon="1.594781">
        <ele>1456.5</ele>
        <time>2013-04-10T15:23:00Z</time>
      </trkpt>
      <trkpt lat="42.738607" lon="1.594916">
        <ele>1455.1</ele>
        <time>2013-04-10T15:23:15Z</time>
      </trkpt>
      <trkpt lat="42.738768" lon="1.594926">
        <ele>1444.5</ele>
        <time>2013-04-10T15:23:50Z</time>
      </trkpt>
      <trkpt lat="42.738889" lon="1.594866">
        <ele>1439.7</ele>
        <time>2013-04-10T15:24:09Z</time>
      </trkpt>
      <trkpt lat="42.738993" lon="1.594811">
        <ele>1436.3</ele>
        <time>2013-04-10T15:26:36Z</time>
      </trkpt>
      <trkpt lat="42.739107" lon="1.594794">
        <ele>1429.1</ele>
        <time>2013-04-10T15:27:03Z</time>
      </trkpt>
      <trkpt lat="42.739138" lon="1.594672">
        <ele>1426.7</ele>
        <time>2013-04-10T15:28:24Z</time>
      </trkpt>
      <trkpt lat="42.739273" lon="1.594686">
        <ele>1418.6</ele>
        <time>2013-04-10T15:28:50Z</time>
      </trkpt>
      <trkpt lat="42.739386" lon="1.594647">
        <ele>1413.3</ele>
        <time>2013-04-10T15:29:22Z</time>
      </trkpt>
      <trkpt lat="42.739513" lon="1.594607">
        <ele>1407.5</ele>
        <time>2013-04-10T15:29:43Z</time>
      </trkpt>
      <trkpt lat="42.739598" lon="1.594554">
        <ele>1403.2</ele>
        <time>2013-04-10T15:30:01Z</time>
      </trkpt>
      <trkpt lat="42.739716" lon="1.594641">
        <ele>1401.3</ele>
        <time>2013-04-10T15:30:19Z</time>
      </trkpt>
      <trkpt lat="42.739805" lon="1.594545">
        <ele>1396.4</ele>
        <time>2013-04-10T15:30:36Z</time>
      </trkpt>
      <trkpt lat="42.739872" lon="1.594617">
        <ele>1394.5</ele>
        <time>2013-04-10T15:31:38Z</time>
        <name>Refuge forestier</name>
      </trkpt>
      <trkpt lat="42.739852" lon="1.594627">
        <ele>1396.0</ele>
        <time>2013-04-10T15:32:43Z</time>
      </trkpt>
      <trkpt lat="42.739855" lon="1.594656">
        <ele>1395.0</ele>
        <time>2013-04-10T15:33:53Z</time>
      </trkpt>
      <trkpt lat="42.739845" lon="1.594631">
        <ele>1391.7</ele>
        <time>2013-04-10T15:39:57Z</time>
      </trkpt>
      <trkpt lat="42.740060" lon="1.594704">
        <ele>1387.8</ele>
        <time>2013-04-10T15:40:26Z</time>
      </trkpt>
      <trkpt lat="42.740178" lon="1.594638">
        <ele>1384.4</ele>
        <time>2013-04-10T15:40:46Z</time>
      </trkpt>
      <trkpt lat="42.740371" lon="1.594567">
        <ele>1379.6</ele>
        <time>2013-04-10T15:41:07Z</time>
      </trkpt>
      <trkpt lat="42.740524" lon="1.594551">
        <ele>1374.3</ele>
        <time>2013-04-10T15:41:27Z</time>
      </trkpt>
      <trkpt lat="42.740680" lon="1.594522">
        <ele>1368.6</ele>
        <time>2013-04-10T15:41:53Z</time>
      </trkpt>
      <trkpt lat="42.740886" lon="1.594475">
        <ele>1361.4</ele>
        <time>2013-04-10T15:42:27Z</time>
      </trkpt>
      <trkpt lat="42.741053" lon="1.594365">
        <ele>1354.2</ele>
        <time>2013-04-10T15:42:59Z</time>
      </trkpt>
      <trkpt lat="42.741118" lon="1.594260">
        <ele>1348.9</ele>
        <time>2013-04-10T15:43:20Z</time>
      </trkpt>
      <trkpt lat="42.741251" lon="1.594203">
        <ele>1344.5</ele>
        <time>2013-04-10T15:43:50Z</time>
      </trkpt>
      <trkpt lat="42.741351" lon="1.594192">
        <ele>1341.7</ele>
        <time>2013-04-10T15:44:06Z</time>
      </trkpt>
      <trkpt lat="42.741532" lon="1.594134">
        <ele>1334.9</ele>
        <time>2013-04-10T15:44:32Z</time>
      </trkpt>
      <trkpt lat="42.741658" lon="1.594021">
        <ele>1329.2</ele>
        <time>2013-04-10T15:44:53Z</time>
      </trkpt>
      <trkpt lat="42.741842" lon="1.594014">
        <ele>1321.5</ele>
        <time>2013-04-10T15:45:21Z</time>
      </trkpt>
      <trkpt lat="42.741975" lon="1.593977">
        <ele>1317.1</ele>
        <time>2013-04-10T15:46:00Z</time>
      </trkpt>
      <trkpt lat="42.741964" lon="1.593860">
        <ele>1313.8</ele>
        <time>2013-04-10T15:46:14Z</time>
      </trkpt>
      <trkpt lat="42.741877" lon="1.593786">
        <ele>1312.8</ele>
        <time>2013-04-10T15:46:25Z</time>
      </trkpt>
      <trkpt lat="42.741799" lon="1.593744">
        <ele>1310.4</ele>
        <time>2013-04-10T15:46:35Z</time>
      </trkpt>
      <trkpt lat="42.741711" lon="1.593660">
        <ele>1308.5</ele>
        <time>2013-04-10T15:46:46Z</time>
      </trkpt>
      <trkpt lat="42.741618" lon="1.593551">
        <ele>1307.5</ele>
        <time>2013-04-10T15:46:55Z</time>
      </trkpt>
      <trkpt lat="42.741529" lon="1.593443">
        <ele>1305.6</ele>
        <time>2013-04-10T15:47:05Z</time>
      </trkpt>
      <trkpt lat="42.741433" lon="1.593337">
        <ele>1303.2</ele>
        <time>2013-04-10T15:47:20Z</time>
      </trkpt>
      <trkpt lat="42.741308" lon="1.593194">
        <ele>1301.3</ele>
        <time>2013-04-10T15:47:34Z</time>
      </trkpt>
      <trkpt lat="42.741231" lon="1.593091">
        <ele>1299.8</ele>
        <time>2013-04-10T15:47:48Z</time>
      </trkpt>
      <trkpt lat="42.741298" lon="1.592944">
        <ele>1295.0</ele>
        <time>2013-04-10T15:48:02Z</time>
      </trkpt>
      <trkpt lat="42.741438" lon="1.593038">
        <ele>1294.1</ele>
        <time>2013-04-10T15:48:23Z</time>
      </trkpt>
      <trkpt lat="42.741534" lon="1.593095">
        <ele>1293.1</ele>
        <time>2013-04-10T15:48:35Z</time>
      </trkpt>
      <trkpt lat="42.741697" lon="1.593144">
        <ele>1290.7</ele>
        <time>2013-04-10T15:48:54Z</time>
      </trkpt>
      <trkpt lat="42.741887" lon="1.593213">
        <ele>1289.8</ele>
        <time>2013-04-10T15:49:11Z</time>
      </trkpt>
      <trkpt lat="42.742001" lon="1.593270">
        <ele>1288.3</ele>
        <time>2013-04-10T15:49:23Z</time>
      </trkpt>
      <trkpt lat="42.742145" lon="1.593318">
        <ele>1287.3</ele>
        <time>2013-04-10T15:49:37Z</time>
      </trkpt>
      <trkpt lat="42.742284" lon="1.593343">
        <ele>1285.4</ele>
        <time>2013-04-10T15:49:47Z</time>
      </trkpt>
      <trkpt lat="42.742412" lon="1.593392">
        <ele>1284.5</ele>
        <time>2013-04-10T15:49:58Z</time>
      </trkpt>
      <trkpt lat="42.742547" lon="1.593422">
        <ele>1283.5</ele>
        <time>2013-04-10T15:50:09Z</time>
      </trkpt>
      <trkpt lat="42.742662" lon="1.593498">
        <ele>1282.1</ele>
        <time>2013-04-10T15:50:18Z</time>
      </trkpt>
      <trkpt lat="42.742757" lon="1.593604">
        <ele>1281.6</ele>
        <time>2013-04-10T15:50:26Z</time>
      </trkpt>
      <trkpt lat="42.742744" lon="1.593759">
        <ele>1280.6</ele>
        <time>2013-04-10T15:50:37Z</time>
      </trkpt>
      <trkpt lat="42.742663" lon="1.593957">
        <ele>1279.2</ele>
        <time>2013-04-10T15:50:52Z</time>
      </trkpt>
      <trkpt lat="42.742640" lon="1.594103">
        <ele>1278.7</ele>
        <time>2013-04-10T15:51:04Z</time>
      </trkpt>
      <trkpt lat="42.742592" lon="1.594285">
        <ele>1277.2</ele>
        <time>2013-04-10T15:51:29Z</time>
      </trkpt>
      <trkpt lat="42.742530" lon="1.594407">
        <ele>1275.8</ele>
        <time>2013-04-10T15:51:42Z</time>
      </trkpt>
      <trkpt lat="42.742503" lon="1.594618">
        <ele>1274.4</ele>
        <time>2013-04-10T15:51:55Z</time>
      </trkpt>
      <trkpt lat="42.742456" lon="1.594805">
        <ele>1273.9</ele>
        <time>2013-04-10T15:52:10Z</time>
      </trkpt>
      <trkpt lat="42.742570" lon="1.594974">
        <ele>1272.9</ele>
        <time>2013-04-10T15:52:28Z</time>
      </trkpt>
      <trkpt lat="42.742707" lon="1.594978">
        <ele>1271.5</ele>
        <time>2013-04-10T15:52:43Z</time>
      </trkpt>
      <trkpt lat="42.742838" lon="1.594965">
        <ele>1269.6</ele>
        <time>2013-04-10T15:52:55Z</time>
      </trkpt>
      <trkpt lat="42.742959" lon="1.594928">
        <ele>1268.6</ele>
        <time>2013-04-10T15:53:04Z</time>
      </trkpt>
      <trkpt lat="42.743089" lon="1.594893">
        <ele>1267.6</ele>
        <time>2013-04-10T15:53:13Z</time>
      </trkpt>
      <trkpt lat="42.743217" lon="1.594897">
        <ele>1266.7</ele>
        <time>2013-04-10T15:53:22Z</time>
      </trkpt>
      <trkpt lat="42.743352" lon="1.594901">
        <ele>1265.2</ele>
        <time>2013-04-10T15:53:32Z</time>
      </trkpt>
      <trkpt lat="42.743455" lon="1.594880">
        <ele>1264.8</ele>
        <time>2013-04-10T15:53:41Z</time>
      </trkpt>
      <trkpt lat="42.743568" lon="1.594876">
        <ele>1264.3</ele>
        <time>2013-04-10T15:53:49Z</time>
      </trkpt>
      <trkpt lat="42.743687" lon="1.594993">
        <ele>1262.3</ele>
        <time>2013-04-10T15:54:00Z</time>
      </trkpt>
      <trkpt lat="42.743735" lon="1.595149">
        <ele>1262.3</ele>
        <time>2013-04-10T15:54:09Z</time>
      </trkpt>
      <trkpt lat="42.743799" lon="1.595304">
        <ele>1261.9</ele>
        <time>2013-04-10T15:54:18Z</time>
      </trkpt>
      <trkpt lat="42.743885" lon="1.595400">
        <ele>1261.4</ele>
        <time>2013-04-10T15:54:27Z</time>
      </trkpt>
      <trkpt lat="42.743956" lon="1.595330">
        <ele>1260.9</ele>
        <time>2013-04-10T15:54:39Z</time>
      </trkpt>
      <trkpt lat="42.743999" lon="1.595176">
        <ele>1259.9</ele>
        <time>2013-04-10T15:54:48Z</time>
      </trkpt>
      <trkpt lat="42.744050" lon="1.595096">
        <ele>1259.0</ele>
        <time>2013-04-10T15:55:59Z</time>
      </trkpt>
      <trkpt lat="42.744134" lon="1.595006">
        <ele>1253.7</ele>
        <time>2013-04-10T15:56:09Z</time>
      </trkpt>
      <trkpt lat="42.744238" lon="1.594964">
        <ele>1256.6</ele>
        <time>2013-04-10T15:56:19Z</time>
      </trkpt>
      <trkpt lat="42.744314" lon="1.594888">
        <ele>1255.1</ele>
        <time>2013-04-10T15:56:30Z</time>
      </trkpt>
      <trkpt lat="42.744388" lon="1.594821">
        <ele>1254.7</ele>
        <time>2013-04-10T15:56:37Z</time>
      </trkpt>
      <trkpt lat="42.744442" lon="1.594707">
        <ele>1253.7</ele>
        <time>2013-04-10T15:56:45Z</time>
      </trkpt>
      <trkpt lat="42.744506" lon="1.594511">
        <ele>1255.6</ele>
        <time>2013-04-10T15:56:57Z</time>
      </trkpt>
      <trkpt lat="42.744485" lon="1.594375">
        <ele>1251.3</ele>
        <time>2013-04-10T15:57:06Z</time>
      </trkpt>
      <trkpt lat="42.744405" lon="1.594300">
        <ele>1250.3</ele>
        <time>2013-04-10T15:57:14Z</time>
      </trkpt>
      <trkpt lat="42.744305" lon="1.594237">
        <ele>1252.7</ele>
        <time>2013-04-10T15:57:23Z</time>
      </trkpt>
      <trkpt lat="42.744197" lon="1.594204">
        <ele>1248.4</ele>
        <time>2013-04-10T15:57:32Z</time>
      </trkpt>
      <trkpt lat="42.744095" lon="1.594214">
        <ele>1247.0</ele>
        <time>2013-04-10T15:57:42Z</time>
      </trkpt>
      <trkpt lat="42.744017" lon="1.594290">
        <ele>1247.0</ele>
        <time>2013-04-10T15:57:49Z</time>
      </trkpt>
      <trkpt lat="42.743926" lon="1.594373">
        <ele>1246.0</ele>
        <time>2013-04-10T15:57:59Z</time>
      </trkpt>
      <trkpt lat="42.743860" lon="1.594252">
        <ele>1244.6</ele>
        <time>2013-04-10T15:58:08Z</time>
      </trkpt>
      <trkpt lat="42.743878" lon="1.594071">
        <ele>1242.6</ele>
        <time>2013-04-10T15:58:17Z</time>
      </trkpt>
      <trkpt lat="42.743870" lon="1.593871">
        <ele>1241.2</ele>
        <time>2013-04-10T15:58:28Z</time>
      </trkpt>
      <trkpt lat="42.743826" lon="1.593708">
        <ele>1240.7</ele>
        <time>2013-04-10T15:58:36Z</time>
      </trkpt>
      <trkpt lat="42.743803" lon="1.593552">
        <ele>1240.2</ele>
        <time>2013-04-10T15:58:44Z</time>
      </trkpt>
      <trkpt lat="42.743837" lon="1.593414">
        <ele>1238.8</ele>
        <time>2013-04-10T15:58:53Z</time>
      </trkpt>
      <trkpt lat="42.743894" lon="1.593254">
        <ele>1237.3</ele>
        <time>2013-04-10T15:59:02Z</time>
      </trkpt>
      <trkpt lat="42.743965" lon="1.593135">
        <ele>1236.4</ele>
        <time>2013-04-10T15:59:10Z</time>
      </trkpt>
      <trkpt lat="42.744056" lon="1.593018">
        <ele>1234.5</ele>
        <time>2013-04-10T15:59:18Z</time>
      </trkpt>
      <trkpt lat="42.744112" lon="1.592891">
        <ele>1233.5</ele>
        <time>2013-04-10T15:59:26Z</time>
      </trkpt>
      <trkpt lat="42.744143" lon="1.592757">
        <ele>1232.1</ele>
        <time>2013-04-10T15:59:34Z</time>
      </trkpt>
      <trkpt lat="42.744196" lon="1.592638">
        <ele>1231.1</ele>
        <time>2013-04-10T15:59:42Z</time>
      </trkpt>
      <trkpt lat="42.744269" lon="1.592521">
        <ele>1230.1</ele>
        <time>2013-04-10T15:59:50Z</time>
      </trkpt>
      <trkpt lat="42.744372" lon="1.592397">
        <ele>1229.2</ele>
        <time>2013-04-10T16:00:00Z</time>
      </trkpt>
      <trkpt lat="42.744446" lon="1.592236">
        <ele>1228.2</ele>
        <time>2013-04-10T16:00:11Z</time>
      </trkpt>
      <trkpt lat="42.744498" lon="1.592079">
        <ele>1227.3</ele>
        <time>2013-04-10T16:00:20Z</time>
      </trkpt>
      <trkpt lat="42.744497" lon="1.591903">
        <ele>1225.8</ele>
        <time>2013-04-10T16:00:35Z</time>
      </trkpt>
      <trkpt lat="42.744562" lon="1.591749">
        <ele>1224.9</ele>
        <time>2013-04-10T16:00:45Z</time>
      </trkpt>
      <trkpt lat="42.744596" lon="1.591605">
        <ele>1223.9</ele>
        <time>2013-04-10T16:00:53Z</time>
      </trkpt>
      <trkpt lat="42.744640" lon="1.591459">
        <ele>1222.4</ele>
        <time>2013-04-10T16:01:00Z</time>
      </trkpt>
      <trkpt lat="42.744693" lon="1.591319">
        <ele>1221.5</ele>
        <time>2013-04-10T16:01:07Z</time>
      </trkpt>
      <trkpt lat="42.744757" lon="1.591199">
        <ele>1220.1</ele>
        <time>2013-04-10T16:01:25Z</time>
      </trkpt>
      <trkpt lat="42.744809" lon="1.591067">
        <ele>1218.1</ele>
        <time>2013-04-10T16:01:37Z</time>
      </trkpt>
      <trkpt lat="42.744862" lon="1.590933">
        <ele>1217.7</ele>
        <time>2013-04-10T16:01:46Z</time>
      </trkpt>
      <trkpt lat="42.744916" lon="1.590795">
        <ele>1215.7</ele>
        <time>2013-04-10T16:01:54Z</time>
      </trkpt>
      <trkpt lat="42.744971" lon="1.590662">
        <ele>1214.8</ele>
        <time>2013-04-10T16:02:02Z</time>
      </trkpt>
      <trkpt lat="42.745027" lon="1.590529">
        <ele>1213.3</ele>
        <time>2013-04-10T16:02:10Z</time>
      </trkpt>
      <trkpt lat="42.745067" lon="1.590399">
        <ele>1212.4</ele>
        <time>2013-04-10T16:02:18Z</time>
      </trkpt>
      <trkpt lat="42.745112" lon="1.590273">
        <ele>1211.9</ele>
        <time>2013-04-10T16:02:26Z</time>
      </trkpt>
      <trkpt lat="42.745156" lon="1.590135">
        <ele>1210.9</ele>
        <time>2013-04-10T16:02:34Z</time>
      </trkpt>
      <trkpt lat="42.745207" lon="1.589953">
        <ele>1210.0</ele>
        <time>2013-04-10T16:02:45Z</time>
      </trkpt>
      <trkpt lat="42.745253" lon="1.589805">
        <ele>1209.5</ele>
        <time>2013-04-10T16:02:55Z</time>
      </trkpt>
      <trkpt lat="42.745319" lon="1.589652">
        <ele>1208.5</ele>
        <time>2013-04-10T16:03:04Z</time>
      </trkpt>
      <trkpt lat="42.745363" lon="1.589508">
        <ele>1207.1</ele>
        <time>2013-04-10T16:03:12Z</time>
      </trkpt>
      <trkpt lat="42.745420" lon="1.589372">
        <ele>1206.6</ele>
        <time>2013-04-10T16:03:21Z</time>
      </trkpt>
      <trkpt lat="42.745472" lon="1.589232">
        <ele>1206.1</ele>
        <time>2013-04-10T16:03:31Z</time>
      </trkpt>
      <trkpt lat="42.745525" lon="1.589074">
        <ele>1204.7</ele>
        <time>2013-04-10T16:03:40Z</time>
      </trkpt>
      <trkpt lat="42.745575" lon="1.588889">
        <ele>1204.2</ele>
        <time>2013-04-10T16:03:57Z</time>
      </trkpt>
      <trkpt lat="42.745577" lon="1.588712">
        <ele>1203.7</ele>
        <time>2013-04-10T16:04:07Z</time>
      </trkpt>
      <trkpt lat="42.745613" lon="1.588536">
        <ele>1202.8</ele>
        <time>2013-04-10T16:04:17Z</time>
      </trkpt>
      <trkpt lat="42.745643" lon="1.588381">
        <ele>1201.8</ele>
        <time>2013-04-10T16:04:26Z</time>
      </trkpt>
      <trkpt lat="42.745684" lon="1.588230">
        <ele>1200.8</ele>
        <time>2013-04-10T16:04:35Z</time>
      </trkpt>
      <trkpt lat="42.745697" lon="1.588062">
        <ele>1199.9</ele>
        <time>2013-04-10T16:04:44Z</time>
      </trkpt>
      <trkpt lat="42.745710" lon="1.587912">
        <ele>1198.4</ele>
        <time>2013-04-10T16:04:53Z</time>
      </trkpt>
      <trkpt lat="42.745727" lon="1.587778">
        <ele>1196.5</ele>
        <time>2013-04-10T16:05:01Z</time>
      </trkpt>
      <trkpt lat="42.745766" lon="1.587626">
        <ele>1195.1</ele>
        <time>2013-04-10T16:05:11Z</time>
      </trkpt>
      <trkpt lat="42.745798" lon="1.587488">
        <ele>1194.6</ele>
        <time>2013-04-10T16:05:19Z</time>
      </trkpt>
      <trkpt lat="42.745864" lon="1.587364">
        <ele>1193.1</ele>
        <time>2013-04-10T16:05:28Z</time>
      </trkpt>
      <trkpt lat="42.745961" lon="1.587251">
        <ele>1192.2</ele>
        <time>2013-04-10T16:05:38Z</time>
      </trkpt>
      <trkpt lat="42.746051" lon="1.587145">
        <ele>1191.2</ele>
        <time>2013-04-10T16:05:47Z</time>
      </trkpt>
      <trkpt lat="42.746142" lon="1.587061">
        <ele>1190.2</ele>
        <time>2013-04-10T16:05:56Z</time>
      </trkpt>
      <trkpt lat="42.746255" lon="1.587002">
        <ele>1189.3</ele>
        <time>2013-04-10T16:06:07Z</time>
      </trkpt>
      <trkpt lat="42.746370" lon="1.586862">
        <ele>1191.2</ele>
        <time>2013-04-10T16:06:30Z</time>
      </trkpt>
      <trkpt lat="42.746423" lon="1.586750">
        <ele>1186.4</ele>
        <time>2013-04-10T16:06:39Z</time>
      </trkpt>
      <trkpt lat="42.746503" lon="1.586643">
        <ele>1181.6</ele>
        <time>2013-04-10T16:06:49Z</time>
      </trkpt>
      <trkpt lat="42.746602" lon="1.586538">
        <ele>1184.0</ele>
        <time>2013-04-10T16:06:58Z</time>
      </trkpt>
      <trkpt lat="42.746686" lon="1.586457">
        <ele>1183.0</ele>
        <time>2013-04-10T16:07:09Z</time>
      </trkpt>
      <trkpt lat="42.746793" lon="1.586365">
        <ele>1181.1</ele>
        <time>2013-04-10T16:07:19Z</time>
      </trkpt>
      <trkpt lat="42.746907" lon="1.586316">
        <ele>1180.2</ele>
        <time>2013-04-10T16:07:28Z</time>
      </trkpt>
      <trkpt lat="42.747039" lon="1.586255">
        <ele>1179.2</ele>
        <time>2013-04-10T16:07:40Z</time>
      </trkpt>
      <trkpt lat="42.747195" lon="1.586188">
        <ele>1178.2</ele>
        <time>2013-04-10T16:07:50Z</time>
      </trkpt>
      <trkpt lat="42.747328" lon="1.586206">
        <ele>1176.3</ele>
        <time>2013-04-10T16:07:59Z</time>
      </trkpt>
      <trkpt lat="42.747430" lon="1.586223">
        <ele>1176.3</ele>
        <time>2013-04-10T16:08:07Z</time>
      </trkpt>
      <trkpt lat="42.747540" lon="1.586217">
        <ele>1175.3</ele>
        <time>2013-04-10T16:08:16Z</time>
      </trkpt>
      <trkpt lat="42.747650" lon="1.586132">
        <ele>1174.4</ele>
        <time>2013-04-10T16:08:26Z</time>
      </trkpt>
      <trkpt lat="42.747667" lon="1.585958">
        <ele>1174.9</ele>
        <time>2013-04-10T16:08:34Z</time>
      </trkpt>
      <trkpt lat="42.747651" lon="1.585799">
        <ele>1175.3</ele>
        <time>2013-04-10T16:08:43Z</time>
      </trkpt>
      <trkpt lat="42.747618" lon="1.585622">
        <ele>1175.3</ele>
        <time>2013-04-10T16:08:53Z</time>
      </trkpt>
      <trkpt lat="42.747595" lon="1.585456">
        <ele>1175.3</ele>
        <time>2013-04-10T16:09:02Z</time>
      </trkpt>
      <trkpt lat="42.747629" lon="1.585307">
        <ele>1175.3</ele>
        <time>2013-04-10T16:09:10Z</time>
      </trkpt>
      <trkpt lat="42.747682" lon="1.585174">
        <ele>1174.9</ele>
        <time>2013-04-10T16:09:19Z</time>
      </trkpt>
      <trkpt lat="42.747749" lon="1.585019">
        <ele>1173.9</ele>
        <time>2013-04-10T16:09:29Z</time>
      </trkpt>
      <trkpt lat="42.747805" lon="1.584864">
        <ele>1173.4</ele>
        <time>2013-04-10T16:09:38Z</time>
      </trkpt>
      <trkpt lat="42.747855" lon="1.584718">
        <ele>1172.5</ele>
        <time>2013-04-10T16:09:47Z</time>
      </trkpt>
      <trkpt lat="42.747894" lon="1.584580">
        <ele>1172.0</ele>
        <time>2013-04-10T16:09:55Z</time>
      </trkpt>
      <trkpt lat="42.747930" lon="1.584413">
        <ele>1170.5</ele>
        <time>2013-04-10T16:10:04Z</time>
      </trkpt>
      <trkpt lat="42.747968" lon="1.584246">
        <ele>1170.1</ele>
        <time>2013-04-10T16:10:13Z</time>
      </trkpt>
      <trkpt lat="42.748002" lon="1.584099">
        <ele>1168.6</ele>
        <time>2013-04-10T16:10:21Z</time>
      </trkpt>
      <trkpt lat="42.748029" lon="1.583948">
        <ele>1167.2</ele>
        <time>2013-04-10T16:10:30Z</time>
      </trkpt>
      <trkpt lat="42.748044" lon="1.583792">
        <ele>1165.3</ele>
        <time>2013-04-10T16:10:40Z</time>
      </trkpt>
      <trkpt lat="42.748067" lon="1.583622">
        <ele>1164.3</ele>
        <time>2013-04-10T16:10:50Z</time>
      </trkpt>
      <trkpt lat="42.748085" lon="1.583453">
        <ele>1162.4</ele>
        <time>2013-04-10T16:10:58Z</time>
      </trkpt>
      <trkpt lat="42.748100" lon="1.583246">
        <ele>1161.4</ele>
        <time>2013-04-10T16:11:07Z</time>
      </trkpt>
      <trkpt lat="42.748103" lon="1.583089">
        <ele>1160.9</ele>
        <time>2013-04-10T16:11:15Z</time>
      </trkpt>
      <trkpt lat="42.748113" lon="1.582925">
        <ele>1159.0</ele>
        <time>2013-04-10T16:11:24Z</time>
      </trkpt>
      <trkpt lat="42.748114" lon="1.582757">
        <ele>1158.1</ele>
        <time>2013-04-10T16:11:33Z</time>
      </trkpt>
      <trkpt lat="42.748132" lon="1.582600">
        <ele>1157.1</ele>
        <time>2013-04-10T16:11:42Z</time>
      </trkpt>
      <trkpt lat="42.748174" lon="1.582452">
        <ele>1156.1</ele>
        <time>2013-04-10T16:11:51Z</time>
      </trkpt>
      <trkpt lat="42.748228" lon="1.582304">
        <ele>1154.2</ele>
        <time>2013-04-10T16:12:00Z</time>
      </trkpt>
      <trkpt lat="42.748262" lon="1.582171">
        <ele>1152.8</ele>
        <time>2013-04-10T16:12:07Z</time>
      </trkpt>
      <trkpt lat="42.748305" lon="1.582033">
        <ele>1151.3</ele>
        <time>2013-04-10T16:12:15Z</time>
      </trkpt>
      <trkpt lat="42.748340" lon="1.581900">
        <ele>1150.3</ele>
        <time>2013-04-10T16:12:23Z</time>
      </trkpt>
      <trkpt lat="42.748373" lon="1.581741">
        <ele>1148.9</ele>
        <time>2013-04-10T16:12:31Z</time>
      </trkpt>
      <trkpt lat="42.748415" lon="1.581606">
        <ele>1148.9</ele>
        <time>2013-04-10T16:12:38Z</time>
      </trkpt>
      <trkpt lat="42.748509" lon="1.581544">
        <ele>1147.5</ele>
        <time>2013-04-10T16:12:46Z</time>
      </trkpt>
      <trkpt lat="42.748612" lon="1.581535">
        <ele>1146.0</ele>
        <time>2013-04-10T16:12:54Z</time>
      </trkpt>
      <trkpt lat="42.748723" lon="1.581553">
        <ele>1144.6</ele>
        <time>2013-04-10T16:13:03Z</time>
      </trkpt>
      <trkpt lat="42.748832" lon="1.581535">
        <ele>1144.6</ele>
        <time>2013-04-10T16:13:12Z</time>
      </trkpt>
      <trkpt lat="42.748949" lon="1.581525">
        <ele>1143.1</ele>
        <time>2013-04-10T16:13:22Z</time>
      </trkpt>
      <trkpt lat="42.749070" lon="1.581497">
        <ele>1142.2</ele>
        <time>2013-04-10T16:13:32Z</time>
      </trkpt>
      <trkpt lat="42.749188" lon="1.581429">
        <ele>1138.3</ele>
        <time>2013-04-10T16:13:42Z</time>
      </trkpt>
      <trkpt lat="42.749284" lon="1.581366">
        <ele>1139.3</ele>
        <time>2013-04-10T16:13:51Z</time>
      </trkpt>
      <trkpt lat="42.749396" lon="1.581272">
        <ele>1138.3</ele>
        <time>2013-04-10T16:14:01Z</time>
      </trkpt>
      <trkpt lat="42.749505" lon="1.581182">
        <ele>1137.4</ele>
        <time>2013-04-10T16:14:10Z</time>
      </trkpt>
      <trkpt lat="42.749616" lon="1.581105">
        <ele>1136.4</ele>
        <time>2013-04-10T16:14:18Z</time>
      </trkpt>
      <trkpt lat="42.749747" lon="1.581012">
        <ele>1134.5</ele>
        <time>2013-04-10T16:14:27Z</time>
      </trkpt>
      <trkpt lat="42.749863" lon="1.580889">
        <ele>1133.1</ele>
        <time>2013-04-10T16:14:36Z</time>
      </trkpt>
      <trkpt lat="42.749931" lon="1.580765">
        <ele>1132.1</ele>
        <time>2013-04-10T16:14:45Z</time>
      </trkpt>
      <trkpt lat="42.750005" lon="1.580640">
        <ele>1130.7</ele>
        <time>2013-04-10T16:14:55Z</time>
      </trkpt>
      <trkpt lat="42.750066" lon="1.580479">
        <ele>1129.2</ele>
        <time>2013-04-10T16:15:05Z</time>
      </trkpt>
      <trkpt lat="42.750103" lon="1.580300">
        <ele>1128.2</ele>
        <time>2013-04-10T16:15:13Z</time>
      </trkpt>
      <trkpt lat="42.750136" lon="1.580164">
        <ele>1127.3</ele>
        <time>2013-04-10T16:15:20Z</time>
      </trkpt>
      <trkpt lat="42.750193" lon="1.580050">
        <ele>1125.8</ele>
        <time>2013-04-10T16:15:28Z</time>
      </trkpt>
      <trkpt lat="42.750245" lon="1.579910">
        <ele>1124.9</ele>
        <time>2013-04-10T16:15:37Z</time>
      </trkpt>
      <trkpt lat="42.750292" lon="1.579778">
        <ele>1123.9</ele>
        <time>2013-04-10T16:15:46Z</time>
      </trkpt>
      <trkpt lat="42.750336" lon="1.579617">
        <ele>1122.5</ele>
        <time>2013-04-10T16:15:55Z</time>
      </trkpt>
      <trkpt lat="42.750373" lon="1.579456">
        <ele>1121.0</ele>
        <time>2013-04-10T16:16:04Z</time>
      </trkpt>
      <trkpt lat="42.750390" lon="1.579292">
        <ele>1120.1</ele>
        <time>2013-04-10T16:16:13Z</time>
      </trkpt>
      <trkpt lat="42.750412" lon="1.579123">
        <ele>1119.1</ele>
        <time>2013-04-10T16:16:21Z</time>
      </trkpt>
      <trkpt lat="42.750429" lon="1.578983">
        <ele>1117.7</ele>
        <time>2013-04-10T16:16:29Z</time>
      </trkpt>
      <trkpt lat="42.750422" lon="1.578827">
        <ele>1117.2</ele>
        <time>2013-04-10T16:16:38Z</time>
      </trkpt>
      <trkpt lat="42.750418" lon="1.578656">
        <ele>1116.2</ele>
        <time>2013-04-10T16:16:47Z</time>
      </trkpt>
      <trkpt lat="42.750391" lon="1.578487">
        <ele>1114.8</ele>
        <time>2013-04-10T16:16:56Z</time>
      </trkpt>
      <trkpt lat="42.750390" lon="1.578322">
        <ele>1114.3</ele>
        <time>2013-04-10T16:17:04Z</time>
      </trkpt>
      <trkpt lat="42.750405" lon="1.578169">
        <ele>1113.3</ele>
        <time>2013-04-10T16:17:12Z</time>
      </trkpt>
      <trkpt lat="42.750402" lon="1.578013">
        <ele>1112.9</ele>
        <time>2013-04-10T16:17:21Z</time>
      </trkpt>
      <trkpt lat="42.750387" lon="1.577864">
        <ele>1111.4</ele>
        <time>2013-04-10T16:17:29Z</time>
      </trkpt>
      <trkpt lat="42.750388" lon="1.577704">
        <ele>1110.0</ele>
        <time>2013-04-10T16:17:37Z</time>
      </trkpt>
      <trkpt lat="42.750385" lon="1.577563">
        <ele>1109.0</ele>
        <time>2013-04-10T16:17:45Z</time>
      </trkpt>
      <trkpt lat="42.750376" lon="1.577427">
        <ele>1108.1</ele>
        <time>2013-04-10T16:17:53Z</time>
      </trkpt>
      <trkpt lat="42.750352" lon="1.577272">
        <ele>1105.7</ele>
        <time>2013-04-10T16:18:01Z</time>
      </trkpt>
      <trkpt lat="42.750343" lon="1.577128">
        <ele>1105.7</ele>
        <time>2013-04-10T16:18:10Z</time>
      </trkpt>
      <trkpt lat="42.750328" lon="1.576988">
        <ele>1105.2</ele>
        <time>2013-04-10T16:18:18Z</time>
      </trkpt>
      <trkpt lat="42.750353" lon="1.576839">
        <ele>1103.2</ele>
        <time>2013-04-10T16:18:27Z</time>
      </trkpt>
      <trkpt lat="42.750398" lon="1.576721">
        <ele>1103.2</ele>
        <time>2013-04-10T16:18:35Z</time>
      </trkpt>
      <trkpt lat="42.750473" lon="1.576612">
        <ele>1101.3</ele>
        <time>2013-04-10T16:18:44Z</time>
      </trkpt>
      <trkpt lat="42.750534" lon="1.576489">
        <ele>1100.4</ele>
        <time>2013-04-10T16:18:52Z</time>
      </trkpt>
      <trkpt lat="42.750595" lon="1.576364">
        <ele>1099.4</ele>
        <time>2013-04-10T16:18:59Z</time>
      </trkpt>
      <trkpt lat="42.750691" lon="1.576309">
        <ele>1098.4</ele>
        <time>2013-04-10T16:19:08Z</time>
      </trkpt>
      <trkpt lat="42.750804" lon="1.576294">
        <ele>1097.0</ele>
        <time>2013-04-10T16:19:16Z</time>
      </trkpt>
      <trkpt lat="42.750936" lon="1.576320">
        <ele>1096.0</ele>
        <time>2013-04-10T16:19:27Z</time>
      </trkpt>
      <trkpt lat="42.751074" lon="1.576344">
        <ele>1094.6</ele>
        <time>2013-04-10T16:19:37Z</time>
      </trkpt>
      <trkpt lat="42.751200" lon="1.576353">
        <ele>1092.7</ele>
        <time>2013-04-10T16:19:47Z</time>
      </trkpt>
      <trkpt lat="42.751333" lon="1.576315">
        <ele>1091.7</ele>
        <time>2013-04-10T16:19:57Z</time>
      </trkpt>
      <trkpt lat="42.751439" lon="1.576210">
        <ele>1090.8</ele>
        <time>2013-04-10T16:20:06Z</time>
      </trkpt>
      <trkpt lat="42.751548" lon="1.576144">
        <ele>1089.8</ele>
        <time>2013-04-10T16:20:15Z</time>
      </trkpt>
      <trkpt lat="42.751675" lon="1.576075">
        <ele>1088.3</ele>
        <time>2013-04-10T16:20:25Z</time>
      </trkpt>
      <trkpt lat="42.751800" lon="1.576032">
        <ele>1087.4</ele>
        <time>2013-04-10T16:20:34Z</time>
      </trkpt>
      <trkpt lat="42.751939" lon="1.575998">
        <ele>1085.9</ele>
        <time>2013-04-10T16:20:43Z</time>
      </trkpt>
      <trkpt lat="42.752070" lon="1.575982">
        <ele>1084.5</ele>
        <time>2013-04-10T16:20:53Z</time>
      </trkpt>
      <trkpt lat="42.752204" lon="1.575972">
        <ele>1083.5</ele>
        <time>2013-04-10T16:21:03Z</time>
      </trkpt>
      <trkpt lat="42.752353" lon="1.575950">
        <ele>1082.1</ele>
        <time>2013-04-10T16:21:14Z</time>
      </trkpt>
      <trkpt lat="42.752497" lon="1.575933">
        <ele>1080.7</ele>
        <time>2013-04-10T16:21:25Z</time>
      </trkpt>
      <trkpt lat="42.752645" lon="1.575892">
        <ele>1078.7</ele>
        <time>2013-04-10T16:21:36Z</time>
      </trkpt>
      <trkpt lat="42.752760" lon="1.575811">
        <ele>1078.3</ele>
        <time>2013-04-10T16:21:45Z</time>
      </trkpt>
      <trkpt lat="42.752881" lon="1.575752">
        <ele>1076.8</ele>
        <time>2013-04-10T16:21:55Z</time>
      </trkpt>
      <trkpt lat="42.753014" lon="1.575783">
        <ele>1074.9</ele>
        <time>2013-04-10T16:22:05Z</time>
      </trkpt>
      <trkpt lat="42.753155" lon="1.575795">
        <ele>1073.4</ele>
        <time>2013-04-10T16:22:15Z</time>
      </trkpt>
      <trkpt lat="42.753282" lon="1.575757">
        <ele>1072.0</ele>
        <time>2013-04-10T16:22:23Z</time>
      </trkpt>
      <trkpt lat="42.753406" lon="1.575798">
        <ele>1071.1</ele>
        <time>2013-04-10T16:22:33Z</time>
      </trkpt>
      <trkpt lat="42.753518" lon="1.575888">
        <ele>1069.1</ele>
        <time>2013-04-10T16:22:43Z</time>
      </trkpt>
      <trkpt lat="42.753676" lon="1.575979">
        <ele>1067.7</ele>
        <time>2013-04-10T16:22:56Z</time>
      </trkpt>
      <trkpt lat="42.753899" lon="1.576031">
        <ele>1066.2</ele>
        <time>2013-04-10T16:23:10Z</time>
      </trkpt>
      <trkpt lat="42.754080" lon="1.576019">
        <ele>1064.8</ele>
        <time>2013-04-10T16:23:21Z</time>
      </trkpt>
      <trkpt lat="42.754205" lon="1.576003">
        <ele>1063.4</ele>
        <time>2013-04-10T16:23:30Z</time>
      </trkpt>
      <trkpt lat="42.754324" lon="1.575969">
        <ele>1061.9</ele>
        <time>2013-04-10T16:23:38Z</time>
      </trkpt>
      <trkpt lat="42.754415" lon="1.575921">
        <ele>1061.4</ele>
        <time>2013-04-10T16:23:47Z</time>
      </trkpt>
      <trkpt lat="42.754524" lon="1.575886">
        <ele>1060.5</ele>
        <time>2013-04-10T16:23:55Z</time>
      </trkpt>
      <trkpt lat="42.754640" lon="1.575885">
        <ele>1059.0</ele>
        <time>2013-04-10T16:24:04Z</time>
      </trkpt>
      <trkpt lat="42.754775" lon="1.575883">
        <ele>1058.1</ele>
        <time>2013-04-10T16:24:14Z</time>
      </trkpt>
      <trkpt lat="42.754899" lon="1.575853">
        <ele>1056.6</ele>
        <time>2013-04-10T16:24:22Z</time>
      </trkpt>
      <trkpt lat="42.755003" lon="1.575796">
        <ele>1056.2</ele>
        <time>2013-04-10T16:24:29Z</time>
      </trkpt>
      <trkpt lat="42.755096" lon="1.575763">
        <ele>1055.2</ele>
        <time>2013-04-10T16:24:37Z</time>
      </trkpt>
      <trkpt lat="42.755212" lon="1.575753">
        <ele>1054.2</ele>
        <time>2013-04-10T16:24:46Z</time>
      </trkpt>
      <trkpt lat="42.755320" lon="1.575749">
        <ele>1053.3</ele>
        <time>2013-04-10T16:24:55Z</time>
      </trkpt>
      <trkpt lat="42.755458" lon="1.575702">
        <ele>1052.3</ele>
        <time>2013-04-10T16:25:07Z</time>
      </trkpt>
      <trkpt lat="42.755636" lon="1.575704">
        <ele>1050.4</ele>
        <time>2013-04-10T16:25:17Z</time>
      </trkpt>
      <trkpt lat="42.755754" lon="1.575708">
        <ele>1049.9</ele>
        <time>2013-04-10T16:25:26Z</time>
      </trkpt>
      <trkpt lat="42.755881" lon="1.575710">
        <ele>1048.0</ele>
        <time>2013-04-10T16:25:36Z</time>
      </trkpt>
      <trkpt lat="42.756007" lon="1.575722">
        <ele>1047.0</ele>
        <time>2013-04-10T16:25:44Z</time>
      </trkpt>
      <trkpt lat="42.756135" lon="1.575713">
        <ele>1045.6</ele>
        <time>2013-04-10T16:25:53Z</time>
      </trkpt>
      <trkpt lat="42.756270" lon="1.575703">
        <ele>1044.1</ele>
        <time>2013-04-10T16:26:03Z</time>
      </trkpt>
      <trkpt lat="42.756398" lon="1.575762">
        <ele>1043.2</ele>
        <time>2013-04-10T16:26:11Z</time>
      </trkpt>
      <trkpt lat="42.756521" lon="1.575765">
        <ele>1041.7</ele>
        <time>2013-04-10T16:26:20Z</time>
      </trkpt>
      <trkpt lat="42.756633" lon="1.575747">
        <ele>1040.8</ele>
        <time>2013-04-10T16:26:28Z</time>
      </trkpt>
      <trkpt lat="42.756743" lon="1.575782">
        <ele>1039.3</ele>
        <time>2013-04-10T16:26:36Z</time>
      </trkpt>
      <trkpt lat="42.756837" lon="1.575867">
        <ele>1037.4</ele>
        <time>2013-04-10T16:26:44Z</time>
      </trkpt>
      <trkpt lat="42.756938" lon="1.575931">
        <ele>1035.5</ele>
        <time>2013-04-10T16:26:54Z</time>
      </trkpt>
      <trkpt lat="42.757057" lon="1.576007">
        <ele>1034.5</ele>
        <time>2013-04-10T16:27:04Z</time>
      </trkpt>
      <trkpt lat="42.757154" lon="1.576124">
        <ele>1033.1</ele>
        <time>2013-04-10T16:27:13Z</time>
      </trkpt>
      <trkpt lat="42.757234" lon="1.576231">
        <ele>1032.1</ele>
        <time>2013-04-10T16:27:20Z</time>
      </trkpt>
      <trkpt lat="42.757316" lon="1.576329">
        <ele>1031.2</ele>
        <time>2013-04-10T16:27:28Z</time>
      </trkpt>
      <trkpt lat="42.757433" lon="1.576383">
        <ele>1030.2</ele>
        <time>2013-04-10T16:27:40Z</time>
      </trkpt>
      <trkpt lat="42.757559" lon="1.576388">
        <ele>1028.8</ele>
        <time>2013-04-10T16:27:49Z</time>
      </trkpt>
      <trkpt lat="42.757668" lon="1.576444">
        <ele>1023.0</ele>
        <time>2013-04-10T16:27:59Z</time>
      </trkpt>
      <trkpt lat="42.757789" lon="1.576532">
        <ele>1026.3</ele>
        <time>2013-04-10T16:28:11Z</time>
      </trkpt>
      <trkpt lat="42.757922" lon="1.576497">
        <ele>1024.9</ele>
        <time>2013-04-10T16:28:20Z</time>
      </trkpt>
      <trkpt lat="42.758004" lon="1.576404">
        <ele>1024.4</ele>
        <time>2013-04-10T16:28:29Z</time>
      </trkpt>
      <trkpt lat="42.758098" lon="1.576260">
        <ele>1023.9</ele>
        <time>2013-04-10T16:28:41Z</time>
      </trkpt>
      <trkpt lat="42.758222" lon="1.576111">
        <ele>1023.9</ele>
        <time>2013-04-10T16:28:54Z</time>
      </trkpt>
      <trkpt lat="42.758299" lon="1.575963">
        <ele>1023.5</ele>
        <time>2013-04-10T16:29:05Z</time>
      </trkpt>
      <trkpt lat="42.758377" lon="1.575807">
        <ele>1023.0</ele>
        <time>2013-04-10T16:29:14Z</time>
      </trkpt>
      <trkpt lat="42.758453" lon="1.575671">
        <ele>1022.5</ele>
        <time>2013-04-10T16:29:24Z</time>
      </trkpt>
      <trkpt lat="42.758516" lon="1.575535">
        <ele>1022.5</ele>
        <time>2013-04-10T16:29:35Z</time>
      </trkpt>
      <trkpt lat="42.758608" lon="1.575403">
        <ele>1022.0</ele>
        <time>2013-04-10T16:29:42Z</time>
      </trkpt>
      <trkpt lat="42.758686" lon="1.575260">
        <ele>1022.0</ele>
        <time>2013-04-10T16:29:52Z</time>
      </trkpt>
      <trkpt lat="42.758723" lon="1.575139">
        <ele>1021.1</ele>
        <time>2013-04-10T16:30:27Z</time>
      </trkpt>
      <trkpt lat="42.758807" lon="1.575025">
        <ele>1021.1</ele>
        <time>2013-04-10T16:30:37Z</time>
      </trkpt>
      <trkpt lat="42.758914" lon="1.574907">
        <ele>1020.6</ele>
        <time>2013-04-10T16:30:45Z</time>
      </trkpt>
      <trkpt lat="42.758970" lon="1.574766">
        <ele>1020.1</ele>
        <time>2013-04-10T16:30:54Z</time>
      </trkpt>
      <trkpt lat="42.759054" lon="1.574649">
        <ele>1019.6</ele>
        <time>2013-04-10T16:31:05Z</time>
      </trkpt>
      <trkpt lat="42.759162" lon="1.574498">
        <ele>1018.7</ele>
        <time>2013-04-10T16:31:17Z</time>
      </trkpt>
      <trkpt lat="42.759291" lon="1.574393">
        <ele>1018.2</ele>
        <time>2013-04-10T16:31:25Z</time>
      </trkpt>
      <trkpt lat="42.759382" lon="1.574299">
        <ele>1018.2</ele>
        <time>2013-04-10T16:31:33Z</time>
      </trkpt>
      <trkpt lat="42.759500" lon="1.574254">
        <ele>1017.2</ele>
        <time>2013-04-10T16:31:43Z</time>
      </trkpt>
      <trkpt lat="42.759624" lon="1.574249">
        <ele>1015.8</ele>
        <time>2013-04-10T16:31:53Z</time>
      </trkpt>
      <trkpt lat="42.759767" lon="1.574241">
        <ele>1013.8</ele>
        <time>2013-04-10T16:32:04Z</time>
      </trkpt>
      <trkpt lat="42.759889" lon="1.574236">
        <ele>1012.4</ele>
        <time>2013-04-10T16:32:13Z</time>
      </trkpt>
      <trkpt lat="42.760040" lon="1.574221">
        <ele>1010.5</ele>
        <time>2013-04-10T16:32:26Z</time>
      </trkpt>
      <trkpt lat="42.760189" lon="1.574190">
        <ele>1008.1</ele>
        <time>2013-04-10T16:32:38Z</time>
      </trkpt>
      <trkpt lat="42.760339" lon="1.574140">
        <ele>1007.1</ele>
        <time>2013-04-10T16:32:49Z</time>
      </trkpt>
      <trkpt lat="42.760465" lon="1.574146">
        <ele>1006.2</ele>
        <time>2013-04-10T16:32:58Z</time>
      </trkpt>
      <trkpt lat="42.760625" lon="1.574233">
        <ele>1004.2</ele>
        <time>2013-04-10T16:33:09Z</time>
      </trkpt>
      <trkpt lat="42.760775" lon="1.574324">
        <ele>1002.3</ele>
        <time>2013-04-10T16:33:21Z</time>
      </trkpt>
      <trkpt lat="42.760857" lon="1.574429">
        <ele>1000.9</ele>
        <time>2013-04-10T16:33:33Z</time>
      </trkpt>
      <trkpt lat="42.761062" lon="1.574572">
        <ele>999.0</ele>
        <time>2013-04-10T16:33:49Z</time>
      </trkpt>
      <trkpt lat="42.761207" lon="1.574759">
        <ele>997.0</ele>
        <time>2013-04-10T16:34:02Z</time>
      </trkpt>
      <trkpt lat="42.761309" lon="1.574871">
        <ele>995.1</ele>
        <time>2013-04-10T16:34:13Z</time>
      </trkpt>
      <trkpt lat="42.761458" lon="1.574973">
        <ele>993.7</ele>
        <time>2013-04-10T16:34:25Z</time>
      </trkpt>
      <trkpt lat="42.761676" lon="1.575117">
        <ele>991.7</ele>
        <time>2013-04-10T16:34:45Z</time>
      </trkpt>
      <trkpt lat="42.761963" lon="1.575223">
        <ele>989.8</ele>
        <time>2013-04-10T16:35:01Z</time>
      </trkpt>
      <trkpt lat="42.762117" lon="1.575306">
        <ele>988.8</ele>
        <time>2013-04-10T16:35:14Z</time>
      </trkpt>
      <trkpt lat="42.762213" lon="1.575449">
        <ele>986.9</ele>
        <time>2013-04-10T16:35:26Z</time>
      </trkpt>
      <trkpt lat="42.762305" lon="1.575581">
        <ele>986.0</ele>
        <time>2013-04-10T16:35:36Z</time>
      </trkpt>
      <trkpt lat="42.762408" lon="1.575655">
        <ele>984.5</ele>
        <time>2013-04-10T16:35:48Z</time>
      </trkpt>
      <trkpt lat="42.762552" lon="1.575618">
        <ele>983.6</ele>
        <time>2013-04-10T16:35:59Z</time>
      </trkpt>
      <trkpt lat="42.762641" lon="1.575553">
        <ele>982.6</ele>
        <time>2013-04-10T16:36:08Z</time>
      </trkpt>
      <trkpt lat="42.762768" lon="1.575495">
        <ele>981.6</ele>
        <time>2013-04-10T16:36:18Z</time>
      </trkpt>
      <trkpt lat="42.762865" lon="1.575438">
        <ele>981.6</ele>
        <time>2013-04-10T16:36:27Z</time>
      </trkpt>
      <trkpt lat="42.762959" lon="1.575337">
        <ele>979.7</ele>
        <time>2013-04-10T16:36:35Z</time>
      </trkpt>
      <trkpt lat="42.763045" lon="1.575221">
        <ele>978.3</ele>
        <time>2013-04-10T16:36:43Z</time>
      </trkpt>
      <trkpt lat="42.763104" lon="1.575122">
        <ele>976.8</ele>
        <time>2013-04-10T16:36:51Z</time>
      </trkpt>
      <trkpt lat="42.763189" lon="1.575029">
        <ele>975.9</ele>
        <time>2013-04-10T16:36:59Z</time>
      </trkpt>
      <trkpt lat="42.763286" lon="1.574896">
        <ele>974.0</ele>
        <time>2013-04-10T16:37:08Z</time>
      </trkpt>
      <trkpt lat="42.763339" lon="1.574775">
        <ele>972.5</ele>
        <time>2013-04-10T16:37:16Z</time>
      </trkpt>
      <trkpt lat="42.763413" lon="1.574668">
        <ele>971.1</ele>
        <time>2013-04-10T16:37:25Z</time>
      </trkpt>
      <trkpt lat="42.763466" lon="1.574537">
        <ele>970.1</ele>
        <time>2013-04-10T16:37:33Z</time>
      </trkpt>
      <trkpt lat="42.763504" lon="1.574416">
        <ele>968.7</ele>
        <time>2013-04-10T16:37:40Z</time>
      </trkpt>
      <trkpt lat="42.763555" lon="1.574284">
        <ele>967.7</ele>
        <time>2013-04-10T16:37:48Z</time>
      </trkpt>
      <trkpt lat="42.763593" lon="1.574164">
        <ele>966.3</ele>
        <time>2013-04-10T16:37:56Z</time>
      </trkpt>
      <trkpt lat="42.763606" lon="1.574028">
        <ele>965.3</ele>
        <time>2013-04-10T16:38:04Z</time>
      </trkpt>
      <trkpt lat="42.763598" lon="1.573957">
        <ele>964.8</ele>
        <time>2013-04-10T16:38:24Z</time>
      </trkpt>
      <trkpt lat="42.763635" lon="1.573829">
        <ele>963.4</ele>
        <time>2013-04-10T16:38:35Z</time>
      </trkpt>
      <trkpt lat="42.763666" lon="1.573706">
        <ele>961.0</ele>
        <time>2013-04-10T16:38:43Z</time>
      </trkpt>
      <trkpt lat="42.763697" lon="1.573589">
        <ele>960.5</ele>
        <time>2013-04-10T16:38:51Z</time>
      </trkpt>
      <trkpt lat="42.763726" lon="1.573458">
        <ele>961.0</ele>
        <time>2013-04-10T16:38:59Z</time>
      </trkpt>
      <trkpt lat="42.763784" lon="1.573347">
        <ele>961.9</ele>
        <time>2013-04-10T16:39:07Z</time>
      </trkpt>
      <trkpt lat="42.763856" lon="1.573260">
        <ele>958.6</ele>
        <time>2013-04-10T16:39:15Z</time>
      </trkpt>
      <trkpt lat="42.763943" lon="1.573202">
        <ele>959.5</ele>
        <time>2013-04-10T16:39:24Z</time>
      </trkpt>
      <trkpt lat="42.764038" lon="1.573153">
        <ele>954.7</ele>
        <time>2013-04-10T16:39:33Z</time>
      </trkpt>
      <trkpt lat="42.764135" lon="1.573096">
        <ele>957.1</ele>
        <time>2013-04-10T16:39:42Z</time>
      </trkpt>
      <trkpt lat="42.764227" lon="1.573022">
        <ele>957.6</ele>
        <time>2013-04-10T16:39:51Z</time>
      </trkpt>
      <trkpt lat="42.764316" lon="1.572945">
        <ele>951.8</ele>
        <time>2013-04-10T16:39:59Z</time>
      </trkpt>
      <trkpt lat="42.764391" lon="1.572876">
        <ele>955.7</ele>
        <time>2013-04-10T16:40:07Z</time>
      </trkpt>
      <trkpt lat="42.764466" lon="1.572801">
        <ele>954.7</ele>
        <time>2013-04-10T16:40:20Z</time>
      </trkpt>
      <trkpt lat="42.764547" lon="1.572720">
        <ele>954.7</ele>
        <time>2013-04-10T16:40:29Z</time>
      </trkpt>
      <trkpt lat="42.764683" lon="1.572509">
        <ele>952.6</ele>
        <time>2013-04-10T16:40:52Z</time>
      </trkpt>
      <trkpt lat="42.764851" lon="1.572314">
        <ele>946.8</ele>
        <time>2013-04-10T16:41:07Z</time>
      </trkpt>
      <trkpt lat="42.765171" lon="1.572263">
        <ele>946.6</ele>
        <time>2013-04-10T16:41:19Z</time>
      </trkpt>
      <trkpt lat="42.765399" lon="1.572154">
        <ele>945.1</ele>
        <time>2013-04-10T16:41:32Z</time>
      </trkpt>
      <trkpt lat="42.765799" lon="1.571999">
        <ele>944.2</ele>
        <time>2013-04-10T16:41:46Z</time>
      </trkpt>
      <trkpt lat="42.766039" lon="1.571942">
        <ele>944.6</ele>
        <time>2013-04-10T16:41:59Z</time>
      </trkpt>
      <trkpt lat="42.766274" lon="1.572037">
        <ele>947.9</ele>
        <time>2013-04-10T16:42:17Z</time>
      </trkpt>
      <trkpt lat="42.766470" lon="1.572081">
        <ele>949.7</ele>
        <time>2013-04-10T16:42:26Z</time>
      </trkpt>
      <trkpt lat="42.766489" lon="1.572259">
        <ele>952.8</ele>
        <time>2013-04-10T16:42:46Z</time>
      </trkpt>
      <trkpt lat="42.766509" lon="1.572437">
        <ele>955.8</ele>
        <time>2013-04-10T16:43:04Z</time>
      </trkpt>
      <trkpt lat="42.766633" lon="1.572615">
        <ele>959.0</ele>
        <time>2013-04-10T16:43:48Z</time>
      </trkpt>
      <trkpt lat="42.766659" lon="1.572801">
        <ele>962.7</ele>
        <time>2013-04-10T16:44:04Z</time>
      </trkpt>
      <trkpt lat="42.766691" lon="1.572943">
        <ele>965.9</ele>
        <time>2013-04-10T16:44:15Z</time>
      </trkpt>
      <trkpt lat="42.766842" lon="1.572935">
        <ele>967.8</ele>
        <time>2013-04-10T16:44:24Z</time>
      </trkpt>
      <trkpt lat="42.767116" lon="1.572908">
        <ele>971.2</ele>
        <time>2013-04-10T16:44:30Z</time>
      </trkpt>
      <trkpt lat="42.767331" lon="1.572890">
        <ele>974.0</ele>
        <time>2013-04-10T16:44:42Z</time>
      </trkpt>
      <trkpt lat="42.767572" lon="1.572819">
        <ele>976.5</ele>
        <time>2013-04-10T16:44:51Z</time>
      </trkpt>
    </trkseg>
  </trk>
</gpx>

